     2              OBSERVATION DATA    GPS                 RINEX VERSION / TYPE
teqc 2002Apr3 20041109 01:33:11UTC                          PGM / RUN BY / DATE
                                                            COMMENT
L2: 1 -> 1; 5 -> 5; 60 -> 9                                 COMMENT
L2: 1 -> 1; 5 -> 5; 60 -> 9                                 COMMENT
L2: 1 -> 1; 5 -> 5; 60 -> 9                                 COMMENT
L2: 1 -> 1; 5 -> 5; 60 -> 9                                 COMMENT
L2: 1 -> 1; 5 -> 5; 60 -> 9                                 COMMENT
Original Marker Name: 7368                                  COMMENT
Campaign Name: CSRC/Caltrans post-San Simeon                COMMENT
4-Character Station Name: U145                              COMMENT
6-Character Antenna Code: TRZEPH                            COMMENT
Vertical Measurement Point: BPA                             COMMENT
Vertical Offset to Rinex Ref. Point: 0.0000                 COMMENT
Radial Measurement Point: RRP                               COMMENT
Radial Offset to Rinex Ref. Point: 0.0000                   COMMENT
Antenna Height from Field Measurement: 2.0000 m             COMMENT
Original XYZ: -2651118.9331 -4475207.4518 3679297.5795      COMMENT
New XYZ position is based on association with SCEC monument COMMENT
E1E9I8V0+0011. Position of that monument is believed to be  COMMENT
valid to within 1 m horizontally; vertical accuracy         COMMENT
should be no worse than 3-times this value.                 COMMENT
                                                            COMMENT
Revised Rinex header created by UCSD GPS archive for        COMMENT
GSAC on 11-Feb-2005 (2005:042) 22:00:45 GMT                 COMMENT
For assistance contact dagnew@ucsd.edu                      COMMENT
or anderson@python.ucsd.edu                                 COMMENT
                                                            COMMENT
U1450                                                       MARKER NAME
7368                                                        MARKER NUMBER
K. A. Forsberg CALIF DEPT TRANSPORTATION DISTRICT 5         OBSERVER / AGENCY
0220247368 TRIMBLE 5700 NP 2.01 / SP 0.00                   REC # / TYPE / VERS
12200350 TRM41249.00                                        ANT # / TYPE
 -2529313.0000 -4621238.0000  3583811.0000                  APPROX POSITION XYZ
        2.0000        0.0000        0.0000                  ANTENNA: DELTA H/E/N
     1     1     0                                          WAVELENGTH FACT L1/2
     7    C1    L1    L2    P1    P2    S1    S2            # / TYPES OF OBSERV
     0                                                      INTERVAL
  2004     7    12    21    31   45.000000                  TIME OF FIRST OBS
  2004     7    12    23    15   45.000000                  TIME OF LAST OBS
                                                            END OF HEADER
 04  7 12 21 31 45.0000000  0  6G 1G11G16G20G23G25
  21377243.3824    -394031.55949   -293446.21947                  21377242.4584
        51.5004         37.7504
  22487713.2714     -84987.92649    -66863.40647                  22487711.9534
        47.2504         32.0004
  23124757.1674    -492342.66449   -374000.15646                  23124755.4424
        38.7504         22.5004
  20894920.9514    -451407.95349   -311150.57448                  20894919.0354
        49.0004         40.5004
  20956483.3384    -382668.36749   -287765.93747                  20956479.1324
        49.7504         39.2504
  21670667.4944     -95354.52349    -74307.06647                  21670665.7674
        48.5004         39.0004
 04  7 12 21 32  0.0000000  0  6G 1G11G16G20G23G25
  21364575.1954    -460602.77349   -345319.89147                  21364573.9754
        51.2504         38.5004
  22484970.0144     -99404.75049    -78097.32047                  22484968.4044
        48.5004         31.7504
  23107598.4554    -582513.96549   -444263.47346                  23107596.4804
        39.5004         22.0004
  20880281.6624    -528338.42649   -371096.39848                  20880279.4134
        48.7504         40.0004
  20944185.6974    -447292.73449   -338122.59048                  20944181.5894
        50.5004         39.5004
  21667591.0254    -111520.98849    -86904.33247                  21667589.2604
        48.2504         39.0004
 04  7 12 21 32 15.0000000  0  6G 1G11G16G20G23G25
  21351911.9974    -527149.19949   -397174.24647                  21351911.2334
        50.7504         38.5004
  22482237.1404    -113765.12149    -89287.25047                  22482235.8074
        47.2504         31.5004
  23090446.7174    -672648.53149   -514498.18446                  23090444.9284
        39.0004         22.2504
  20865655.6164    -605197.43749   -430986.52748                  20865653.6584
        48.7504         40.0004
  20931894.9694    -511881.52749   -388451.51647                  20931890.8224
        50.2504         39.2504
  21664525.3584    -127631.96949    -99458.35547                  21664523.6324
        48.5004         38.7504
 04  7 12 21 32 30.0000000  0  6G 1G11G16G20G23G25
  21339253.8614    -593668.32849   -449007.33647                  21339252.9444
        50.2504         38.2504
  22479515.6684    -128066.80549   -100431.44947                  22479513.9634
        46.7504         32.0004
  23073301.8534    -762743.38749   -584701.93446                  23073300.3894
        40.2504         22.2504
  20851044.0194    -681982.19549   -490818.81248                  20851041.6984
        49.0004         39.7504
  20919611.4294    -576432.24649   -438750.78147                  20919607.0584
        49.7504         39.2504
  21661470.5574    -143685.12549   -111967.31647                  21661469.2744
        49.0004         39.0004
 04  7 12 21 32 45.0000000  0  6G 1G11G16G20G23G25
  21326601.0034    -660159.51649   -500818.64547                  21326599.8184
        50.5004         38.2504
  22476805.4334    -142309.41849   -111529.61347                  22476803.8444
        48.0004         32.0004
  23056165.5264    -852797.56249   -654874.01246                  23056163.1364
        39.2504         21.2504
  20836446.8174    -758691.75049   -550592.48448                  20836444.7494
        49.0004         40.2504
  20907335.1574    -640944.23849   -489019.85948                  20907330.8954
        49.0004         39.5004
  21658426.7044    -159680.15249   -124430.99247                  21658424.8194
        48.5004         39.0004
 04  7 12 21 33  0.0000000  0  6G 1G11G16G20G23G25
  21313953.9904    -726619.94949   -552605.98847                  21313953.0534
        49.7504         38.5004
  22474106.7104    -156490.56249   -122579.87947                  22474105.2884
        48.5004         31.5004
  23039036.8944    -942807.68049   -725011.73446                  23039035.3304
        40.5004         21.5004
  20821864.2594    -835322.93749   -610305.09848                  20821862.1284
        49.5004         40.0004
  20895066.8534    -705414.49249   -539256.41448                  20895062.5914
        49.7504         39.7504
  21655394.6514    -175614.28949   -136847.21547                  21655392.6294
        49.2504         38.0004
 04  7 12 21 33 15.0000000  0  6G 1G11G16G20G23G25
  21301313.2374    -793048.08249   -604368.17647                  21301312.0824
        51.0004         38.2504
  22471420.6284    -170608.89549   -133581.20347                  22471419.2154
        48.2504         31.7504
  23021917.0864   -1032771.85549   -795113.68046                  23021915.6224
        40.2504         23.2504
  20807296.9664    -911873.93749   -669955.23048                  20807295.0904
        48.2504         40.5004
  20882806.7784    -769841.44149   -589459.23047                  20882802.4354
        50.7504         39.0004
  21652374.3924    -191486.30949   -149215.02347                  21652372.2024
        47.7504         38.0004
 04  7 12 21 33 30.0000000  0  6G 1G11G16G20G23G25
  21288678.2704    -859444.84849   -656105.90647                  21288676.9814
        50.7504         38.2504
  22468745.2704    -184665.66449   -144534.56647                  22468744.2564
        47.5004         32.2504
  23004806.1994   -1122690.52749   -865180.14146                  23004804.8884
        39.5004         22.2504
  20792745.1924    -988345.35249   -729543.35248                  20792742.9894
        49.2504         40.5004
  20870554.7744    -834226.16849   -639629.14148                  20870550.8154
        50.5004         39.5004
  21649365.6114    -207297.52349   -161535.45747                  21649363.7414
        48.5004         38.7504
 04  7 12 21 33 45.0000000  0  6G 1G11G16G20G23G25
  21276048.9494    -925812.05949   -707820.61347                  21276047.6324
        50.0004         37.5004
  22466081.9544    -198663.02049   -155441.62147                  22466080.5154
        47.5004         32.0004
  22987703.5604   -1212565.20749   -935212.33646                  22987702.0844
        39.5004         23.0004
  20778207.8214   -1064738.75449   -789070.66848                  20778206.2454
        49.2504         40.0004
  20858310.2074    -898570.40249   -689767.50448                  20858306.1374
        50.0004         39.5004
  21646368.1134    -223049.95349   -173810.09047                  21646366.3364
        48.7504         38.2504
 04  7 12 21 34  0.0000000  0  6G 1G11G16G20G23G25
  21263425.2114    -992148.40649   -759511.27047                  21263424.5604
        51.0004         38.2504
  22463429.0974    -212600.07449   -166301.71147                  22463427.7084
        47.0004         30.2504
  22970609.7074   -1302394.16449  -1005208.91047                  22970607.4374
        41.0004         25.7504
  20763686.1564   -1141052.55549   -848535.97348                  20763684.0324
        49.2504         40.5004
  20846074.3464    -962872.81649   -739873.27748                  20846069.7304
        51.2504         39.5004
  21643381.7064    -238742.55549   -186038.11347                  21643380.1314
        47.5004         38.2504
 04  7 12 21 34 15.0000000  0  6G 1G11G16G20G23G25
  21250808.3574   -1058452.07049   -811176.45747                  21250807.6334
        50.7504         38.5004
  22460789.3124    -226475.22749   -177113.53147                  22460787.6004
        46.7504         30.5004
  22953525.8214   -1392175.09049  -1075168.05546                  22953523.6064
        40.2504         23.0004
  20749179.6734   -1217284.53149   -907937.50848                  20749177.5214
        49.2504         40.2504
  20833846.2784   -1027131.46949   -789944.94948                  20833842.1544
        51.0004         39.5004
  21640407.2854    -254373.69549   -198218.23447                  21640405.1934
        47.2504         38.2504
 04  7 12 21 34 30.0000000  0  6G 1G11G16G20G23G25
  21238197.4954   -1124722.84849   -862816.02047                  21238196.6484
        51.0004         38.5004
  22458160.7304    -240288.57049   -187877.19947                  22458159.1264
        46.5004         30.7504
  22936449.4444   -1481907.43749  -1145089.32446                  22936448.0774
        41.2504         25.2504
  20734688.7144   -1293434.23049   -967274.93048                  20734686.4794
        50.0004         40.5004
  20821626.4364   -1091346.31649   -839982.49247                  20821622.1504
        51.0004         39.0004
  21637444.7504    -269943.32449   -210350.41047                  21637442.5634
        48.5004         38.2504
 04  7 12 21 34 45.0000000  0  6G 1G11G16G20G23G25
  21225592.2444   -1190962.03549   -914430.96947                  21225591.3534
        51.5004         38.7504
  22455543.7864    -254041.80549   -198594.02347                  22455542.5114
        47.2504         31.2504
  22919383.2944   -1571592.00449  -1214973.38746                  22919381.5334
        40.5004         24.7504
  20720213.4234   -1369502.59449  -1026548.97748                  20720211.2634
        49.0004         40.0004
  20809415.0504   -1155518.46549   -889986.76648                  20809410.6084
        50.5004         39.5004
  21634493.1284    -285453.10949   -222435.97347                  21634491.5124
        48.5004         38.0004
 04  7 12 21 35  0.0000000  0  6G 1G11G16G20G23G25
  21212993.9054   -1257167.91849   -966019.96147                  21212992.8514
        49.5004         38.2504
  22452938.1684    -267733.34049   -209262.78147                  22452936.6934
        47.5004         31.7504
  22902326.6674   -1661226.60249  -1284818.51247                  22902324.1504
        42.2504         26.5004
  20705753.7884   -1445487.59049  -1085758.06648                  20705751.7264
        49.7504         40.2504
  20797212.0284   -1219646.16049   -939956.39148                  20797207.8474
        50.2504         40.0004
  21631552.9324    -300901.44549   -234473.65247                  21631551.5134
        48.2504         37.7504
 04  7 12 21 35 15.0000000  0  6G 1G11G16G20G23G25
  21200401.2894   -1323341.76249  -1017584.00447                  21200400.4414
        51.0004         38.5004
  22450344.1434    -281364.81649   -219884.73447                  22450342.0144
        47.0004         31.2504
  22885278.4324   -1750812.25849  -1354625.48846                  22885276.8244
        41.0004         25.2504
  20691310.0954   -1521390.25049  -1144902.98848                  20691308.2754
        50.0004         40.2504
  20785016.5714   -1283730.77049   -989892.46148                  20785012.4564
        50.5004         40.0004
  21628625.2014    -316289.98849   -246464.74647                  21628623.3534
        48.5004         38.0004
 04  7 12 21 35 30.0000000  0  6G 1G11G16G20G23G25
  21187815.2514   -1389484.57849  -1069123.85947                  21187814.1994
        50.5004         38.2504
  22447761.5424    -294937.44949   -230460.82847                  22447760.6874
        47.0004         31.7504
  22868240.5084   -1840349.50449  -1424394.75047                  22868238.6624
        41.5004         25.7504
  20676881.6974   -1597211.33649  -1203984.35548                  20676879.9184
        49.5004         40.5004
  20772830.1644   -1347773.26249  -1039795.69148                  20772825.6354
        50.2504         39.7504
  21625707.5124    -331619.91849   -258410.15247                  21625706.1074
        48.2504         38.2504
 04  7 12 21 35 45.0000000  0  6G 1G11G16G20G23G25
  21175234.5004   -1455595.09049  -1120638.53147                  21175233.2594
        50.7504         38.7504
  22445190.0624    -308450.37149   -240990.41047                  22445188.8964
        47.5004         32.0004
  22851211.9794   -1929836.50849  -1494124.85246                  22851209.6284
        42.2504         25.5004
  20662469.4044   -1672949.14849  -1263000.82848                  20662467.2884
        50.0004         40.0004
  20760651.3424   -1411772.24249  -1089665.02048                  20760647.1564
        51.0004         39.5004
  21622801.9774    -346890.11749   -270309.02347                  21622800.6024
        49.0004         37.7504
 04  7 12 21 36  0.0000000  0  6G 1G11G16G20G23G25
  21462453.8124   -1521668.08249  -1172123.98047                  21462452.8544
        50.5004         38.2504
  22742422.7274    -321902.32449   -251472.47347                  22742421.8424
        46.5004         32.5004
  23133986.0774   -2019266.16849  -1563810.29347                  23133984.4424
        41.7504         25.7504
  20947866.3474   -1748597.53149  -1321947.62948                  20947864.4364
        49.7504         40.2504
  21048274.3454   -1475722.63749  -1139496.50048                  21048270.3614
        50.5004         39.5004
  21919700.1364    -362099.12549   -282160.21147                  21919698.6514
        48.7504         37.2504
 04  7 12 21 36 15.0000000  0  6G 1G11G16G20G23G25
  21449886.1164   -1587712.99249  -1223587.54347                  21449884.9284
        51.5004         38.5004
  22739874.1384    -335295.91449   -261909.06247                  22739872.7854
        46.7504         32.5004
  23116976.5104   -2108650.58249  -1633460.46947                  23116975.4944
        41.2504         26.2504
  20933486.0334   -1824166.87949  -1380832.82848                  20933483.8374
        50.0004         39.7504
  21036112.5674   -1539633.58249  -1189297.22748                  21036108.0304
        50.7504         39.7504
  21916816.9624    -377249.85549   -293965.98047                  21916815.4274
        48.2504         37.0004
 04  7 12 21 36 30.0000000  0  6G 1G11G16G20G23G25
  21437324.2944   -1653724.49649  -1275025.07447                  21437323.3234
        51.0004         38.2504
  22737336.4314    -348629.69149   -272299.03547                  22737335.3564
        46.5004         32.0004
  23099977.3974   -2197982.61749  -1703069.80947                  23099976.5064
        41.2504         27.0004
  20919121.6264   -1899650.98049  -1439651.60248                  20919119.8244
        49.0004         40.0004
  21023959.3304   -1603499.94549  -1239063.22747                  21023955.0864
        51.5004         39.2504
  21913945.3174    -392340.51249   -305724.95347                  21913943.4794
        47.5004         37.5004
 04  7 12 21 36 45.0000000  0  6G 1G11G16G20G23G25
  21424768.8504   -1719703.34849  -1326437.16047                  21424768.1284
        51.5004         37.7504
  22734810.7584    -361904.72349   -282643.26247                  22734808.9504
        46.5004         31.0004
  23082987.9894   -2287262.48449  -1772638.51246                  23082986.6954
        40.5004         25.5004
  20904773.8354   -1975050.19149  -1498404.22748                  20904772.1554
        48.7504         40.0004
  21011814.4674   -1667322.31249  -1288794.93748                  21011809.8854
        50.0004         39.7504
  21911085.1334    -407372.09849   -317437.89147                  21911083.5064
        47.5004         37.0004
 04  7 12 21 37  0.0000000  0  6G 1G11G16G20G23G25
  21412220.0684   -1785649.08649  -1377823.44147                  21412219.1464
        51.2504         39.0004
  22732295.7974    -375120.78549   -292941.51647                  22732294.4374
        46.5004         33.0004
  23066008.5734   -2376489.19149  -1842165.80946                  23066007.2864
        41.2504         25.2504
  20890442.2264   -2050363.87549  -1557090.21948                  20890439.9214
        50.0004         40.5004
  20999677.7334   -1731100.20749  -1338491.99248                  20999673.5344
        50.2504         39.5004
  21908235.6194    -422344.49249   -329104.70347                  21908234.1354
        47.5004         37.2504
 04  7 12 21 37 15.0000000  0  6G 1G11G16G20G23G25
  21399677.3454   -1851561.67249  -1429183.88747                  21399676.4024
        51.5004         39.0004
  22729792.0004    -388278.18049   -303194.06247                  22729790.8374
        47.0004         33.0004
  23049039.4874   -2465662.38349  -1911651.38747                  23049038.3064
        40.0004         26.5004
  20876126.7304   -2125591.61349  -1615709.23448                  20876124.3924
        50.0004         40.0004
  20987549.6154   -1794833.62949  -1388154.39548                  20987545.4964
        50.2504         39.5004
  21905398.2584    -437257.75049   -340725.43047                  21905396.1784
        48.0004         37.0004
 04  7 12 21 37 30.0000000  0  6G 1G11G16G20G23G25
  21387140.5654   -1917442.62549  -1480519.69548                  21387139.2404
        52.0004         39.5004
  22727299.6594    -401378.64549   -313402.23447                  22727297.6554
        48.5004         32.5004
  23032080.2454   -2554783.14149  -1981096.10546                  23032078.7374
        40.0004         25.0004
  20861827.4664   -2200734.57849  -1674262.18748                  20861825.4174
        50.2504         40.2504
  20975429.8024   -1858524.00849  -1437783.26248                  20975425.7714
        50.5004         40.0004
  21902570.9954    -452113.60549   -352301.43747                  21902569.5044
        48.5004         37.2504
 04  7 12 21 37 45.0000000  0  6G 1G11G16G20G23G25
  21374610.1094   -1983290.49649  -1531829.71947                  21374608.7804
        51.2504         39.0004
  22724817.1214    -414421.12549   -323565.23447                  22724815.6634
        47.5004         33.2504
  23015131.3294   -2643849.61749  -2050498.53147                  23015129.3494
        39.5004         26.7504
  20847544.5314   -2275791.11749  -1732747.79748                  20847542.6484
        50.0004         40.5004
  20963318.2714   -1922169.94149  -1487377.49248                  20963314.2304
        50.5004         39.7504
  21899754.8244    -466911.03949   -363831.91447                  21899753.6284
        48.5004         36.7504
 04  7 12 21 38  0.0000000  0  6G 1G11G16G20G23G25
  21362085.7414   -2049105.17249  -1583113.87947                  21362085.1184
        51.7504         39.2504
  22722346.4384    -427405.82049   -333683.20347                  22722344.7844
        46.7504         32.5004
  22998192.6844   -2732861.27749  -2119858.28147                  22998191.1464
        40.0004         26.0004
  20833278.6624   -2350760.84849  -1791165.76648                  20833276.5944
        50.5004         40.7504
  20951215.4254   -1985771.28949  -1536936.98448                  20951211.1164
        51.2504         40.0004
  21896950.2924    -481650.14149   -375316.93047                  21896948.8894
        48.0004         36.5004
 04  7 12 21 38 15.0000000  0  6G 1G11G16G20G23G25
  21349568.3454   -2114885.49249  -1634371.27047                  21349567.2634
        52.0004         38.7504
  22719886.5314    -440331.94549   -343755.53947                  22719885.2794
        47.2504         31.5004
  22981265.0274   -2821816.65249  -2189174.13746                  22981263.9304
        39.5004         24.7504
  20819028.6924   -2425642.23049  -1849514.89548                  20819026.7604
        50.5004         40.5004
  20939121.1004   -2049326.79749  -1586460.75048                  20939117.0294
        50.7504         40.0004
  21894156.7174    -496329.98049   -386755.78147                  21894155.4234
        48.5004         36.7504
 04  7 12 21 38 30.0000000  0  6G 1G11G16G20G23G25
  21337056.9434   -2180632.98049  -1685603.08247                  21337056.3574
        51.0004         38.7504
  22717437.4904    -453201.38749   -353783.70747                  22717436.1584
        46.7504         31.5004
  22964348.0734   -2910716.71949  -2258446.87946                  22964347.0614
        39.7504         24.5004
  20804795.9954   -2500436.54349  -1907796.17648                  20804794.1414
        50.0004         40.5004
  20927035.2184   -2112838.10949  -1635950.08648                  20927030.9544
        51.2504         40.0004
  21891374.0234    -510952.34049   -398149.84847                  21891372.6524
        48.5004         36.5004
 04  7 12 21 38 45.0000000  0  6G 1G11G16G20G23G25
  21324551.8064   -2246346.73449  -1736808.59447                  21324551.2424
        49.7504         38.5004
  22714999.8274    -466013.43449   -363767.15247                  22714998.2874
        47.5004         32.0004
  22947441.7804   -2999560.16049  -2327675.52346                  22947440.2824
        39.7504         25.5004
  20790579.9414   -2575142.53149  -1966008.62148                  20790578.1964
        49.7504         40.5004
  20914958.0534   -2176304.21549  -1685404.18748                  20914953.8854
        49.7504         39.7504
  21888602.9974    -525516.52349   -409498.57047                  21888601.0754
        48.2504         37.0004
 04  7 12 21 39  0.0000000  0  6G 1G11G16G20G23G25
  21312053.1194   -2312026.96549  -1787987.96947                  21312052.6634
        45.5004         36.7504
  22712572.4034    -478768.68049   -373706.31247                  22712571.0904
        44.0004         29.5004
  22930545.9754   -3088346.78549  -2396859.87146                  22930544.7774
        38.0004         23.2504
  20776380.7644   -2649760.15249  -2024152.21547                  20776378.4194
        45.5004         37.5004
  20902889.5684   -2239725.27049  -1734823.16847                  20902884.9914
        45.7504         37.5004
  21885842.2094    -540022.94549   -420802.27047                  21885841.0904
        44.5004         34.5004
 04  7 12 21 39 15.0000000  0  6G 1G11G16G20G23G25
  21299561.5064   -2377673.30549  -1839140.97747                  21299560.2264
        50.7504         39.0004
  22710156.3284    -491467.11749   -383601.24247                  22710154.8314
        48.0004         33.0004
  22913661.6054   -3177075.92249  -2465999.46147                  22913660.1244
        38.5004         26.2504
  20762198.5294   -2724288.72749  -2082226.43748                  20762196.5224
        50.2504         40.5004
  20890829.7944   -2303100.84849  -1784206.75848                  20890825.3954
        50.2504         39.7504
  21883092.7614    -554471.57449   -432060.97347                  21883091.5714
        49.0004         37.0004
 04  7 12 21 39 30.0000000  0  6G 1G11G16G20G23G25
  21287075.8754   -2443285.57849  -1890267.41447                  21287074.8774
        51.0004         39.0004
  22707750.4064    -504108.66049   -393451.83247                  22707749.5664
        48.0004         32.2504
  22896788.2254   -3265746.77049  -2535093.60946                  22896786.9954
        40.0004         25.5004
  20748033.2714   -2798727.74649  -2140230.87148                  20748031.3084
        51.0004         40.5004
  20878778.3934   -2366430.68449  -1833554.67648                  20878773.9224
        50.2504         39.7504
  21880354.4394    -568862.31649   -443274.55547                  21880352.9204
        50.0004         36.7504
 04  7 12 21 39 45.0000000  0  6G 1G11G16G20G23G25
  21274596.6174   -2508863.32449  -1941366.95347                  21274596.0794
        51.2504         39.2504
  22705355.7434    -516693.29749   -403258.07847                  22705354.6914
        46.5004         32.0004
  22879925.3674   -3354358.57449  -2604141.73846                  22879924.7354
        39.5004         25.0004
  20733885.2234   -2873076.46149  -2198164.93448                  20733883.1904
        51.2504         40.5004
  20866735.8994   -2429714.38349  -1882866.64848                  20866731.4644
        51.0004         39.5004
  21877627.1004    -583195.01649   -454442.90247                  21877625.7414
        49.5004         37.0004
 04  7 12 21 40  0.0000000  0  6G 1G11G16G20G23G25
  21262124.1654   -2574406.35249  -1992439.43447                  21262123.4434
        51.0004         39.0004
  22702971.1784    -529221.23849   -413020.14147                  22702970.5564
        47.5004         32.5004
  22863074.9644   -3442910.71149  -2673143.40247                  22863073.3814
        39.2504         26.2504
  20719754.3564   -2947334.35549  -2256028.22748                  20719752.1224
        50.2504         40.5004
  20854702.2614   -2492951.69549  -1932142.48048                  20854697.9764
        51.2504         39.5004
  21874910.5634    -597469.85249   -465566.16447                  21874909.2504
        49.5004         37.2504
 04  7 12 21 40 15.0000000  0  6G 1G11G16G20G23G25
  21249658.0264   -2639916.29749  -2043486.14148                  21249657.3144
        51.2504         39.5004
  22700598.1594    -541694.41449   -422739.53547                  22700596.6804
        47.0004         31.0004
  22846235.8494   -3531404.42649  -2742099.53146                  22846233.7574
        39.0004         25.0004
  20705640.3334   -3021502.76649  -2313821.79348                  20705638.5084
        50.0004         40.5004
  20842677.1224   -2556144.30949  -1981383.47348                  20842672.6604
        50.7504         40.0004
  21872205.3884    -611688.67649   -476645.78547                  21872203.5374
        48.7504         37.0004
 04  7 12 21 40 30.0000000  0  6G 1G11G16G20G23G25
  21237198.6734   -2705391.87549  -2094506.06647                  21237197.8174
        51.2504         39.2504
  22698235.4084    -554111.85549   -432415.49647                  22698233.7054
        47.2504         31.0004
  22829406.6814   -3619838.07449  -2811008.85546                  22829404.9424
        39.5004         24.0004
  20691543.9654   -3095580.29349  -2371544.54348                  20691541.8684
        49.7504         40.5004
  20830660.7684   -2619291.04749  -2030588.72748                  20830656.1244
        51.0004         40.0004
  21869510.2534    -625850.43049   -487680.91847                  21869508.8784
        49.0004         36.7504
 04  7 12 21 40 45.0000000  0  6G 1G11G16G20G23G25
  21224745.8354   -2770832.30149  -2145498.59048                  21224745.0094
        51.0004         39.5004
  22695882.7074    -566473.03549   -442047.60947                  22695881.3904
        47.0004         30.7504
  22812589.6854   -3708210.46549  -2879870.44546                  22812588.4674
        38.0004         25.2504
  20677465.1344   -3169565.75049  -2429195.53948                  20677462.9204
        50.0004         40.7504
  20818653.0524   -2682390.89849  -2079757.43448                  20818648.8814
        51.0004         39.5004
  21866826.3084    -639954.53549   -498671.15647                  21866825.0834
        48.7504         37.0004
 04  7 12 21 41  0.0000000  0  6G 1G11G16G20G23G25
  21212299.6224   -2836237.30549  -2196463.53547                  21212298.3984
        50.7504         39.2504
  22693541.5284    -578778.17649   -451636.05547                  22693539.8364
        47.5004         30.7504
  22795785.2984   -3796520.91049  -2948683.75847                  22795783.8684
        39.5004         26.0004
  20663403.8554   -3243458.65249  -2486774.43048                  20663401.4774
        50.7504         41.0004
  20806654.5084   -2745443.60549  -2128889.41448                  20806650.0684
        50.7504         39.5004
  21864153.1694    -654001.02349   -509616.48047                  21864151.6074
        49.0004         37.0004
 04  7 12 21 41 15.0000000  0  6G 1G11G16G20G23G25
  21199859.9034   -2901607.25449  -2247401.15647                  21199859.1404
        51.0004         38.2504
  22691210.7204    -591027.75049   -461181.20747                  22691209.0054
        47.7504         32.0004
  22778992.3664   -3884769.35949  -3017448.77347                  22778990.9414
        40.0004         26.0004
  20649359.8884   -3317258.91449  -2544281.11748                  20649357.8714
        50.0004         40.5004
  20794664.8864   -2808449.48049  -2177984.91447                  20794660.2424
        50.2504         39.2504
  21861491.4704    -667990.43749   -520517.33247                  21861489.5294
        48.5004         37.0004
 04  7 12 21 41 30.0000000  0  6G 1G11G16G20G23G25
  21187427.0554   -2966942.60949  -2298311.82047                  21187426.4954
        50.2504         38.7504
  22688889.6794    -603222.61349   -470683.72747                  22688888.3244
        47.5004         31.0004
  22762211.1764   -3972955.77749  -3086165.43746                  22762209.4444
        39.0004         24.7504
  20635333.6964   -3390966.79749  -2601715.83248                  20635331.4514
        49.5004         40.5004
  20782684.2334   -2871408.91449  -2227044.19948                  20782679.9314
        50.7504         39.5004
  21858840.0034    -681923.62549   -531374.37547                  21858838.0144
        48.7504         37.0004
 04  7 12 21 41 45.0000000  0  6G 1G11G16G20G23G25
  21175000.6064   -3032242.99649  -2349195.23447                  21174999.8834
        51.2504         39.0004
  22686580.2554    -615362.80549   -480143.66047                  22686578.1214
        47.5004         31.0004
  22745441.4044   -4061079.50049  -3154833.26646                  22745439.8804
        40.0004         25.0004
  20621325.4864   -3464581.54749  -2659077.97348                  20621323.1274
        49.0004         41.0004
  20770712.3164   -2934321.59849  -2276067.07048                  20770708.0674
        50.7504         39.5004
  21856199.2414    -695800.44549   -542187.49247                  21856197.3444
        47.7504         37.5004
 04  7 12 21 42  0.0000000  0  6G 1G11G16G20G23G25
  21162580.9174   -3097509.27049  -2400052.06647                  21162579.9314
        50.0004         39.0004
  22684279.8744    -627449.47749   -489561.86347                  22684278.1424
        46.7504         31.0004
  22728683.5354   -4149140.80949  -3223452.44146                  22728682.8224
        39.7504         24.5004
  20607334.4004   -3538103.76649  -2716368.01248                  20607332.2444
        50.0004         40.7504
  20758749.2964   -2997188.38749  -2325054.17648                  20758744.8224
        50.2504         39.7504
  21853568.8864    -709621.99649   -552957.54347                  21853567.6144
        48.5004         36.5004
 04  7 12 21 42 15.0000000  0  6G 1G11G16G20G23G25
  21150168.2534   -3162739.18449  -2450880.57047                  21150167.3354
        51.0004         39.2504
  22681990.3944    -639480.56249   -498936.75047                  22681988.5404
        47.7504         30.5004
  22711938.4884   -4237137.10949  -3292020.98846                  22711937.5014
        39.5004         25.0004
  20593361.8304   -3611531.00849  -2773584.05148                  20593359.8114
        49.2504         40.7504
  20746795.1344   -3060007.02049  -2374003.76248                  20746790.8254
        51.0004         39.7504
  21850949.5184    -723386.14149   -563682.86747                  21850947.7194
        48.2504         36.5004
 04  7 12 21 42 30.0000000  0  6G 1G11G16G20G23G25
  21137762.4644   -3227931.87149  -2501680.06247                  21137761.6454
        50.2504         38.5004
  22679711.1524    -651455.54749   -508267.93047                  22679710.1624
        47.2504         31.5004
  22695206.3704   -4325067.23449  -3360537.94146                  22695204.5604
        39.2504         22.5004
  20579407.4094   -3684861.99249  -2830725.07448                  20579404.9194
        49.5004         40.7504
  20734850.3354   -3122776.61349  -2422915.14148                  20734846.1764
        50.0004         40.5004
  21848341.6384    -737092.25849   -574362.96947                  21848339.4984
        48.7504         36.5004
 04  7 12 21 42 45.0000000  0  6G 1G11G16G20G23G25
  21125363.3894   -3293088.45749  -2552451.42247                  21125362.3774
        50.5004         38.2504
  22677443.3824    -663376.05949   -517556.65647                  22677441.7804
        47.5004         30.5004
  22678485.7134   -4412931.90649  -3429003.91446                  22678484.0414
        38.0004         24.7504
  20565471.1654   -3758097.68449  -2887791.84448                  20565469.2134
        49.0004         40.7504
  20722915.1904   -3185498.22349  -2471789.10948                  20722910.8664
        51.0004         39.5004
  21845744.4324    -750741.64549   -584998.86747                  21845742.3574
        48.0004         36.5004
 04  7 12 21 43  0.0000000  0  6G 1G11G16G20G23G25
  21112971.5154   -3358209.94549  -2603195.42647                  21112970.2584
        51.0004         39.0004
  22675185.2534    -675243.31249   -526803.92247                  22675183.2104
        47.5004         30.7504
  22661777.9214   -4500731.56649  -3497419.19546                  22661776.1804
        37.7504         24.0004
  20551552.8904   -3831238.67249  -2944784.82048                  20551550.6264
        48.0004         40.5004
  20710988.4524   -3248172.69149  -2520626.35248                  20710983.9534
        51.0004         40.0004
  21843157.0634    -764335.71549   -595591.66047                  21843155.3844
        47.0004         36.5004
 04  7 12 21 43 15.0000000  0  6G 1G11G16G20G23G25
  21100585.7754   -3423296.47349  -2653912.20347                  21100584.7604
        50.7504         38.2504
  22672936.6424    -687057.74649   -536009.99647                  22672935.1654
        47.2504         30.2504
  22645082.5954   -4588466.09449  -3565783.76646                  22645080.6394
        37.2504         25.2504
  20537652.4724   -3904284.88349  -3001703.94548                  20537650.5224
        48.5004         40.7504
  20699070.9954   -3310800.22749  -2569427.02348                  20699066.3974
        51.0004         40.0004
  21840581.0774    -777874.80949   -606141.60947                  21840579.3364
        46.7504         36.2504
 04  7 12 21 43 30.0000000  0  6G 1G11G16G20G23G25
  21088207.1474   -3488347.13749  -2704601.03147                  21088205.8984
        50.5004         38.5004
  22670698.9174    -698818.89549   -545174.52747                  22670696.3384
        47.2504         29.7504
  22628399.8464   -4676134.02049  -3634096.41846                  22628398.1124
        40.0004         24.7504
  20523770.9004   -3977235.09049  -3058548.26648                  20523768.7344
        49.0004         41.0004
  20687162.6654   -3373379.88349  -2618190.40248                  20687158.0314
        50.7504         40.0004
  21838014.9134    -791358.22749   -616648.19147                  21838013.2164
        48.2504         36.7504
 04  7 12 21 43 45.0000000  0  6G 1G11G16G20G23G25
  21075834.7724   -3553362.63749  -2755262.44947                  21075833.4594
        51.2504         38.7504
  22668470.6714    -710527.66449   -554298.28947                  22668468.8814
        46.5004         31.0004
  22611729.8014   -4763735.81649  -3702357.53546                  22611728.0304
        39.5004         24.0004
  20509907.0924   -4050089.63349  -3115318.03548                  20509905.0284
        48.7504         41.0004
  20675262.7914   -3435912.36749  -2666917.00448                  20675258.4504
        50.5004         40.0004
  21835460.0054    -804786.96949   -627112.15647                  21835457.4444
        47.5004         36.5004
 04  7 12 21 44  0.0000000  0  6G 1G11G16G20G23G25
  21363262.8624   -3618338.33649  -2805892.87147                  21363261.9094
        50.5004         38.2504
  22966045.1474    -722183.42649   -563380.71147                  22966043.6484
        46.0004         29.2504
  22894866.9734   -4851264.83649  -3770561.96146                  22894864.7204
        40.0004         24.0004
  20795854.7314   -4122843.19949  -3172009.12948                  20795852.7734
        49.5004         40.7504
  20963165.6064   -3498393.19549  -2715603.35548                  20963161.1084
        50.2504         40.7504
  22132707.4684    -818160.19549   -637532.86747                  22132705.2924
        48.0004         35.7504
 04  7 12 21 44 15.0000000  0  6G 1G11G16G20G23G25
  21350904.6884   -3683282.12149  -2856498.40247                  21350903.4094
        51.0004         38.7504
  22963836.9824    -733787.07449   -572422.53947                  22963835.4644
        45.5004         30.0004
  22878221.7424   -4938731.65249  -3838717.89146                  22878220.5084
        39.5004         23.2504
  20782027.9124   -4195504.39149  -3228628.23048                  20782025.6884
        49.2504         41.2504
  20951284.2704   -3560829.82849  -2764255.28548                  20951279.8044
        50.7504         40.2504
  22130172.6244    -831479.02749   -647911.18447                  22130170.8504
        48.2504         35.5004
 04  7 12 21 44 30.0000000  0  6G 1G11G16G20G23G25
  21338552.7574   -3748189.75849  -2907075.78147                  21338551.9564
        51.2504         39.0004
  22961638.9914    -745338.39849   -581423.58247                  22961637.1514
        46.5004         30.5004
  22861590.8854   -5026130.02349  -3906820.51646                  22861589.3314
        40.2504         23.5004
  20768219.5814   -4268068.17249  -3285171.44148                  20768217.2454
        49.2504         41.0004
  20939412.2154   -3623218.18749  -2812869.58248                  20939408.0444
        51.0004         40.7504
  22127648.7794    -844742.88749   -658246.66847                  22127646.7684
        47.5004         35.7504
 04  7 12 21 44 45.0000000  0  6G 1G11G16G20G23G25
  21326208.6154   -3813060.88349  -2957624.71147                  21326207.1464
        50.7504         38.2504
  22959450.3564    -756837.29749   -590383.78947                  22959449.1304
        45.5004         29.0004
  22844971.6004   -5113459.25049  -3974869.23846                  22844971.1334
        39.5004         25.2504
  20754429.6454   -4340533.92649  -3341638.25848                  20754428.0064
        49.5004         41.0004
  20927549.1024   -3685557.99249  -2861446.05148                  20927544.8804
        50.7504         40.2504
  22125135.1054    -857951.83249   -668539.35947                  22125132.7584
        47.5004         36.2504
 04  7 12 21 45  0.0000000  0  6G 1G11G16G20G23G25
  21313870.8834   -3877896.21949  -3008145.73847                  21313869.7234
        50.0004         39.0004
  22957272.1894    -768284.73849   -599303.91047                  22957271.2084
        45.0004         29.2504
  22828367.0134   -5200719.64849  -4042864.31247                  22828365.6444
        39.5004         26.2504
  20740658.4804   -4412901.99249  -3398028.95748                  20740656.3154
        48.0004         41.0004
  20915695.5314   -3747849.82049  -2909985.14148                  20915691.1024
        49.5004         40.0004
  22122632.0144    -871106.51649   -678789.78147                  22122629.5094
        46.7504         36.0004
 04  7 12 21 45 15.0000000  0  6G 1G11G16G20G23G25
  21301539.7364   -3942695.96949  -3058639.05547                  21301538.5334
        52.0004         39.0004
  22955103.3424    -779681.48849   -608184.52347                  22955102.3324
        45.2504         29.7504
  22811774.8154   -5287911.01249  -4110805.62546                  22811773.6594
        38.7504         25.0004
  20726905.6244   -4485172.37949  -3454343.54348                  20726903.8304
        48.5004         41.2504
  20903850.9444   -3810093.94549  -2958487.05148                  20903846.2424
        51.2504         40.5004
  22120139.0724    -884207.62949   -688998.45747                  22120136.9534
        47.0004         35.7504
 04  7 12 21 45 30.0000000  0  6G 1G11G16G20G23G25
  21289215.7574   -4007459.80949  -3109104.36747                  21289214.4314
        51.2504         39.0004
  22952944.8534    -791027.34049   -617025.47747                  22952943.5554
        44.5004         30.5004
  22795196.2684   -5375032.59849  -4178692.56247                  22795194.1654
        41.0004         26.5004
  20713172.3944   -4557344.40649  -3510581.47348                  20713170.2674
        48.7504         41.7504
  20892015.3484   -3872289.90249  -3006951.42648                  20892010.9884
        51.5004         39.5004
  22117656.0274    -897254.98449   -699165.22747                  22117653.6524
        46.0004         35.0004
 04  7 12 21 45 45.0000000  0  6G 1G11G16G20G23G25
  21276898.6654   -4072186.95349  -3159541.10247                  21276897.4094
        51.5004         39.0004
  22950795.1164    -802321.89149   -625826.46547                  22950793.8474
        45.5004         29.7504
  22778631.8364   -5462083.08649  -4246524.09847                  22778629.4264
        40.7504         26.7504
  20699457.2974   -4629416.96949  -3566741.91848                  20699454.9844
        49.7504         41.2504
  20880189.1674   -3934436.85549  -3055377.62148                  20880184.8834
        50.7504         39.5004
  22115183.6004    -910248.10549   -709289.75447                  22115181.6524
        47.2504         35.5004
 04  7 12 21 46  0.0000000  0  6G 1G11G16G20G23G25
  21264588.4274   -4136877.99249  -3209949.70347                  21264587.1664
        51.5004         39.0004
  22948655.2494    -813566.12949   -634588.21547                  22948653.5864
        44.0004         29.0004
  22762079.2934   -5549062.85249  -4314300.52347                  22762077.7264
        41.7504         26.5004
  20685760.9224   -4701390.36349  -3622825.08248                  20685758.8204
        49.5004         41.5004
  20868372.0914   -3996535.54349  -3103766.20748                  20868367.8884
        51.2504         39.7504
  22112721.4564    -923187.77049   -719372.62147                  22112718.6894
        48.7504         35.7504
 04  7 12 21 46 15.0000000  0  6G 1G11G16G20G23G25
  21252284.8224   -4201533.27349  -3260330.43748                  21252283.7344
        51.2504         39.5004
  22946525.4204    -824760.73449   -643311.32447                  22946524.1784
        45.0004         29.5004
  22745541.1634   -5635971.87149  -4382021.81247                  22745540.0004
        41.2504         27.2504
  20672083.8284   -4773264.82449  -3678831.15648                  20672081.6624
        49.5004         41.2504
  20856563.9604   -4058586.24249  -3152117.40248                  20856560.1094
        50.5004         40.0004
  22110268.6654    -936074.67249   -729414.37147                  22110266.6714
        47.7504         35.5004
 04  7 12 21 46 30.0000000  0  6G 1G11G16G20G23G25
  21239988.5204   -4266151.93049  -3310682.62947                  21239987.1674
        51.5004         38.7504
  22944404.1564    -835905.21149   -651995.36347                  22944403.6694
        44.2504         29.5004
  22729017.1224   -5722808.79349  -4449686.93047                  22729015.3684
        41.0004         26.5004
  20658425.6114   -4845039.12549  -3734759.17648                  20658423.4264
        49.5004         41.2504
  20844765.8604   -4120588.07449  -3200430.50848                  20844761.2924
        51.0004         39.7504
  22107827.0214    -948908.22349   -739414.55947                  22107824.3214
        48.7504         35.5004
 04  7 12 21 46 45.0000000  0  6G 1G11G16G20G23G25
  21227698.3214   -4330734.34049  -3361006.59447                  21227697.6744
        50.7504         39.0004
  22942293.0174    -847000.31249   -660640.92647                  22942292.4574
        43.7504         29.0004
  22712505.4494   -5809573.61749  -4517295.86347                  22712504.7194
        41.7504         26.0004
  20644786.4054   -4916713.38749  -3790609.25048                  20644784.1394
        49.5004         41.0004
  20832976.2254   -4182541.29749  -3248705.74648                  20832972.0134
        49.5004         39.7504
  22105395.0554    -961689.03949   -749373.63747                  22105392.7504
        49.0004         34.7504
 04  7 12 21 47  0.0000000  0  6G 1G11G16G20G23G25
  21215416.0034   -4395281.28149  -3411302.89548                  21215414.7334
        51.7504         39.5004
  22940191.5244    -858046.84449   -669248.65247                  22940190.0724
        44.0004         28.7504
  22696008.2614   -5896266.56649  -4584848.78546                  22696007.8704
        40.7504         25.5004
  20631166.2804   -4988288.01649  -3846381.68048                  20631163.9754
        49.5004         41.0004
  20821195.9444   -4244446.55149  -3296943.60248                  20821191.7464
        51.0004         39.7504
  22102972.6574    -974418.00049   -759292.32847                  22102970.3474
        49.0004         36.0004
 04  7 12 21 47 15.0000000  0  6G 1G11G16G20G23G25
  21203139.8394   -4459791.09449  -3461570.27748                  21203138.6584
        51.2504         40.0004
  22938098.3604    -869043.79349   -677817.72747                  22938097.3324
        44.5004         29.2504
  22679525.7594   -5982885.77349  -4652344.24247                  22679524.4894
        41.0004         25.7504
  20617565.5534   -5059761.14849  -3902075.03148                  20617562.6954
        49.7504         41.0004
  20809425.4214   -4306302.27749  -3345142.86748                  20809421.3354
        51.0004         39.5004
  22100560.6044    -987093.74649   -769169.53147                  22100558.0614
        49.2504         36.2504
 04  7 12 21 47 30.0000000  0  6G 1G11G16G20G23G25
  21190870.7804   -4524264.40249  -3511809.21548                  21190869.4974
        51.0004         39.7504
  22936015.6554    -879991.98849   -686348.82047                  22936013.9394
        44.2504         29.7504
  22663056.5064   -6069431.43449  -4719782.41847                  22663054.8924
        40.7504         25.7504
  20603983.5354   -5131133.16849  -3957689.59048                  20603981.3094
        48.7504         40.5004
  20797663.8284   -4368109.19949  -3393304.10248                  20797659.4074
        51.0004         39.5004
  22098158.5074    -999717.19149   -779005.99247                  22098156.1904
        49.7504         36.0004
 04  7 12 21 47 45.0000000  0  6G 1G11G16G20G23G25
  21178609.5624   -4588700.84049  -3562019.41848                  21178608.2294
        51.2504         39.5004
  22933941.0174    -890891.34049   -694841.84847                  22933940.0214
        44.7504         30.2504
  22646602.0524   -6155902.77349  -4787162.63747                  22646598.9024
        41.5004         25.7504
  20590421.6444   -5202403.48049  -4013224.89848                  20590419.1664
        50.5004         41.0004
  20785911.8354   -4429866.86749  -3441426.94548                  20785907.4164
        50.2504         39.7504
  22095766.2404   -1012288.11349   -788801.53947                  22095764.1824
        49.7504         36.5004
 04  7 12 21 48  0.0000000  0  7G 1G11G16G20G23G25G13
  21166354.2124   -4653101.34449  -3612201.62948                  21166353.1494
        52.0004         39.5004
  22931875.9954    -901743.10949   -703297.81247                  22931875.3264
        44.5004         30.7504
  22630161.3344   -6242300.36749  -4854485.45746                  22630158.2604
        41.5004         23.7504
  20576878.3344   -5273572.59049  -4068681.34048                  20576876.0934
        49.5004         41.5004
  20774168.6194   -4491576.14149  -3489512.10248                  20774164.7564
        51.0004         40.0004
  22093384.2614   -1024807.76249   -798557.12947                  22093381.5814
        49.5004         35.5004
  24634758.0504     -35012.73459
        38.7504
 04  7 12 21 48 15.0000000  0  7G 1G11G16G20G23G25G13
  21154105.9104   -4717464.66049  -3662354.84448                  21154105.1274
        51.0004         39.5004
  22929819.9804    -912546.57449   -711716.11747                  22929819.1024
        43.5004         27.2504
  22613734.5624   -6328622.57849  -4921749.50446                  22613731.1424
        40.0004         25.0004
  20563354.9144   -5344639.01249  -4124057.77048                  20563352.8034
        50.0004         41.2504
  20762435.3214   -4553235.74649  -3537558.54348                  20762430.9454
        51.0004         39.5004
  22091011.6894   -1037275.08649   -808271.93747                  22091009.1434
        49.0004         35.7504
  24618101.2884    -122542.98449    -90683.17656                  24618101.7124
        39.2504         18.5004
 04  7 12 21 48 30.0000000  0  7G 1G11G16G20G23G25G13
  21141864.7054   -4781793.56249  -3712481.26648                  21141863.8564
        51.0004         40.0004
  22927772.8724    -923304.63749   -720099.05547                  22927771.5924
        42.5004         28.7504
  22597322.0774   -6414871.78149  -4988956.66846                  22597319.0634
        42.2504         24.0004
  20549850.4924   -5415605.30949  -4179356.18048                  20549848.3454
        49.7504         41.5004
  20750711.2914   -4614848.43049  -3585568.41447                  20750706.8034
        51.0004         39.0004
  22088648.3564   -1049693.23849   -817948.43447                  22088645.9874
        49.2504         36.0004
  24601446.3594    -210066.94549   -158883.63346                  24601446.7404
        38.5004         18.2504
 04  7 12 21 48 45.0000000  0  7G 1G11G16G20G23G25G13
  21129630.4134   -4846086.52749  -3762579.68048                  21129629.4194
        51.0004         39.5004
  22925734.9964    -934016.18749   -728445.75047                  22925733.2034
        44.0004         29.7504
  22580923.2734   -6501046.03149  -5056105.41046                  22580921.2204
        41.0004         25.0004
  20536365.5144   -5486469.71949  -4234575.19948                  20536363.1514
        50.0004         41.7504
  20738995.6774   -4676412.66449  -3633540.55148                  20738991.4134
        50.2504         39.5004
  22086294.6844   -1062060.97349   -827585.63347                  22086292.8364
        49.0004         36.0004
  24584792.3074    -297583.10249   -227077.96946                  24584792.5094
        38.2504         18.2504
 04  7 12 21 49  0.0000000  0  7G 1G11G16G20G23G25G13
  21117401.8474   -4910346.17649  -3812652.12148                  21117401.1834
        50.7504         39.7504
  22923704.7074    -944684.11749   -736758.43047                  22923703.9474
        43.0004         28.5004
  22564538.2454   -6587147.56649  -5123197.50046                  22564536.7054
        41.2504         25.5004
  20522899.2214   -5557234.45349  -4289716.55948                  20522897.0444
        49.2504         41.0004
  20727289.0914   -4737931.14549  -3681477.02748                  20727284.6364
        51.0004         40.0004
  22083950.4114   -1074381.01649   -837185.68747                  22083948.7444
        49.0004         36.5004
  24568139.6604    -385094.00049   -295268.22746                  24568138.9524
        38.0004         18.5004
 04  7 12 21 49 15.0000000  0  7G 1G11G16G20G23G25G13
  21105180.0214   -4974572.50049  -3862698.60547                  21105179.3234
        51.0004         39.2504
  22921683.1214    -955308.73049   -745037.39547                  22921681.9384
        44.2504         29.5004
  22548168.1064   -6673175.97349  -5190232.60946                  22548165.8714
        42.2504         25.5004
  20509452.1814   -5627899.15249  -4344779.94948                  20509449.9154
        50.2504         41.5004
  20715591.3954   -4799403.57449  -3729377.62148                  20715587.0214
        51.2504         40.0004
  22081615.0504   -1086653.68049   -846748.81647                  22081613.1174
        49.7504         36.2504
  24551487.7444    -472599.55549   -363454.34846                  24551487.5974
        38.7504         17.5004
 04  7 12 21 49 30.0000000  0  7G 1G11G16G20G23G25G13
  21092964.5794   -5038765.13749  -3912718.84047                  21092963.8744
        51.2504         39.0004
  22919668.6574    -965890.17249   -753282.69947                  22919668.2974
        44.0004         27.5004
  22531811.7474   -6759130.59849  -5257210.21546                  22531809.0984
        41.5004         24.5004
  20496024.5274   -5698463.36349  -4399765.04748                  20496022.2744
        50.2504         41.2504
  20703902.3354   -4860829.65249  -3777242.09048                  20703898.0274
        51.2504         40.5004
  22079288.9494   -1098878.81649   -856274.91047                  22079286.6004
        50.0004         36.0004
  24534837.1714    -560099.58249   -431636.12546                  24534837.5254
        39.0004         19.5004
 04  7 12 21 49 45.0000000  0  7G 1G11G16G20G23G25G13
  21080755.7314   -5102923.94149  -3962712.71547                  21080754.5214
        51.5004         38.5004
  22917663.6314    -976428.57049   -761494.49247                  22917662.6994
        43.5004         29.0004
  22515469.4424   -6845010.69549  -5324129.76246                  22515467.2134
        42.0004         24.5004
  20482615.5004   -5768926.59449  -4454671.46548                  20482613.3524
        50.2504         41.7504
  20692222.1444   -4922209.34049  -3825070.42248                  20692217.8904
        51.5004         40.5004
  22076971.5694   -1111056.46949   -865764.00447                  22076969.5754
        49.2504         36.0004
  24518186.8194    -647593.84849   -499813.46146                  24518187.5434
        38.2504         19.5004
 04  7 12 21 50  0.0000000  0  7G 1G11G16G20G23G25G13
  21068552.8514   -5167049.54749  -4012680.72347                  21068551.9764
        52.0004         39.0004
  22915666.6044    -986924.82849   -769673.41047                  22915665.2784
        44.2504         29.0004
  22499140.6634   -6930816.68749  -5390991.55947                  22499138.2954
        38.5004         25.7504
  20469225.8894   -5839289.25449  -4509499.50848                  20469223.9664
        49.2504         41.7504
  20680550.7004   -4983543.25449  -3872863.07848                  20680546.3634
        51.2504         40.5004
  22074662.8464   -1123187.62149   -875216.85547                  22074660.9254
        48.7504         36.0004
  24501538.0774    -735083.07849   -567986.82046                  24501538.9644
        37.0004         18.5004
 04  7 12 21 50 15.0000000  0  7G 1G11G16G20G23G25G13
  21056356.8544   -5231140.89549  -4062622.02747                  21056356.0314
        51.5004         39.2504
  22913677.2334    -997378.29749   -777819.00447                  22913676.1084
        42.5004         27.5004
  22482826.1824   -7016547.12149  -5457794.49246                  22482823.4454
        40.5004         23.2504
  20455855.9404   -5909550.03949  -4564248.17248                  20455853.8434
        49.7504         41.7504
  20668888.3714   -5044830.27049  -3920619.19148                  20668883.9184
        51.5004         39.7504
  22072363.4714   -1135271.42249   -884632.82847                  22072361.5794
        48.7504         35.0004
  24484890.2534    -822565.98449   -636155.30546                  24484891.4814
        36.0004         19.5004
 04  7 12 21 50 30.0000000  0  7G 1G11G16G20G23G25G13
  21044167.2854   -5295197.36349  -4112536.14847                  21044166.1504
        51.5004         39.2504
  22911696.3704   -1007788.69949   -785931.03547                  22911695.5504
        43.7504         27.5004
  22466527.1584   -7102200.98449  -5524537.74246                  22466524.0744
        41.2504         25.2504
  20442504.9214   -5979708.11749  -4618916.80548                  20442502.6424
        50.0004         41.7504
  20657234.8274   -5106069.70749  -3968338.23048                  20657230.4364
        52.0004         40.2504
  22070072.9044   -1147307.60249   -894011.68047                  22070071.1794
        49.0004         36.0004
  24468244.9154    -910042.05549   -704318.41046                  24468244.9164
        37.5004         17.7504
 04  7 12 21 50 45.0000000  0  7G 1G11G16G20G23G25G13
  21031984.3844   -5359218.66849  -4162422.88747                  21031983.4034
        51.0004         39.0004
  22909723.6614   -1018156.15249   -794009.60247                  22909722.3274
        43.2504         27.2504
  22450242.3994   -7187777.53949  -5591220.74246                  22450240.3304
        41.7504         24.5004
  20429174.3834   -6049762.89849  -4673504.93748                  20429172.2624
        49.5004         41.2504
  20645590.4164   -5167261.28549  -4016019.97348                  20645586.0704
        51.0004         39.7504
  22067791.7154   -1159295.96149   -903353.26247                  22067789.7074
        48.2504         35.7504
  24451599.3374    -997511.16449   -772476.07846                  24451600.4004
        37.0004         19.2504
 04  7 12 21 51  0.0000000  0  7G 1G11G16G20G23G25G13
  21019808.3544   -5423204.69549  -4212282.12147                  21019807.1504
        50.7504         39.0004
  22907758.8554   -1028480.73849   -802054.75447                  22907757.3824
        44.0004         27.5004
  22433972.5434   -7273276.43449  -5657843.24246                  22433970.5334
        42.0004         24.7504
  20415862.8894   -6119713.96149  -4728012.26248                  20415860.4374
        50.5004         41.7504
  20633955.3794   -5228404.94149  -4063664.37948                  20633950.7594
        51.7504         40.2504
  22065519.0144   -1171236.74649   -912657.77747                  22065517.6354
        48.5004         35.2504
  24434956.1264   -1084973.03949   -840628.16446                  24434956.9914
        37.5004         18.5004
 04  7 12 21 51 15.0000000  0  7G 1G11G16G20G23G25G13
  21007638.6604   -5487154.48849  -4262113.12548                  21007638.1864
        51.7504         39.5004
  22905802.4544   -1038762.03949   -810066.19547                  22905801.3104
        44.2504         28.0004
  22417717.6344   -7358696.31249  -5724404.18446                  22417715.9214
        40.5004         25.5004
  20402571.4684   -6189560.07449  -4782437.80548                  20402569.4004
        50.0004         41.0004
  20622329.4224   -5289499.57449  -4111270.58648                  20622324.9534
        51.5004         40.0004
  22063256.4874   -1183129.23849   -921924.68047                  22063255.0024
        48.7504         35.2504
  24418313.3384   -1172426.79358   -908773.91456                  24418315.2004
        33.7504         17.5004
 04  7 12 21 51 30.0000000  0  7G 1G11G16G20G23G25G13
  20995476.5824   -5551068.19949  -4311916.01247                  20995475.5344
        51.2504         39.2504
  22903853.8034   -1049000.24249   -818044.04347                  22903852.8434
        45.0004         27.5004
  22401477.6374   -7444036.86749  -5790903.29346                  22401476.0344
        41.0004         24.7504
  20389300.4054   -6259301.12149  -4836781.47748                  20389298.0454
        50.0004         41.0004
  20610712.7994   -5350545.36349  -4158838.73448                  20610708.2634
        51.5004         40.5004
  22061001.7634   -1194973.84849   -931154.24647                  22061000.5884
        48.5004         35.0004
  24401673.7314   -1259872.48048   -976913.31246                  24401675.0494
        35.7504         18.2504
 04  7 12 21 51 45.0000000  0  7G 1G11G16G20G23G25G13
  21283114.0734   -5614942.37149  -4361688.09847                  21283113.4754
        51.2504         39.0004
  23201706.4104   -1059195.85249   -825988.71147                  23201705.3924
        44.0004         28.0004
  22685046.5774   -7529292.68449  -5857336.35947                  22685044.4954
        42.5004         26.0004
  20675842.5244   -6328932.95349  -4891040.03948                  20675840.1454
        50.0004         41.2504
  20898898.5254   -5411538.86349  -4206366.13748                  20898893.8174
        51.5004         40.0004
  22358549.9784   -1206770.75049   -940346.65647                  22358548.2734
        48.2504         35.2504
  24684828.4104   -1347305.09049  -1045042.53946                  24684829.4154
        37.0004         19.0004
 04  7 12 21 52  0.0000000  0  7G 1G11G16G20G23G25G13
  21270965.2524   -5678785.12549  -4411435.68747                  21270964.1924
        51.5004         39.0004
  23199774.1414   -1069350.25449   -833901.27047                  23199773.6894
        42.5004         27.7504
  22668837.0234   -7614474.51649  -5923711.81246                  22668834.8344
        42.0004         25.5004
  20662610.7594   -6398464.30149  -4945220.31248                  20662608.4154
        50.0004         41.5004
  20887300.0804   -5472487.97349  -4253858.94548                  20887295.8084
        51.2504         41.0004
  22356313.4034   -1218521.43049   -949503.03547                  22356312.4174
        47.7504         35.0004
  24668191.5444   -1434735.84849  -1113170.34446                  24668191.2984
        38.7504         19.2504
 04  7 12 21 52 15.0000000  0  7G 1G11G16G20G23G25G13
  21258823.2764   -5742591.25049  -4461154.74247                  21258822.5084
        51.5004         39.2504
  23197849.9064   -1079462.16449   -841780.71147                  23197849.4324
        43.5004         27.2504
  22652643.7104   -7699575.22749  -5990024.03546                  22652640.2484
        43.5004         24.2504
  20649400.0474   -6467889.23049  -4999317.65648                  20649397.7444
        50.5004         41.5004
  20875711.5294   -5533387.47749  -4301313.10548                  20875706.9324
        51.7504         40.5004
  22354086.7054   -1230224.21149   -958622.09847                  22354085.7224
        48.0004         34.7504
  24651555.5884   -1522157.93049  -1181291.38746                  24651555.7704
        39.5004         21.5004
 04  7 12 21 52 30.0000000  0  7G 1G11G16G20G23G25G13
  21246688.5774   -5806360.73449  -4510845.24247                  21246687.2744
        51.0004         39.2504
  23195933.6184   -1089531.98049   -849627.34047                  23195932.9214
        45.0004         28.0004
  22636464.4574   -7784594.49249  -6056272.81246                  22636461.8294
        41.7504         25.0004
  20636209.3504   -6537207.35249  -5053331.77348                  20636206.8424
        50.5004         41.2504
  20864131.9774   -5594237.42649  -4348728.64548                  20864127.4694
        51.0004         40.5004
  22351868.7814   -1241879.42649   -967704.09047                  22351867.1134
        48.5004         34.7504
  24634921.1954   -1609571.36349  -1249405.66046                  24634921.3474
        40.2504         21.7504
 04  7 12 21 52 45.0000000  0  7G 1G11G16G20G23G25G13
  21234560.3804   -5870094.41049  -4560507.85248                  21234559.3314
        51.2504         39.5004
  23194025.3614   -1099560.75049   -857442.00447                  23194024.3424
        44.0004         28.0004
  22620301.4444   -7869532.85949  -6122458.52746                  22620298.7744
        43.2504         25.5004
  20623038.6314   -6606419.44549  -5107263.28548                  20623036.1574
        50.7504         41.0004
  20852561.6664   -5655038.65249  -4396106.22748                  20852557.6064
        50.7504         39.7504
  22349659.9414   -1253488.21949   -976749.91847                  22349658.3204
        48.2504         34.7504
  24618288.5184   -1696976.99249  -1317513.89546                  24618288.7044
        41.5004         23.0004
 04  7 12 21 53  0.0000000  0  7G 1G11G16G20G23G25G13
  21222439.2144   -5933792.27049  -4610142.53547                  21222438.1484
        51.0004         39.0004
  23192124.7754   -1109548.85549   -865224.95747                  23192124.4514
        45.2504         27.5004
  22604153.8424   -7954389.87549  -6188580.85547                  22604151.4314
        42.0004         26.0004
  20609888.3384   -6675525.27049  -5161111.97348                  20609885.8714
        50.2504         41.0004
  20841001.2294   -5715791.22349  -4443445.89148                  20840996.9434
        51.0004         39.5004
  22347459.5584   -1265050.91849   -985759.82447                  22347457.8904
        48.5004         34.7504
  24601658.0354   -1784374.79749  -1385616.04746                  24601657.7094
        43.0004         22.7504
 04  7 12 21 53 15.0000000  0  7G 1G11G16G20G23G25G13
  21210325.2214   -5997452.16449  -4659747.64848                  21210323.9144
        52.0004         39.7504
  23190232.7704   -1119494.50849   -872974.83247                  23190232.3204
        45.2504         29.7504
  22588022.5094   -8039163.02749  -6254637.84047                  22588019.7264
        42.0004         25.7504
  20596758.3624   -6744522.32049  -5214875.90648                  20596756.1624
        50.7504         41.2504
  20829449.9114   -5776492.90649  -4490745.90247                  20829445.5954
        50.7504         39.0004
  22345268.7304   -1276565.55149   -994732.28147                  22345266.6894
        48.2504         34.5004
  24585028.1864   -1871762.69149  -1453710.46946                  24585027.5424
        42.2504         22.0004
 04  7 12 21 53 30.0000000  0  7G 1G11G16G20G23G25G13
  21198217.6554   -6061076.29349  -4709324.89548                  21198216.6514
        51.0004         39.7504
  23188347.0374   -1129400.39549   -880693.74647                  23188347.2934
        45.0004         30.0004
  22571905.1814   -8123854.10549  -6320630.86347                  22571903.8154
        42.5004         26.2504
  20583649.0744   -6813412.54349  -5268556.59448                  20583646.5544
        50.0004         41.2504
  20817907.9484   -5837145.85949  -4538007.95348                  20817903.9734
        50.7504         40.0004
  22343085.6734   -1288034.68749  -1003669.27747                  22343084.0824
        49.0004         33.5004
  24568400.5004   -1959142.90649  -1521798.91046                  24568399.8744
        43.0004         21.7504
 04  7 12 21 53 45.0000000  0  7G 1G11G16G20G23G25G13
  21186117.6634   -6124663.28149  -4758873.18748                  21186116.7084
        51.5004         39.5004
  23186469.8274   -1139265.26649   -888380.67647                  23186469.3614
        44.7504         29.5004
  22555805.6564   -8208461.33249  -6386558.56646                  22555803.3854
        40.7504         25.0004
  20570560.3884   -6882194.33649  -5322152.80548                  20570558.0294
        49.5004         41.2504
  20806375.8404   -5897748.65649  -4585230.90648                  20806371.3234
        51.0004         39.7504
  22340912.0954   -1299457.02349  -1012569.80947                  22340910.4754
        48.7504         35.0004
  24551773.6234   -2046513.98849  -1589880.25046                  24551773.3324
        40.7504         20.5004
 04  7 12 21 54  0.0000000  0  7G 1G11G16G20G23G25G13
  21174024.5324   -6188212.75049  -4808392.23847                  21174023.3214
        51.0004         39.2504
  23184600.9064   -1149089.04349   -896035.61747                  23184600.2524
        45.0004         29.7504
  22539721.0084   -8292984.01249  -6452420.38747                  22539718.7274
        41.5004         25.7504
  20557492.3754   -6950867.03949  -5375664.00448                  20557490.0624
        50.2504         41.5004
  20794852.9804   -5958300.75449  -4632414.35248                  20794848.2154
        50.7504         39.7504
  22338748.0254   -1310832.55549  -1021433.87947                  22338745.9084
        48.7504         35.0004
  24535148.6064   -2133875.37149  -1657954.04746                  24535148.3494
        39.5004         18.5004
 04  7 12 21 54 15.0000000  0  7G 1G11G16G20G23G25G13
  21161938.5744   -6251724.18449  -4857881.67247                  21161937.5344
        51.5004         39.2504
  23182739.0884   -1158871.78949   -903658.55147                  23182738.5194
        45.7504         28.2504
  22523652.8864   -8377421.30549  -6518215.66047                  22523650.1274
        41.2504         26.0004
  20544445.0164   -7019429.92249  -5429089.61748                  20544442.6764
        50.0004         41.5004
  20783340.1394   -6018801.83649  -4679558.05148                  20783335.5184
        51.2504         39.7504
  22336592.0054   -1322161.06249  -1030261.29347                  22336590.3894
        49.5004         34.7504
  24518526.4724   -2221226.77049  -1726020.07846                  24518525.4804
        38.5004         17.7504
 04  7 12 21 54 30.0000000  0  7G 1G11G16G20G23G25G13
  21149860.1354   -6315198.15249  -4907341.90647                  21149858.8074
        51.5004         39.2504
  23180885.6724   -1168614.29349   -911250.15247                  23180884.9844
        46.2504         29.7504
  22507601.1734   -8461773.32449  -6583944.48447                  22507599.4384
        41.5004         26.0004
  20531418.8014   -7087883.25849  -5482429.87948                  20531416.4434
        50.5004         41.0004
  20771836.7844   -6079252.40249  -4726662.38748                  20771831.9294
        51.2504         40.2504
  22334445.2314   -1333443.22749  -1039052.60247                  22334443.2374
        48.7504         35.0004
  24501905.9744   -2308568.71149  -1794078.60946                  24501904.5944
        38.7504         17.5004
 04  7 12 21 54 45.0000000  0  7G 1G11G16G20G23G25G13
  21137788.3724   -6378633.95349  -4956772.39547                  21137787.5304
        51.2504         39.0004
  23179039.2944   -1178316.14849   -918810.07047                  23179038.6614
        46.0004         30.5004
  22491566.1894   -8546039.03549  -6649606.07047                  22491564.1014
        41.0004         26.2504
  20518413.5814   -7156226.04749  -5535684.01248                  20518411.4274
        50.5004         41.5004
  20760343.2204   -6139651.69549  -4773726.76248                  20760338.7154
        51.0004         39.5004
  22332306.9854   -1344678.54749  -1047807.39847                  22332305.0724
        49.0004         35.0004
  24485286.8774   -2395900.39849  -1862129.22746                  24485286.7864
        40.0004         18.2504
 04  7 12 21 55  0.0000000  0  7G 1G11G16G20G23G25G13
  21125724.1234   -6442032.43449  -5006173.79747                  21125722.8344
        51.5004         39.0004
  23177200.6694   -1187978.61349   -926339.29347                  23177200.1784
        45.2504         30.7504
  22475547.4324   -8630218.84449  -6715200.70746                  22475545.2454
        41.0004         25.0004
  20505429.4404   -7224458.93449  -5588852.50048                  20505427.4624
        50.7504         41.0004
  20748858.8814   -6200000.60549  -4820751.89147                  20748854.6334
        50.7504         39.0004
  22330178.0404   -1355868.26249  -1056526.68047                  22330175.8714
        49.0004         34.0004
  24468670.0314   -2483222.75049  -1930172.59446                  24468670.0764
        39.5004         18.5004
 04  7 12 21 55 15.0000000  0  7G 1G11G16G20G23G25G13
  21113667.1964   -6505391.85249  -5055544.77748                  21113666.0974
        51.5004         39.7504
  23175369.8284   -1197600.28549   -933836.72347                  23175369.1314
        46.0004         30.2504
  22459545.1194   -8714310.71949  -6780726.84047                  22459543.1504
        42.0004         27.0004
  20492466.5114   -7292579.94149  -5641933.80148                  20492464.0204
        50.7504         42.2504
  20737384.9324   -6260297.43749  -4867736.43748                  20737380.5584
        50.7504         39.7504
  22328057.1544   -1367010.78549  -1065209.17647                  22328055.5994
        49.2504         34.7504
  24452055.6954   -2570534.07449  -1998207.35246                  24452055.9394
        40.0004         20.5004
 04  7 12 21 55 30.0000000  0  7G 1G11G16G20G23G25G13
  21101617.1764   -6568715.25449  -5104887.68047                  21101616.0814
        51.5004         39.2504
  23173545.8224   -1207184.60549   -941305.05547                  23173545.0414
        45.2504         30.0004
  22443559.5284   -8798317.40649  -6846186.57847                  22443557.7914
        40.7504         26.2504
  20479524.4134   -7360591.89849  -5694930.13348                  20479521.8684
        50.2504         41.5004
  20725919.9634   -6320545.12949  -4914682.68747                  20725915.6554
        51.0004         39.2504
  22325945.4584   -1378109.40649  -1073857.46547                  22325943.6294
        49.2504         34.5004
  24435442.0694   -2657837.44549  -2066235.88346                  24435442.5284
        40.2504         20.0004
 04  7 12 21 55 45.0000000  0  7G 1G11G16G20G23G25G13
  21089573.8994   -6632002.09049  -5154202.09047                  21089572.9724
        51.2504         38.7504
  23171728.7634   -1216731.33649   -948744.08647                  23171728.5944
        46.5004         30.0004
  22427589.5684   -8882237.87549  -6911579.12947                  22427588.3084
        42.2504         25.7504
  20466602.7204   -7428493.98449  -5747840.85248                  20466600.7564
        50.2504         40.7504
  20714465.1114   -6380743.07049  -4961590.16448                  20714460.1484
        50.0004         40.0004
  22323841.8924   -1389163.78949  -1082471.28947                  22323839.6784
        49.0004         34.2504
  24418829.9464   -2745132.32049  -2134257.83246                  24418830.7434
        40.0004         20.5004
 04  7 12 21 56  0.0000000  0  7G 1G11G16G20G23G25G13
  21077538.2474   -6695250.69549  -5203486.71547                  21077537.3844
        51.5004         39.0004
  23169919.7114   -1226239.05949   -956152.73047                  23169919.0764
        46.7504         29.2504
  22411637.2894   -8966070.05549  -6976902.89547                  22411635.1474
        42.5004         25.7504
  20453703.0404   -7496284.33649  -5800664.49648                  20453700.4614
        50.5004         41.2504
  20703019.3524   -6440889.52749  -5008457.52747                  20703015.2874
        51.2504         39.2504
  22321747.4344   -1400172.51249  -1091049.53547                  22321745.1534
        49.5004         34.7504
  24402220.4534   -2832416.86749  -2202271.67246                  24402221.0104
        39.5004         20.5004
 04  7 12 21 56 15.0000000  0  7G 1G11G16G20G23G25G13
  21065509.3494   -6758461.57449  -5252741.95347                  21065508.7644
        51.7504         39.0004
  23168118.1654   -1235708.60249   -963531.64547                  23168117.6724
        45.2504         31.7504
  22395701.3294   -9049814.13349  -7042157.99247                  22395698.7734
        42.7504         26.0004
  20440824.0364   -7563963.11349  -5853401.20348                  20440821.3704
        50.2504         42.0004
  20691583.7684   -6500984.99649  -5055285.17248                  20691579.1764
        50.5004         40.0004
  22319660.6824   -1411136.42649  -1099592.84847                  22319658.4104
        48.5004         34.5004
  24385611.9224   -2919691.66049  -2270277.96546                  24385612.4204
        38.5004         20.0004
 04  7 12 21 56 30.0000000  0  7G 1G11G16G20G23G25G13
  21053488.2674   -6821634.75849  -5301967.80147                  21053487.4994
        50.7504         39.0004
  23166323.3014   -1245140.43449   -970881.14847                  23166322.6884
        45.0004         31.0004
  22379782.0074   -9133469.73849  -7107344.17247                  22379779.7424
        42.7504         26.2504
  20427966.3304   -7631530.10249  -5906050.80948                  20427964.0954
        51.0004         41.7504
  20680157.4574   -6561029.52049  -5102073.10547                  20680152.8634
        51.0004         39.2504
  22317583.0194   -1422055.77749  -1108101.44947                  22317580.9874
        49.2504         34.7504
  24369005.9294   -3006956.66849  -2338276.58646                  24369006.6954
        39.7504         20.5004
 04  7 12 21 56 45.0000000  0  7G 1G11G16G20G23G25G13
  21041474.0034   -6884769.57049  -5351163.75847                  21041472.8854
        51.0004         39.0004
  23164535.4844   -1254534.23049   -978201.02047                  23164535.0794
        45.7504         31.5004
  22363879.4734   -9217035.89149  -7172460.64547                  22363878.0354
        42.7504         27.2504
  20415130.4404   -7698984.37149  -5958612.57848                  20415127.7694
        50.5004         41.2504
  20668741.0634   -6621022.40649  -5148820.81248                  20668736.5874
        51.0004         39.5004
  22315513.9854   -1432930.16449  -1116575.02047                  22315511.2424
        49.0004         35.0004
  24352402.1984   -3094211.19149  -2406267.09046                  24352402.8804
        40.0004         20.0004
 04  7 12 21 57  0.0000000  0  7G 1G11G16G20G23G25G13
  21029467.2554   -6947865.88749  -5400329.71148                  21029466.1954
        51.0004         39.5004
  23162755.2804   -1263890.17249   -985491.40647                  23162754.9254
        46.7504         29.7504
  22347995.0884   -9300512.01649  -7237506.96947                  22347992.8174
        43.5004         27.0004
  20402315.5644   -7766325.62949  -6011086.27348                  20402313.4904
        49.5004         41.0004
  20657335.0144   -6680963.46949  -5195528.12948                  20657330.5354
        51.0004         40.5004
  22313452.6334   -1443759.79749  -1125013.70347                  22313450.7064
        49.5004         34.5004
  24335800.0414   -3181455.19949  -2474249.41846                  24335800.2424
        40.7504         20.0004
 04  7 12 21 57 15.0000000  0  7G 1G11G16G20G23G25G13
  21017467.2704   -7010926.23449  -5449467.64548                  21017466.2884
        51.5004         39.5004
  23160981.6954   -1273211.12949   -992754.50447                  23160981.0304
        46.5004         30.0004
  22332126.7034   -9383900.30549  -7302484.84447                  22332124.5344
        44.2504         26.5004
  20389521.9284   -7833556.09849  -6063473.66448                  20389519.6284
        50.0004         41.2504
  20645937.5764   -6740855.19949  -5242197.00848                  20645933.2974
        50.5004         40.5004
  22311400.2494   -1454547.32049  -1133419.58247                  22311398.1314
        49.0004         34.5004
  24319200.3114   -3268691.26649  -2542225.53946                  24319200.0964
        42.5004         20.0004
 04  7 12 21 57 30.0000000  0  7G 1G11G16G20G23G25G13
  21005474.4024   -7073948.93049  -5498576.24248                  21005473.6864
        51.5004         40.0004
  23159215.0504   -1282495.73849   -999989.30147                  23159214.1954
        46.0004         29.2504
  22316275.3434   -9467198.80949  -7367392.75047                  22316273.4134
        43.5004         25.7504
  20376750.0114   -7900673.90249  -6115773.24648                  20376747.4624
        50.2504         41.5004
  20634550.2554   -6800695.87149  -5288826.11748                  20634546.0154
        51.0004         41.0004
  22309355.2804   -1465291.29749  -1141791.52347                  22309353.1264
        48.7504         34.5004
  24302601.8584   -3355917.67649  -2610194.14846                  24302600.8444
        41.2504         21.0004
 04  7 12 21 57 45.0000000  0  7G 1G11G16G20G23G25G13
  20993488.8624   -7136933.47349  -5547655.09048                  20993488.0434
        51.2504         40.0004
  23157454.7024   -1291743.81249  -1007195.62147                  23157454.1594
        46.7504         29.5004
  22300441.5274   -9550406.54349  -7432229.94147                  22300438.9254
        43.2504         26.7504
  20363999.4824   -7967678.18749  -6167984.37548                  20363997.4334
        50.0004         41.5004
  20623172.8394   -6860484.99649  -5335415.03548                  20623168.7164
        50.2504         40.7504
  22307319.5114   -1475991.40249  -1150129.27747                  22307317.4954
        48.7504         34.2504
  24286004.6894   -3443133.90249  -2678154.79346                  24286004.4754
        41.0004         21.5004
 04  7 12 21 58  0.0000000  0  7G 1G11G16G20G23G25G13
  20981510.4474   -7199878.48849  -5596703.15648                  20981510.0074
        50.7504         39.5004
  23155702.4104   -1300954.43749  -1014372.76247                  23155701.7104
        46.5004         29.5004
  22284625.4364   -9633521.78149  -7496995.03547                  22284622.1764
        45.0004         28.2504
  20351271.2454   -8034567.50449  -6220105.92648                  20351268.6074
        50.5004         41.7504
  20611805.6714   -6920221.20349  -5381962.72348                  20611801.1164
        50.2504         40.2504
  22305291.7254   -1486646.63749  -1158432.07047                  22305289.7604
        49.2504         34.7504
  24269410.5304   -3530338.52349  -2746106.41846                  24269410.1444
        41.2504         21.0004
 04  7 12 21 58 15.0000000  0  7G 1G11G16G20G23G25G13
  20969539.5474   -7262785.20749  -5645721.37948                  20969538.8694
        51.0004         39.5004
  23153956.8014   -1310129.15249  -1021521.94947                  23153955.7404
        46.0004         30.0004
  22268826.3134   -9716545.44149  -7561688.80147                  22268823.9714
        44.5004         29.0004
  20338564.2794   -8101342.67649  -6272138.52748                  20338561.6614
        50.2504         41.7504
  20600447.7164   -6979905.73449  -5428470.14848                  20600443.8684
        50.5004         40.0004
  22303272.3884   -1497258.43749  -1166701.02347                  22303270.7954
        49.0004         34.5004
  24252817.3414   -3617532.79749  -2814049.94546                  24252817.6594
        40.2504         20.0004
 04  7 12 21 58 30.0000000  0  7G 1G11G16G20G23G25G13
  20957576.7914   -7325653.37549  -5694709.56648                  20957575.5034
        52.0004         39.5004
  23152217.2144   -1319268.07449  -1028643.19547                  23152216.7384
        46.2504         30.2504
  22253045.0354   -9799476.93449  -7626310.73447                  22253042.5124
        45.5004         28.5004
  20325878.8624   -8168003.29749  -6324081.86348                  20325876.3954
        50.5004         42.0004
  20589100.1664   -7039538.33649  -5474937.11748                  20589095.9324
        51.0004         39.7504
  22301261.5894   -1507826.86349  -1174936.16447                  22301259.3064
        48.5004         33.5004
  24236227.4574   -3704716.50849  -2881985.23446                  24236227.0964
        39.7504         19.0004
 04  7 12 21 58 45.0000000  0  7G 1G11G16G20G23G25G13
  20945620.7234   -7388483.16049  -5743667.84847                  20945619.5604
        50.7504         39.2504
  23150485.2754   -1328371.77349  -1035737.02747                  23150484.2164
        45.5004         29.2504
  22237281.4474   -9882316.05149  -7690860.67647                  22237278.8344
        45.0004         27.0004
  20313215.6614   -8234549.34449  -6375935.93048                  20313213.4454
        51.0004         42.2504
  20577762.2734   -7099119.09849  -5521363.68748                  20577758.0814
        50.5004         40.0004
  22299258.0244   -1518352.20349  -1183137.73847                  22299256.3384
        48.2504         33.7504
  24219638.6954   -3791889.84049  -2949912.46146                  24219638.2674
        40.5004         19.2504
 04  7 12 21 59  0.0000000  0  7G 1G11G16G20G23G25G13
  20933671.9274   -7451273.39149  -5792595.28948                  20933670.5464
        51.0004         39.5004
  23148759.5704   -1337439.33649  -1042802.68447                  23148758.6894
        45.7504         28.7504
  22221535.0484   -9965061.28149  -7755337.46547                  22221533.5624
        45.0004         28.0004
  20300574.4244   -8300979.42649  -6427699.62948                  20300572.1054
        50.0004         42.2504
  20566434.7014   -7158646.88749  -5567748.97348                  20566429.9984
        51.0004         40.0004
  22297263.5924   -1528833.69549  -1191305.14547                  22297261.7304
        48.2504         34.0004
  24203051.9554   -3879051.51649  -3017830.63746                  24203051.6294
        40.7504         20.0004
 04  7 12 21 59 15.0000000  0  7G 1G11G16G20G23G25G13
  20921730.3744   -7514024.87549  -5841492.55148                  20921729.6004
        51.0004         40.0004
  23147040.4684   -1346471.98449  -1049841.15647                  23147039.9904
        46.5004         28.2504
  22205807.0734  -10047713.06649  -7819741.44947                  22205805.0964
        44.7504         26.7504
  20287955.5784   -8367294.07049  -6479373.37948                  20287952.9344
        50.7504         42.2504
  20555116.6464   -7218122.46949  -5614093.58248                  20555112.4814
        51.0004         39.5004
  22295277.6884   -1539272.36349  -1199439.18747                  22295275.4844
        48.2504         34.5004
  24186467.8354   -3966202.55549  -3085740.51646                  24186467.0624
        41.7504         19.5004
 04  7 12 21 59 30.0000000  0  7G 1G11G16G20G23G25G13
  20909796.7404   -7576738.45349  -5890360.27047                  20909795.4914
        50.7504         39.2504
  23145328.5454   -1355470.97749  -1056853.38747                  23145327.7464
        45.7504         28.5004
  22190096.7354  -10130271.94549  -7884073.02747                  22190094.4904
        44.7504         28.0004
  20275358.1154   -8433493.94149  -6530957.69548                  20275355.7504
        51.0004         42.0004
  20543808.7244   -7277546.64849  -5660398.13348                  20543804.3314
        50.5004         39.5004
  22293298.6684   -1549669.33249  -1207540.72747                  22293296.7254
        48.2504         33.7504
  24169885.6714   -4053343.58649  -3153642.56246                  24169885.2954
        41.5004         20.0004
 04  7 12 21 59 45.0000000  0  7G 1G11G16G20G23G25G13
  21197663.1094   -7639409.26649  -5939194.67248                  21197662.2034
        51.5004         39.5004
  23443414.6214   -1364435.08649  -1063838.44547                  23443414.1204
        45.2504         27.7504
  22474197.4854  -10212731.34849  -7948327.10947                  22474195.5404
        44.5004         27.7504
  20562575.7654   -8499573.55549  -6582448.30548                  20562573.5234
        50.2504         42.0004
  20832303.5634   -7336914.71149  -5706658.96948                  20832299.4374
        50.0004         40.0004
  22591121.0574   -1560023.43749  -1215608.86747                  22591119.3094
        48.0004         33.0004
  24453098.8184   -4140468.23449  -3221531.85246                  24453099.1754
        41.0004         21.0004
 04  7 12 22  0  0.0000000  0  7G 1G11G16G20G23G25G13
  21185743.7814   -7702046.44149  -5988002.85548                  21185742.7254
        50.7504         39.7504
  23441715.2804   -1373366.87949  -1070798.34047                  23441714.1864
        45.7504         27.5004
  22458522.5974  -10295102.72749  -8012512.57047                  22458520.6524
        45.2504         27.5004
  20550022.4534   -8565542.37549  -6633852.57848                  20550020.0934
        50.7504         42.0004
  20821015.2524   -7396235.27049  -5752882.77348                  20821011.2394
        50.5004         40.0004
  22589158.4274   -1570337.00849  -1223645.43047                  22589156.2384
        47.5004         33.2504
  24436519.5874   -4227588.75849  -3289417.92646                  24436520.5474
        39.5004         21.0004
 04  7 12 22  0 15.0000000  0  7G 1G11G16G20G23G25G13
  21173831.7714   -7764644.84049  -6036780.81648                  21173831.0124
        51.2504         40.0004
  23440022.0834   -1382265.11349  -1077732.03147                  23440021.0604
        45.5004         27.5004
  22442866.1714  -10377379.13349  -8076624.06247                  22442864.1834
        44.5004         28.7504
  20537491.1464   -8631394.71949  -6685166.08648                  20537488.7224
        50.5004         41.7504
  20809736.8464   -7455503.39549  -5799065.73447                  20809732.5574
        51.2504         39.2504
  22587203.7374   -1580608.45349  -1231649.17247                  22587201.7104
        47.5004         33.0004
  24419943.8154   -4314698.46949  -3357295.60246                  24419944.6754
        40.7504         21.0004
 04  7 12 22  0 30.0000000  0  7G 1G11G16G20G23G25G13
  21161926.9844   -7827204.72349  -6085528.79348                  21161926.0424
        52.0004         40.0004
  23438335.6114   -1391130.42249  -1084640.09447                  23438333.6944
        46.2504         27.7504
  22427227.2924  -10459560.59049  -8140661.53947                  22427225.7084
        45.5004         29.0004
  20524981.8374   -8697130.76649  -6736388.98848                  20524979.4114
        50.5004         42.2504
  20798468.7484   -7514719.47349  -5845208.13748                  20798464.2614
        51.0004         39.5004
  22585257.3214   -1590838.62949  -1239620.73047                  22585255.4344
        47.5004         33.2504
  24403369.1194   -4401797.66849  -3425165.01646                  24403369.6754
        41.5004         22.5004
 04  7 12 22  0 45.0000000  0  7G 1G11G16G20G23G25G13
  21150029.5554   -7889726.29349  -6134246.89148                  21150028.3834
        51.2504         39.5004
  23436654.2304   -1399963.28549  -1091522.88347                  23436653.2074
        45.2504         26.5004
  22411606.6474  -10541646.89849  -8204624.87547                  22411605.1994
        45.0004         29.0004
  20512494.9394   -8762750.32449  -6787521.11348                  20512492.5474
        51.2504         42.0004
  20787210.2334   -7573883.70349  -5891310.13348                  20787205.8044
        51.0004         39.7504
  22583317.8084   -1601027.87549  -1247560.41047                  22583316.3594
        48.2504         33.0004
  24386797.4824   -4488886.50849  -3493026.40646                  24386797.1124
        41.5004         22.2504
 04  7 12 22  1  0.0000000  0  7G 1G11G16G20G23G25G13
  21138139.4504   -7952209.38749  -6182935.01648                  21138138.4104
        51.7504         39.5004
  23434978.7524   -1408763.97349  -1098380.58647                  23434978.2734
        44.5004         26.0004
  22396004.4754  -10623637.56649  -8268513.69547                  22396003.1114
        45.5004         29.0004
  20500030.0074   -8828253.12549  -6838562.25848                  20500027.9164
        51.0004         42.0004
  20775961.7004   -7632995.80549  -5937371.51248                  20775957.0404
        50.2504         40.0004
  22581386.6094   -1611176.25849  -1255468.23847                  22581385.4524
        48.0004         33.7504
  24370226.1174   -4575964.86749  -3560879.62946                  24370226.9614
        41.5004         21.0004
 04  7 12 22  1 15.0000000  0  7G 1G11G16G20G23G25G13
  21126256.4214   -8014654.50849  -6231593.54347                  21126255.2474
        51.2504         39.0004
  23433310.6854   -1417533.13349  -1105213.73447                  23433310.3064
        46.0004         28.2504
  22380419.9444  -10705532.69149  -8332328.07447                  22380418.7124
        45.5004         30.0004
  20487587.4944   -8893639.38349  -6889512.57848                  20487585.3754
        50.5004         42.0004
  20764722.6844   -7692056.30149  -5983392.68048                  20764718.4544
        51.5004         39.7504
  22579463.4194   -1621284.47749  -1263344.80547                  22579461.9894
        47.5004         33.5004
  24353657.6484   -4663033.16849  -3628724.99246                  24353657.9664
        41.7504         21.0004
 04  7 12 22  1 30.0000000  0  7G 1G11G16G20G23G25G13
  21114380.6094   -8077061.13749  -6280222.08647                  21114379.8754
        51.0004         39.2504
  23431647.5304   -1426270.73449  -1112022.30547                  23431647.3754
        44.5004         26.7504
  22364854.1724  -10787331.53149  -8396067.41047                  22364852.7694
        45.5004         30.2504
  20475167.2454   -8958908.40649  -6940371.56248                  20475165.1484
        50.0004         42.5004
  20753493.9184   -7751064.53149  -6029373.10948                  20753489.7544
        51.5004         40.0004
  22577547.2774   -1631352.37949  -1271189.92247                  22577545.7834
        47.5004         34.0004
  24337090.9384   -4750091.05549  -3696562.28546                  24337090.7454
        41.2504         20.0004
 04  7 12 22  1 45.0000000  0  7G 1G11G16G20G23G25G13
  21102512.5724   -8139429.80149  -6328821.03547                  21102511.5354
        51.0004         39.2504
  23429991.1444   -1434977.71949  -1118807.00047                  23429990.1454
        44.5004         26.0004
  22349307.2754  -10869034.19549  -8459731.81247                  22349305.2804
        45.7504         30.2504
  20462769.3444   -9024060.39549  -6991139.34048                  20462766.9014
        50.7504         41.7504
  20742274.4924   -7810021.07849  -6075313.27748                  20742270.3634
        50.7504         40.0004
  22575638.7394   -1641380.66049  -1279004.19547                  22575637.7924
        47.2504         33.5004
  24320526.8084   -4837139.14549  -3764391.93746                  24320526.1994
        42.0004         20.0004
 04  7 12 22  2  0.0000000  0  7G 1G11G16G20G23G25G13
  21090651.3774   -8201759.79349  -6377389.85948                  21090650.2794
        51.2504         39.5004
  23428340.4754   -1443653.62549  -1125567.46547                  23428338.8934
        45.0004         26.5004
  22333778.5454  -10950639.61349  -8523320.44947                  22333776.5284
        46.5004         31.2504
  20450393.9054   -9089094.57449  -7041815.33248                  20450391.4774
        50.7504         42.2504
  20731065.7434   -7868925.16849  -6121212.56648                  20731060.9114
        51.5004         40.2504
  22573738.4134   -1651369.00049  -1286787.32847                  22573736.9594
        48.0004         33.2504
  24303964.0444   -4924176.53549  -3832213.22346                  24303963.8524
        40.7504         20.5004
 04  7 12 22  2 15.0000000  0  7G 1G11G16G20G23G25G13
  21078797.7774   -8264050.95349  -6425928.42247                  21078796.7214
        51.0004         39.2504
  23426695.0394   -1452298.64849  -1132303.89546                  23426694.1204
        43.5004         25.0004
  22318268.2714  -11032147.27049  -8586832.89547                  22318266.5454
        46.7504         31.0004
  20438040.7334   -9154010.53149  -7092399.18748                  20438038.2134
        50.2504         42.0004
  20719866.5694   -7927776.62949  -6167070.84448                  20719862.0424
        51.5004         40.2504
  22571845.2284   -1661317.35549  -1294539.31247                  22571843.9914
        47.7504         33.5004
  24287402.6844   -5011203.03949  -3900026.03546                  24287402.4464
        40.0004         20.0004
 04  7 12 22  2 30.0000000  0  7G 1G11G16G20G23G25G13
  21066951.8394   -8326303.78149  -6474437.11348                  21066950.1624
        51.2504         39.7504
  23425056.1804   -1460913.57849  -1139016.84847                  23425054.9184
        46.2504         26.5004
  22302775.5504  -11113557.37149  -8650269.32047                  22302774.0664
        47.5004         30.5004
  20425709.9634   -9218808.46949  -7142891.09848                  20425707.9294
        50.5004         42.5004
  20708677.4374   -7986576.00449  -6212888.53948                  20708672.9814
        51.2504         40.0004
  22569959.6934   -1671226.43449  -1302260.68447                  22569958.5184
        48.0004         33.7504
  24270844.4514   -5098219.17249  -3967830.77346                  24270843.7024
        42.0004         20.0004
 04  7 12 22  2 45.0000000  0  7G 1G11G16G20G23G25G13
  21055112.6094   -8388517.04749  -6522914.98048                  21055111.5924
        52.5004         39.5004
  23423422.5224   -1469497.61749  -1145705.71146                  23423421.0014
        45.0004         25.5004
  22287302.7834  -11194868.28149  -8713628.45747                  22287301.1004
        47.0004         31.0004
  20413402.2194   -9283486.97349  -7193289.92648                  20413399.7714
        50.7504         41.7504
  20697498.6834   -8045322.03549  -6258664.66848                  20697494.3154
        51.5004         40.5004
  22568081.5464   -1681095.27049  -1309950.69547                  22568080.1954
        48.2504         33.5004
  24254287.5004   -5185223.68449  -4035626.44946                  24254288.0814
        42.0004         21.7504
 04  7 12 22  3  0.0000000  0  7G 1G11G16G20G23G25G13
  21043281.2174   -8450692.80549  -6571363.62948                  21043279.7144
        50.5004         39.5004
  23421793.6024   -1478053.11749  -1152372.39146                  23421793.2614
        44.0004         25.5004
  22271848.8244  -11276081.89549  -8776911.78947                  22271846.4754
        47.2504         30.5004
  20401116.5824   -9348047.91849  -7243597.15648                  20401114.3114
        49.5004         42.0004
  20686329.2984   -8104016.78949  -6304400.84048                  20686325.1604
        51.7504         41.0004
  22566211.1144   -1690926.20349  -1317611.17247                  22566209.4474
        47.7504         32.7504
  24237733.3254   -5272218.69949  -4103414.73846                  24237733.4654
        42.7504         22.0004
 04  7 12 22  3 15.0000000  0  7G 1G11G16G20G23G25G13
  21031456.8554   -8512830.34049  -6619782.48048                  21031455.2374
        51.2504         40.0004
  23420172.1284   -1486579.75449  -1159016.52346                  23420170.4684
        45.0004         25.5004
  22256412.5074  -11357196.96949  -8840118.34047                  22256410.6874
        47.7504         30.7504
  20388853.5804   -9412490.26649  -7293811.97748                  20388850.9604
        50.0004         41.5004
  20675169.8274   -8162659.41049  -6350096.38348                  20675165.6544
        51.0004         40.5004
  22564347.7144   -1700718.80949  -1325241.78947                  22564345.7474
        48.0004         32.7504
  24221180.5914   -5359203.53949  -4171195.10246                  24221180.8264
        41.0004         22.2504
 04  7 12 22  3 30.0000000  0  7G 1G11G16G20G23G25G13
  21019639.8054   -8574928.97349  -6668171.02348                  21019638.2594
        51.5004         39.5004
  23418554.8174   -1495077.28549  -1165638.04746                  23418553.8094
        44.0004         24.7504
  22240996.6634  -11438212.55949  -8903247.35247                  22240994.3274
        47.0004         31.5004
  20376613.3004   -9476813.25049  -7343933.77748                  20376611.0264
        49.5004         41.7504
  20664021.0734   -8221249.33649  -6395750.86748                  20664016.4404
        51.0004         40.0004
  22562491.8634   -1710472.73449  -1332842.26647                  22562489.6994
        48.0004         32.7504
  24204631.2434   -5446177.40249  -4238966.88746                  24204629.5654
        43.5004         22.5004
 04  7 12 22  3 45.0000000  0  7G 1G11G16G20G23G25G13
  21007830.3074   -8636988.20349  -6716528.86748                  21007828.8914
        51.5004         39.7504
  23416942.9484   -1503545.65649  -1172236.79746                  23416942.5924
        45.5004         25.5004
  22225598.3244  -11519127.80949  -8966298.18447                  22225595.9314
        48.0004         31.7504
  20364396.0874   -9541016.09049  -7393961.96948                  20364393.6134
        50.2504         42.0004
  20652881.6494   -8279785.98049  -6441363.84448                  20652877.3584
        50.7504         41.0004
  22560642.7314   -1720187.66449  -1340412.35247                  22560640.9854
        48.5004         33.7504
  24188080.7234   -5533139.97349  -4306729.85546                  24188081.1714
        40.5004         21.0004
 04  7 12 22  4  0.0000000  0  7G 1G11G16G20G23G25G13
  20996027.9074   -8699009.32449  -6764857.01248                  20996026.5654
        52.0004         39.5004
  23415337.6224   -1511986.48049  -1178814.08646                  23415336.6624
        45.5004         24.5004
  22210219.8324  -11599943.57449  -9029271.50447                  22210217.2064
        47.7504         32.2504
  20352200.9624   -9605099.84849  -7443897.36748                  20352198.9504
        51.0004         42.2504
  20641752.1294   -8338270.56249  -6486936.24248                  20641747.9434
        51.0004         40.7504
  22558801.9504   -1729864.98849  -1347953.14847                  22558799.3664
        48.7504         33.5004
  24171534.7584   -5620092.35249  -4374484.91046                  24171534.8454
        41.0004         21.0004
 04  7 12 22  4 15.0000000  0  7G 1G11G16G20G23G25G13
  20984233.5104   -8760990.91849  -6813154.35248                  20984232.0954
        51.7504         39.5004
  23413736.1044   -1520398.48849  -1185368.88747                  23413734.9894
        44.2504         26.0004
  22194860.1434  -11680658.33249  -9092166.10547                  22194857.8724
        48.5004         32.0004
  20340029.4294   -9669062.92249  -7493738.73048                  20340026.7844
        50.7504         42.0004
  20630632.9884   -8396701.81249  -6532467.09048                  20630629.0144
        51.0004         40.0004
  22556966.9344   -1739503.81649  -1355463.94147                  22556965.8974
        48.5004         33.0004
  24154991.2854   -5707033.31249  -4442231.06246                  24154990.9304
        43.5004         21.2504
 04  7 12 22  4 30.0000000  0  7G 1G11G16G20G23G25G13
  20972445.8124   -8822934.34449  -6861421.94948                  20972444.5074
        51.7504         40.0004
  23412141.0574   -1528783.48449  -1191902.70346                  23412140.4574
        43.5004         25.5004
  22179519.6084  -11761273.03149  -9154982.73847                  22179517.7194
        46.7504         32.0004
  20327880.2134   -9732906.42649  -7543486.91048                  20327877.9774
        50.2504         42.0004
  20619524.0794   -8455080.95349  -6577957.32448                  20619519.9584
        50.5004         40.2504
  22555139.9634   -1749105.47749  -1362945.76247                  22555138.3014
        48.2504         33.2504
  24138448.2374   -5793964.17249  -4509969.39146                  24138448.3064
        42.2504         21.7504
 04  7 12 22  4 45.0000000  0  7G 1G11G16G20G23G25G13
  20960665.7004   -8884838.92249  -6909659.28148                  20960664.6394
        51.5004         39.7504
  23410550.0124   -1537141.22349  -1198415.24646                  23410549.0244
        43.7504         24.5004
  22164198.4984  -11841786.61749  -9217720.59447                  22164196.0124
        47.0004         32.5004
  20315754.1874   -9796629.57049  -7593141.31248                  20315751.9394
        50.7504         42.5004
  20608424.7284   -8513407.26649  -6623406.40248                  20608420.5854
        51.0004         40.7504
  22553320.6124   -1758669.56249  -1370398.32447                  22553318.5734
        48.7504         33.2504
  24121908.0964   -5880884.30549  -4577699.31246                  24121908.7654
        43.0004         23.7504
 04  7 12 22  5  0.0000000  0  7G 1G11G16G20G23G25G13
  20948893.0204   -8946705.68449  -6957867.14548                  20948891.9884
        51.5004         39.7504
  23408964.4524   -1545473.02749  -1204907.61746                  23408963.9434
        45.5004         25.0004
  22148896.3094  -11922199.84449  -9280380.23447                  22148894.2764
        46.7504         32.5004
  20303650.9884   -9860233.01249  -7642702.42648                  20303648.4424
        50.5004         42.0004
  20597335.7864   -8571681.77049  -6668815.10548                  20597331.4734
        50.7504         40.5004
  22551507.2574   -1768197.44149  -1377822.65647                  22551505.1244
        48.5004         33.5004
  24105369.6164   -5967794.71549  -4645421.67646                  24105370.2944
        43.5004         22.7504
 04  7 12 22  5 15.0000000  0  7G 1G11G16G20G23G25G13
  20937127.6264   -9008534.11749  -7006045.14548                  20937126.3484
        51.7504         40.0004
  23407383.9304   -1553778.73849  -1211379.64547                  23407384.2574
        45.0004         26.0004
  22133613.3604  -12002511.76249  -9342960.93447                  22133611.1194
        47.0004         32.7504
  20291570.4674   -9923716.14549  -7692169.80148                  20291567.9384
        50.2504         42.0004
  20586256.0294   -8629903.96549  -6714183.04748                  20586251.7844
        50.7504         40.5004
  22549701.3274   -1777688.69549  -1385218.45347                  22549699.1264
        49.0004         33.0004
  24088832.8874   -6054694.84849  -4713136.02046                  24088833.3044
        43.0004         22.7504
 04  7 12 22  5 30.0000000  0  7G 1G11G16G20G23G25G13
  20925369.4674   -9070323.20349  -7054192.48048                  20925368.2694
        51.0004         39.7504
  23405809.1854   -1562057.78549  -1217830.83646                  23405807.3224
        45.2504         24.5004
  22118350.2994  -12082721.14849  -9405461.74647                  22118348.0704
        46.7504         33.5004
  20279513.2584   -9987077.73849  -7741542.48048                  20279511.0894
        50.5004         42.2504
  20575187.0774   -8688072.81649  -6759509.42648                  20575182.7574
        51.0004         41.0004
  22547902.0864   -1787142.74249  -1392585.26247                  22547900.5264
        49.2504         33.0004
  24072297.9734   -6141583.71549  -4780841.59446                  24072298.4404
        42.5004         22.5004
 04  7 12 22  5 45.0000000  0  7G 1G11G16G20G23G25G13
  20913619.1184   -9132072.64849  -7102308.92647                  20913617.2874
        51.2504         39.2504
  23404238.4654   -1570310.02349  -1224261.21946                  23404237.6194
        45.2504         25.0004
  22103106.5904  -12162827.37149  -9467882.17247                  22103104.5094
        47.0004         34.0004
  20267479.1214  -10050317.35249  -7790820.10548                  20267476.9654
        50.5004         41.7504
  20564128.3184   -8746187.97749  -6804793.96548                  20564123.7184
        51.0004         41.0004
  22546109.8964   -1796559.63349  -1399923.10247                  22546108.2364
        48.5004         33.5004
  24055766.5284   -6228460.88349  -4848538.05546                  24055766.5034
        43.2504         22.5004
 04  7 12 22  6  0.0000000  0  7G 1G11G16G20G23G25G13
  20901875.7144   -9193783.03949  -7150394.94548                  20901874.6804
        51.5004         39.5004
  23402672.9394   -1578536.50049  -1230671.48847                  23402672.4364
        44.5004         26.7504
  22087882.0424  -12242830.53549  -9530222.28147                  22087880.4364
        47.0004         33.5004
  20255467.7414  -10113435.24249  -7840002.87948                  20255465.9904
        50.7504         42.0004
  20553079.4644   -8804250.01649  -6850037.11348                  20553074.8934
        50.5004         40.0004
  22544325.2774   -1805939.98849  -1407232.49647                  22544322.8774
        48.7504         33.2504
  24039236.0034   -6315326.96149  -4916225.86746                  24039237.0504
        41.5004         22.2504
 04  7 12 22  6 15.0000000  0  7G 1G11G16G20G23G25G13
  20890140.2294   -9255454.66049  -7198450.75448                  20890138.4884
        52.0004         40.2504
  23401112.2634   -1586737.67249  -1237062.04347                  23401112.2864
        45.2504         26.0004
  22072678.1994  -12322730.66849  -9592482.11747                  22072675.8764
        47.7504         34.5004
  20243480.2324  -10176431.40649  -7889090.80148                  20243477.9224
        50.5004         42.5004
  20542040.0964   -8862259.13749  -6895239.02748                  20542035.9584
        50.5004         40.5004
  22542546.9714   -1815284.31649  -1414513.81647                  22542545.0494
        48.7504         32.0004
  24022707.5094   -6402182.42649  -4983905.40646                  24022709.0134
        41.0004         22.2504
 04  7 12 22  6 30.0000000  0  7G 1G11G16G20G23G25G13
  20878411.8024   -9317086.52049  -7246475.58248                  20878410.8124
        52.0004         40.2504
  23399557.0814   -1594913.10549  -1243432.53947                  23399556.5474
        45.2504         28.2504
  22057493.2724  -12402526.46949  -9654660.65247                  22057490.8774
        47.2504         34.0004
  20231515.8584  -10239304.76249  -7938083.01248                  20231513.3444
        49.5004         42.5004
  20531011.9474   -8920214.49649  -6940399.04348                  20531007.8504
        51.0004         40.2504
  22540775.6584   -1824592.00849  -1421766.55547                  22540773.7674
        48.2504         33.0004
  24006181.8214   -6489026.26649  -5051575.87946                  24006182.2464
        41.2504         20.0004
 04  7 12 22  6 45.0000000  0  7G 1G11G16G20G23G25G13
  20866691.1644   -9378678.70749  -7294469.48848                  20866690.2004
        50.2504         40.0004
  23398006.1064   -1603063.25049  -1249783.35947                  23398005.8224
        45.5004         27.2504
  22042328.6014  -12482217.70349  -9716757.70347                  22042326.0394
        47.2504         34.0004
  20219575.0194  -10302055.33249  -7986979.56648                  20219572.5554
        47.0004         42.2504
  20519993.4884   -8978116.07449  -6985517.15648                  20519989.2224
        51.2504         41.0004
  22539011.4964   -1833863.39149  -1428991.02747                  22539009.6294
        49.0004         33.0004
  23989658.6674   -6575858.50049  -5119237.34846                  23989658.5944
        41.5004         20.0004
 04  7 12 22  7  0.0000000  0  7G 1G11G16G20G23G25G13
  20854978.6784   -9440229.99649  -7342431.52048                  20854977.2614
        51.5004         40.0004
  23396460.2664   -1611187.15249  -1256113.68747                  23396459.2524
        43.5004         26.0004
  22027183.7624  -12561802.75449  -9778772.01647                  22027181.7474
        46.7504         34.2504
  20207657.3764  -10364681.56649  -8035779.23448                  20207655.3474
        50.2504         42.2504
  20508985.7324   -9035962.66849  -7030592.42248                  20508981.2934
        51.0004         41.0004
  22537254.4164   -1843097.45349  -1436186.43047                  22537252.4564
        47.5004         33.2504
  23973136.4934   -6662677.97349  -5186888.80946                  23973137.6344
        40.5004         20.5004
 04  7 12 22  7 15.0000000  0  7G 1G11G16G20G23G25G13
  20843273.3054   -9501741.84449  -7390362.83648                  20843272.1814
        52.2504         40.5004
  23394918.3534   -1619286.67249  -1262425.02747                  23394917.9094
        44.2504         27.2504
  22012059.4974  -12641282.85549  -9840704.55147                  22012057.2354
        46.7504         34.5004
  20195763.6564  -10427184.66449  -8084482.94548                  20195761.2654
        50.5004         41.7504
  20497988.3094   -9093755.48849  -7075625.78948                  20497983.7694
        50.0004         40.5004
  22535504.0394   -1852295.93749  -1443354.09047                  22535502.3534
        47.7504         33.0004
  23956617.7334   -6749486.05549  -5254531.44546                  23956618.0684
        41.0004         20.0004
 04  7 12 22  7 30.0000000  0  7G 1G11G16G20G23G25G13
  21131368.9364   -9563208.71949  -7438259.09848                  21131367.9214
        51.2504         40.2504
  23693175.7204   -1627360.21949  -1268716.15647                  23693174.5814
        45.0004         26.5004
  22296748.1554  -12720651.00449  -9902549.85247                  22296746.4064
        46.5004         34.7504
  20483686.4394  -10489558.90249  -8133086.24248                  20483684.2084
        50.5004         42.0004
  20786794.3844   -9151489.41049  -7120613.26248                  20786790.0884
        51.0004         40.7504
  22833553.0584   -1861457.03549  -1450492.63347                  22833551.0954
        48.5004         33.0004
  24239895.0864   -6836275.51649  -5322159.55546                  24239894.6094
        41.0004         21.0004
 04  7 12 22  7 45.0000000  0  7G 1G11G16G20G23G25G13
  21119679.1464   -9624639.60549  -7486127.31648                  21119677.9844
        51.5004         40.0004
  23691643.5094   -1635410.06649  -1274988.78147                  23691642.8514
        43.2504         27.0004
  22281664.2804  -12799918.21949  -9964316.49647                  22281662.4464
        47.0004         35.0004
  20471840.0014  -10551813.23049  -8181596.11348                  20471837.6244
        50.2504         42.5004
  20775817.2824   -9209173.00449  -7165561.52048                  20775813.3404
        51.0004         40.2504
  22831816.5794   -1870583.12549  -1457603.89147                  22831814.7164
        47.0004         32.5004
  24223380.5404   -6923058.96549  -5389782.96946                  24223380.8204
        39.7504         21.0004
 04  7 12 22  8  0.0000000  0  7G 1G11G16G20G23G25G13
  21107996.6324   -9686029.88749  -7533963.89148                  21107995.8304
        52.0004         39.7504
  23690116.3844   -1643435.36749  -1281242.31647                  23690115.8044
        44.2504         28.0004
  22266600.2894  -12879078.30949 -10025999.67247                  22266598.4994
        48.0004         35.0004
  20460017.2704  -10613942.81649  -8230008.78148                  20460014.9314
        50.7504         42.2504
  20764851.2564   -9266801.79749  -7210467.07048                  20764846.7394
        50.5004         40.7504
  22830085.9304   -1879673.19549  -1464687.07447                  22830084.8474
        47.5004         32.7504
  24206868.9904   -7009829.81649  -5457396.56646                  24206869.6364
        40.5004         20.0004
 04  7 12 22  8 15.0000000  0  7G 1G11G16G20G23G25G13
  21096322.6624   -9747378.96149  -7581768.36348                  21096321.2444
        52.0004         40.5004
  23688593.5784   -1651436.00449  -1287476.60947                  23688593.2924
        44.5004         27.2504
  22251557.6374  -12958130.40649 -10087598.69947                  22251555.4394
        48.0004         35.5004
  20448218.0524  -10675946.88349  -8278323.62948                  20448215.6764
        50.7504         41.2504
  20753895.4544   -9324375.13749  -7255329.41448                  20753890.8464
        50.7504         41.0004
  22828363.7654   -1888726.80949  -1471741.85547                  22828361.8804
        48.0004         32.5004
  24190360.1534   -7096587.79349  -5525000.17246                  24190359.5894
        40.7504         18.5004
 04  7 12 22  8 30.0000000  0  7G 1G11G16G20G23G25G13
  21084655.8254   -9808688.23849  -7629541.83248                  21084654.3704
        51.5004         40.2504
  23687076.1444   -1659413.58649  -1293692.92247                  23687075.5334
        42.5004         27.5004
  22236534.7384  -13037075.58649 -10149114.40647                  22236532.7674
        48.0004         35.5004
  20436443.0944  -10737826.44149  -8326541.46548                  20436440.4014
        50.2504         42.0004
  20742949.7444   -9381894.49649  -7300149.69548                  20742945.1124
        50.7504         40.5004
  22826647.2764   -1897745.77349  -1478769.63347                  22826645.9304
        46.2504         32.7504
  24173852.1464   -7183334.07849  -5592594.64546                  24173851.2844
        40.0004         18.2504
 04  7 12 22  8 45.0000000  0  7G 1G11G16G20G23G25G13
  21072996.7484   -9869957.32049  -7677283.96148                  21072995.3024
        51.5004         40.0004
  23685561.9174   -1667368.17249  -1299891.35247                  23685561.4254
        45.0004         27.0004
  22221532.5024  -13115913.09449 -10210546.21547                  22221530.8054
        49.5004         36.0004
  20424691.1434  -10799581.02749  -8374661.93748                  20424688.8614
        50.5004         41.5004
  20732014.5524   -9439359.34049  -7344927.49248                  20732009.9084
        51.5004         40.5004
  22824937.8044   -1906729.77349  -1485770.17647                  22824936.2484
        46.7504         32.0004
  24157346.8734   -7270068.23249  -5660179.73046                  24157345.9034
        38.0004         18.2504
 04  7 12 22  9  0.0000000  0  7G 1G11G16G20G23G25G13
  21061345.1554   -9931185.99249  -7724994.61348                  21061343.9524
        51.2504         39.5004
  23684052.5614   -1675299.93749  -1306071.98447                  23684052.5854
        42.5004         27.2504
  22206550.6864  -13194642.48449 -10271893.77347                  22206548.9204
        49.0004         35.7504
  20412963.7664  -10861210.28549  -8422684.73048                  20412961.3534
        50.7504         41.7504
  20721089.6834   -9496769.51649  -7389662.69948                  20721085.3314
        51.5004         40.7504
  22823234.9774   -1915678.90249  -1492743.53947                  22823233.2084
        45.5004         33.0004
  24140843.6854   -7356790.24649  -5727755.26246                  24140842.7814
        37.5004         17.5004
 04  7 12 22  9 15.0000000  0  7G 1G11G16G20G23G25G13
  21049701.5304   -9992373.85549  -7772673.47348                  21049700.3974
        51.2504         40.0004
  23682547.6264   -1683208.78149  -1312234.76247                  23682547.0534
        41.5004         26.5004
  22191589.7874  -13273263.10249 -10333156.58247                  22191587.7154
        50.0004         36.2504
  20401259.7564  -10922713.54749  -8470609.34848                  20401257.6714
        50.2504         41.5004
  20710175.7714   -9554124.64849  -7434355.00848                  20710170.9414
        51.2504         40.7504
  22821538.3324   -1924593.00049  -1499689.60947                  22821537.0204
        45.7504         32.2504
  24124343.6864   -7443499.65249  -5795320.95746                  24124341.7924
        37.0004         16.2504
 04  7 12 22  9 30.0000000  0  7G 1G11G16G20G23G25G13
  21038065.5294  -10053522.12549  -7820321.46948                  21038064.2624
        51.5004         39.5004
  23681046.6154   -1691096.36749  -1318380.96547                  23681046.6184
        45.5004         26.7504
  22176649.4344  -13351775.79749 -10394335.28547                  22176647.2334
        50.5004         36.5004
  20389579.9864  -10984091.77749  -8518436.53948                  20389577.5564
        50.0004         41.0004
  20699271.5054   -9611425.81249  -7479005.26648                  20699266.8504
        50.2504         40.5004
  22819848.9624   -1933473.54349  -1506609.53547                  22819847.2084
        46.7504         32.5004
  24107846.2104   -7530197.61749  -5862877.78146                  24107844.4894
        37.7504         18.2504
 04  7 12 22  9 45.0000000  0  7G 1G11G16G20G23G25G13
  21026436.8904  -10114630.82049  -7867938.62948                  21026435.6144
        52.0004         39.5004
  23679550.2794   -1698962.98449  -1324510.85247                  23679549.6804
        45.5004         26.7504
  22161729.4104  -13430180.20349 -10455429.62147                  22161727.5004
        50.0004         36.5004
  20377924.0954  -11045344.90649  -8566166.25048                  20377921.8514
        50.0004         41.2504
  20688377.5104   -9668672.95749  -7523613.42648                  20688372.9304
        51.0004         40.0004
  22818165.2434   -1942320.85949  -1513503.56647                  22818163.6004
        47.5004         32.5004
  24091350.2684   -7616883.97749  -5930425.57846                  24091348.8564
        39.7504         20.0004
 04  7 12 22 10  0.0000000  0  7G 1G11G16G20G23G25G13
  21014815.9764  -10175698.72349  -7915524.00048                  21014814.7234
        51.5004         39.7504
  23678056.9844   -1706807.71949  -1330623.65247                  23678056.9384
        46.0004         27.0004
  22146830.5944  -13508474.76649 -10516438.35947                  22146828.6534
        49.7504         36.5004
  20366292.1344  -11106471.55149  -8613797.40248                  20366289.4264
        50.0004         41.0004
  20677494.2724   -9725864.87549  -7568178.55948                  20677489.8724
        50.0004         41.0004
  22816488.4944   -1951133.87149  -1520370.87147                  22816486.4654
        47.5004         32.5004
  24074856.4584   -7703557.73849  -5997963.56246                  24074855.8494
        39.5004         19.2504
 04  7 12 22 10 15.0000000  0  7G 1G11G16G20G23G25G13
  21003202.7274  -10236725.94149  -7963077.67648                  21003201.9594
        51.0004         40.2504
  23676568.3184   -1714631.21549  -1336719.92247                  23676568.1454
        45.2504         26.0004
  22131952.5594  -13586659.39149 -10577361.43747                  22131950.4614
        50.2504         37.0004
  20354684.0314  -11167471.49249  -8661329.82448                  20354681.4724
        50.2504         41.7504
  20666621.5504   -9783001.78949  -7612700.82848                  20666617.2384
        50.7504         40.5004
  22814817.4894   -1959913.00049  -1527211.75447                  22814816.3534
        47.7504         32.0004
  24058365.0074   -7790219.03949  -6065491.79746                  24058364.0614
        38.5004         20.0004
 04  7 12 22 10 30.0000000  0  7G 1G11G16G20G23G25G13
  20991597.4054  -10297713.37949  -8010600.34848                  20991596.2234
        51.2504         40.0004
  23675083.7424   -1722434.68749  -1342800.59047                  23675083.5244
        46.2504         27.5004
  22117094.9554  -13664734.63749 -10638199.28547                  22117093.4514
        50.2504         36.5004
  20343100.4384  -11228345.62149  -8708764.20748                  20343097.8234
        50.2504         41.7504
  20655759.2554   -9840084.54349  -7657180.89848                  20655754.8364
        51.0004         41.2504
  22813152.8414   -1968659.43449  -1534027.16047                  22813151.2784
        47.2504         32.5004
  24041876.4644   -7876868.86049  -6133011.00846                  24041874.3914
        38.5004         17.5004
 04  7 12 22 10 45.0000000  0  7G 1G11G16G20G23G25G13
  20979999.6884  -10358660.32449  -8058091.48448                  20979998.4784
        51.5004         40.5004
  23673602.4924   -1730217.63749  -1348865.22747                  23673601.8684
        46.0004         27.7504
  22102258.9204  -13742699.35249 -10698950.99647                  22102257.4924
        50.0004         37.0004
  20331540.4794  -11289092.96949  -8756099.79748                  20331538.0984
        50.0004         41.0004
  20644907.0264   -9897112.40649  -7701618.18748                  20644902.7264
        51.0004         40.2504
  22811495.1654   -1977372.72349  -1540816.73047                  22811493.2794
        48.0004         31.5004
  24025389.9934   -7963506.22749  -6200520.68446                  24025387.3944
        40.5004         18.2504
 04  7 12 22 11  0.0000000  0  7G 1G11G16G20G23G25G13
  20968409.1144  -10419567.30149  -8105551.46148                  20968408.0454
        51.0004         40.0004
  23672125.0674   -1737981.05549  -1354914.65247                  23672124.8614
        45.0004         28.0004
  22087443.8464  -13820553.93749 -10759616.89147                  22087441.6774
        50.2504         37.2504
  20320004.5194  -11349713.91049  -8803336.89848                  20320002.2704
        49.5004         41.5004
  20634065.1394   -9954085.86749  -7746013.09848                  20634061.1064
        49.7504         40.5004
  22809843.0144   -1986053.53149  -1547581.02347                  22809840.8964
        48.0004         32.2504
  24008906.2724   -8050131.89849  -6268021.21946                  24008904.2224
        41.0004         18.5004
 04  7 12 22 11 15.0000000  0  7G 1G11G16G20G23G25G13
  20956826.9694  -10480433.19549  -8152979.42248                  20956825.6064
        51.2504         39.5004
  23670650.9834   -1745724.14849  -1360948.29747                  23670651.9784
        44.2504         27.0004
  22072649.8164  -13898296.99249 -10820195.89547                  22072647.4594
        50.7504         37.0004
  20308493.2284  -11410207.08649  -8850474.44548                  20308490.6154
        49.5004         41.2504
  20623234.1344  -10011003.80949  -7790364.74248                  20623229.7944
        50.0004         41.0004
  22808197.5524   -1994701.01649  -1554319.33247                  22808195.4074
        47.0004         32.0004
  23992423.9324   -8136744.81649  -6335511.74246                  23992422.7414
        41.2504         20.0004
 04  7 12 22 11 30.0000000  0  7G 1G11G16G20G23G25G13
  20945252.3544  -10541257.65649  -8200375.10948                  20945251.1254
        52.0004         40.5004
  23669181.4644   -1753446.95749  -1366966.11747                  23669181.5294
        44.7504         27.0004
  22057877.0064  -13975927.87549 -10880687.48447                  22057875.2394
        50.5004         37.7504
  20297005.6964  -11470572.10549  -8897512.12548                  20297003.5994
        49.5004         41.5004
  20612413.5234  -10067865.87549  -7834672.84448                  20612409.2334
        51.0004         40.7504
  22806558.2754   -2003315.26649  -1561031.74247                  22806556.5994
        47.5004         32.0004
  23975944.7884   -8223344.66049  -6402992.10246                  23975943.8604
        41.5004         21.0004
 04  7 12 22 11 45.0000000  0  7G 1G11G16G20G23G25G13
  20933685.7254  -10602041.07849  -8247738.80948                  20933684.3914
        51.7504         40.0004
  23667715.5654   -1761150.19549  -1372968.68047                  23667716.2284
        43.7504         26.2504
  22043125.6104  -14053446.67249 -10941091.72347                  22043123.8664
        50.5004         37.5004
  20285543.1784  -11530809.05549  -8944450.00848                  20285541.1444
        49.2504         41.2504
  20601603.8434  -10124672.39849  -7878937.66848                  20601599.5524
        50.2504         40.7504
  22804925.3644   -2011896.73449  -1567718.62147                  22804923.5194
        46.5004         31.5004
  23959467.5884   -8309931.72749  -6470462.51646                  23959467.1134
        39.2504         21.0004
 04  7 12 22 12  0.0000000  0  7G 1G11G16G20G23G25G13
  20922126.5884  -10662783.43449  -8295070.51648                  20922125.3424
        51.5004         40.7504
  23666253.6444   -1768834.21549  -1378956.28946                  23666253.6524
        43.7504         25.5004
  22028395.9304  -14130853.03949 -11001408.36747                  22028393.8444
        50.0004         38.0004
  20274105.2614  -11590917.84449  -8991288.02748                  20274102.6034
        50.0004         41.7504
  20590804.6044  -10181423.39549  -7923159.21948                  20590800.1584
        50.2504         40.5004
  22803298.4494   -2020445.77349  -1574380.20347                  22803297.1914
        47.0004         30.5004
  23942993.0164   -8396506.01649  -6537922.97746                  23942992.1374
        42.0004         21.0004
 04  7 12 22 12 15.0000000  0  7G 1G11G16G20G23G25G13
  20910575.8594  -10723483.62549  -8342369.35948                  20910574.9064
        51.5004         40.2504
  23664795.3544   -1776498.30149  -1384928.32847                  23664795.1614
        43.5004         25.7504
  22013687.7474  -14208145.61749 -11061636.33647                  22013685.4914
        50.0004         38.2504
  20262691.1184  -11650897.22349  -9038025.21548                  20262688.9594
        49.2504         42.0004
  20580015.7614  -10238117.76249  -7967336.65248                  20580011.6234
        50.5004         40.7504
  22801677.5674   -2028961.43049  -1581015.80947                  22801676.3914
        46.7504         31.5004
  23926521.0994   -8483066.34849  -6605372.57446                  23926520.0284
        41.2504         22.0004
 04  7 12 22 12 30.0000000  0  7G 1G11G16G20G23G25G13
  20899033.0294  -10784142.71549  -8389636.17248                  20899031.7854
        51.2504         40.2504
  23663340.2274   -1784143.84449  -1390885.90646                  23663340.0434
        44.0004         25.5004
  21999000.6164  -14285325.07049 -11121776.16047                  21998998.7204
        48.7504         37.0004
  20251302.0504  -11710748.02749  -9084662.20748                  20251299.8394
        50.2504         41.2504
  20569237.7984  -10294756.47749  -8011470.71548                  20569233.6404
        50.5004         39.7504
  22800063.8204   -2037444.93449  -1587626.35247                  22800061.8904
        47.2504         31.0004
  23910051.5644   -8569613.91849  -6672812.23446                  23910051.0654
        42.2504         22.5004
 04  7 12 22 12 45.0000000  0  7G 1G11G16G20G23G25G13
  20887497.6264  -10844760.35949  -8436870.70348                  20887496.5314
        51.0004         40.0004
  23661889.3844   -1791770.98449  -1396829.17647                  23661888.5784
        44.5004         25.7504
  21984335.2404  -14362390.85249 -11181827.41047                  21984333.2724
        49.0004         37.0004
  20239937.2724  -11770469.72749  -9131198.59448                  20239935.5184
        50.0004         41.7504
  20558470.1604  -10351339.22749  -8055561.17248                  20558466.0504
        50.2504         40.2504
  22798455.0324   -2045896.38349  -1594211.91047                  22798454.0084
        46.7504         30.7504
  23893584.8784   -8656148.34049  -6740241.61346                  23893583.5404
        44.2504         22.2504
 04  7 12 22 13  0.0000000  0  7G 1G11G16G20G23G25G13
  20875970.7494  -10905335.43449  -8484072.05548                  20875969.6794
        51.5004         40.2504
  23660442.0794   -1799378.96549  -1402757.53546                  23660441.2764
        44.0004         24.5004
  21969692.5054  -14439341.62549 -11241789.04747                  21969690.2484
        48.2504         38.0004
  20228597.7314  -11830061.12949  -9177633.46148                  20228595.5044
        50.0004         42.0004
  20547714.0984  -10407864.92249  -8099607.17248                  20547709.5064
        51.0004         40.5004
  22796853.5014   -2054314.94949  -1600771.85547                  22796851.6004
        46.5004         30.0004
  23877119.9924   -8742668.64149  -6807660.00846                  23877119.9054
        43.5004         25.2504
 04  7 12 22 13 15.0000000  0  7G 1G11G16G20G23G25G13
  20864451.8254  -10965868.53149  -8531240.69548                  20864450.5604
        50.2504         40.2504
  23658997.4804   -1806968.58649  -1408671.57446                  23658997.1814
        43.2504         24.5004
  21955070.9554  -14516177.57049 -11301661.19947                  21955069.0604
        48.2504         37.7504
  20217282.2244  -11889522.56649  -9223967.05548                  20217280.2144
        48.7504         41.7504
  20536968.2444  -10464334.04749  -8143609.07848                  20536964.0994
        50.0004         40.2504
  22795257.2434   -2062701.30549  -1607306.68047                  22795256.2444
        45.7504         30.5004
  23860658.0574   -8829175.37549  -6875067.77746                  23860658.7844
        43.2504         23.7504
 04  7 12 22 13 30.0000000  0  7G 1G11G16G20G23G25G13
  20852940.5794  -11026359.23849  -8578376.30548                  20852939.4264
        50.0004         40.0004
  23657557.0934   -1814539.84449  -1414571.27747                  23657556.1294
        44.2504         27.0004
  21940471.5084  -14592898.01249 -11361443.34447                  21940469.5104
        49.0004         38.0004
  20205992.2664  -11948853.44549  -9270198.91048                  20205990.0644
        49.0004         41.7504
  20526233.4054  -10520746.24649  -8187566.63748                  20526229.1964
        50.5004         40.7504
  22793667.7284   -2071055.17249  -1613816.22347                  22793666.3934
        46.5004         29.7504
  23844199.5994   -8915668.01649  -6942464.63746                  23844199.3184
        41.2504         25.5004
 04  7 12 22 13 45.0000000  0  7G 1G11G16G20G23G25G13
  20841437.3034  -11086809.59449  -8625480.47748                  20841436.1504
        50.2504         40.2504
  23656119.0014   -1822095.11749  -1420458.53947                  23656118.4334
        44.5004         25.7504
  21925893.5064  -14669504.69949 -11421136.85947                  21925891.8894
        48.2504         38.5004
  20194726.3834  -12008055.57849  -9316330.43048                  20194724.2664
        50.0004         41.0004
  20515508.8414  -10577103.52049  -8231481.39848                  20515504.6904
        50.5004         41.0004
  22792083.8324   -2079379.01249  -1620302.34847                  22792082.2194
        46.5004         30.2504
  23827743.3654   -9002148.68449  -7009852.11746                  23827742.9384
        42.5004         25.5004
 04  7 12 22 14  0.0000000  0  7G 1G11G16G20G23G25G13
  20829941.8534  -11147219.84849  -8672553.40248                  20829940.5234
        50.7504         40.2504
  23654684.7094   -1829635.06249  -1426333.84847                  23654683.2824
        41.5004         26.2504
  21911337.6814  -14745997.53149 -11480741.64847                  21911335.6774
        49.5004         38.5004
  20183484.9704  -12067129.14149  -9362361.78948                  20183482.8384
        50.0004         41.7504
  20504794.5324  -10633406.00849  -8275353.46548                  20504791.0484
        50.7504         41.0004
  22790505.7954   -2087673.21149  -1626765.38347                  22790504.2744
        45.0004         31.0004
  23811288.5014   -9088617.58649  -7077230.47346                  23811287.9524
        44.0004         25.2504
 04  7 12 22 14 15.0000000  0  7G 1G11G16G20G23G25G13
  20818454.0644  -11207588.68749  -8719594.05548                  20818452.6164
        50.0004         40.0004
  23653252.8984   -1837158.70349  -1432196.48846                  23653252.4274
        41.7504         25.0004
  21896803.5054  -14822375.01649 -11540256.56647                  21896801.7914
        49.0004         38.0004
  20172268.4024  -12126072.73849  -9408291.87148                  20172266.1574
        49.7504         41.7504
  20494091.3784  -10689652.33649  -8319181.77048                  20494087.4574
        50.0004         40.5004
  22788932.8394   -2095936.74249  -1633204.48847                  22788931.7614
        46.0004         31.0004
  23794836.6214   -9175073.52049  -7144598.69946                  23794835.5504
        43.0004         25.5004
 04  7 12 22 14 30.0000000  0  7G 1G11G16G20G23G25G13
  20806973.4484  -11267916.63349  -8766602.83648                  20806972.6584
        49.2504         40.2504
  23651823.8034   -1844666.77749  -1438046.96147                  23651824.2504
        41.5004         27.0004
  21882291.3024  -14898637.27349 -11599681.68447                  21882289.4194
        48.0004         37.7504
  20161076.6854  -12184886.56249  -9454120.81248                  20161074.3324
        50.5004         41.5004
  20483398.7624  -10745843.18049  -8362966.84048                  20483394.5914
        50.5004         40.7504
  22787366.2534   -2104170.34849  -1639620.30147                  22787365.0254
        46.0004         31.7504
  23778386.5454   -9261516.91849  -7211957.16446                  23778385.7574
        44.0004         25.5004
 04  7 12 22 14 45.0000000  0  7G 1G11G16G20G23G25G13
  20795501.3244  -11328204.30149  -8813580.23848                  20795500.5044
        50.5004         40.5004
  23650397.5454   -1852160.34849  -1443886.15247                  23650398.0494
        41.5004         26.5004
  21867800.8004  -14974784.73049 -11659017.35947                  21867798.8124
        49.2504         38.0004
  20149908.8974  -12243571.14549  -9499849.06648                  20149907.0284
        50.5004         41.7504
  20472716.5954  -10801979.05949  -8406709.08648                  20472712.2864
        50.5004         40.7504
  22785804.7514   -2112374.99649  -1646013.54747                  22785803.1784
        45.2504         32.0004
  23761939.4734   -9347948.56649  -7279306.44947                  23761938.8204
        43.7504         27.0004
 04  7 12 22 15  0.0000000  0  7G 1G11G16G20G23G25G13
  20784036.8744  -11388451.06649  -8860525.76648                  20784035.5834
        50.2504         40.5004
  23648974.6944   -1859639.27049  -1449713.95347                  23648974.8524
        43.5004         25.7504
  21853332.3284  -15050816.35249 -11718262.76247                  21853330.3504
        48.7504         37.7504
  20138766.6054  -12302125.68049  -9545475.97348                  20138764.3504
        48.2504         41.7504
  20462044.9064  -10858059.33649  -8450408.00848                  20462040.4454
        50.0004         40.2504
  22784249.3284   -2120550.10949  -1652383.79747                  22784248.2184
        45.7504         31.2504
  23745494.1414   -9434367.57449  -7346645.91047                  23745494.2294
        43.0004         28.0004
 04  7 12 22 15 15.0000000  0  7G 1G11G16G20G23G25G13
  20772580.2274  -11448655.97749  -8907438.68448                  20772579.3194
        49.2504         40.7504
  23647554.9184   -1867102.94549  -1455529.81647                  23647553.9394
        44.2504         27.0004
  21838886.2974  -15126731.03149 -11777417.05547                  21838884.5254
        47.5004         38.2504
  20127649.0404  -12360549.11349  -9591000.72748                  20127646.7444
        48.2504         41.5004
  20451383.8174  -10914083.07849  -8494062.87148                  20451379.6924
        49.2504         40.5004
  22782699.7744   -2128695.09049  -1658730.55547                  22782698.2954
        46.0004         31.0004
  23729051.5414   -9520773.06649  -7413974.83647                  23729052.1644
        43.0004         27.5004
 04  7 12 22 15 30.0000000  0  8G 1G11G16G20G23G25G13G 4
  21060924.4494  -11508816.64849  -8954317.12548                  21060923.4554
        50.5004         40.0004
  23945929.7554   -1874552.80149  -1461334.92647                  23945929.3284
        43.0004         26.5004
  22124255.3824  -15202525.07849 -11836477.34047                  22124253.4734
        49.0004         38.2504
  20416348.9944  -12418838.93449  -9636421.37548                  20416346.6624
        49.5004         41.5004
  20740526.5944  -10970048.10949  -8537671.98048                  20740522.1264
        50.2504         41.0004
  23080947.5594   -2136811.46549  -1665055.01647                  23080946.1384
        45.7504         32.0004
  24012405.4644   -9607160.98049  -7481290.04747                  24012404.6224
        42.2504         26.5004
  24977269.3764     -30217.18058
        35.5004
 04  7 12 22 15 45.0000000  0  8G 1G11G16G20G23G25G13G 4
  21049483.3854  -11568940.00449  -9001166.48848                  21049482.1554
        49.0004         40.0004
  23944514.4314   -1881989.07849  -1467129.46146                  23944514.4074
        39.7504         25.5004
  22109853.9194  -15278207.16449 -11895450.38347                  22109851.9334
        47.2504         38.0004
  20405281.2614  -12477001.73049  -9681743.04348                  20405278.8674
        50.2504         41.0004
  20729886.4394  -11025960.78149  -8581240.29348                  20729882.3604
        51.2504         40.0004
  23079408.9444   -2144899.33249  -1671357.25847                  23079406.9084
        44.7504         32.0004
  23995967.3564   -9693541.82049  -7548599.77047                  23995967.2134
        42.5004         25.7504
  24962908.4954    -105682.85548    -78784.60956                  24962909.1394
        33.7504         19.5004
 04  7 12 22 16  0.0000000  0  8G 1G11G16G20G23G25G13G 4
  21038050.3964  -11629021.48049  -9047983.21948                  21038048.7884
        50.7504         40.5004
  23943102.2434   -1889411.12149  -1472912.93046                  23943101.3504
        44.0004         24.0004
  22095474.9304  -15353771.39549 -11954331.59047                  22095472.0254
        48.7504         38.2504
  20394238.3084  -12535033.00449  -9726962.22748                  20394236.0414
        50.0004         40.7504
  20719257.4434  -11081816.85949  -8624764.51648                  20719253.2564
        50.7504         40.5004
  23077875.0714   -2152957.78149  -1677636.57447                  23077873.4804
        45.7504         31.0004
  23979532.7714   -9779909.34449  -7615899.08647                  23979531.4884
        43.2504         26.2504
  24948570.2924    -181031.58248   -137497.91446                  24948570.2234
        31.2504         20.0004
 04  7 12 22 16 15.0000000  0  8G 1G11G16G20G23G25G13G 4
  21026624.8824  -11689062.67649  -9094768.57048                  21026623.7054
        50.5004         40.5004
  23941691.8694   -1896821.04749  -1478686.94547                  23941691.6414
        42.0004         26.0004
  22081117.2724  -15429219.11749 -12013122.01247                  22081115.0684
        48.5004         38.5004
  20383220.2784  -12592934.18049  -9772080.02348                  20383217.6844
        50.0004         41.0004
  20708639.1304  -11137617.96549  -8668245.89548                  20708634.5904
        51.0004         40.2504
  23076346.4824   -2160988.70749  -1683894.45347                  23076345.4564
        45.5004         30.7504
  23963099.5064   -9866265.19149  -7683189.33647                  23963098.6644
        41.7504         26.5004
  24934255.0564    -256264.94548   -196121.25446                  24934254.0334
        31.0004         19.2504
 04  7 12 22 16 30.0000000  0  8G 1G11G16G20G23G25G13G 4
  21015206.7934  -11749065.67249  -9141524.16048                  21015205.3404
        51.0004         39.7504
  23940283.8124   -1904221.22749  -1484453.36346                  23940283.5434
        41.0004         25.0004
  22066781.6714  -15504552.10949 -12071823.03147                  22066779.6284
        49.0004         38.0004
  20372226.3034  -12650707.11749  -9817097.89848                  20372224.0384
        49.7504         41.0004
  20698030.1294  -11193366.09049  -8711685.99248                  20698026.0104
        51.0004         40.5004
  23074823.6904   -2168994.16849  -1690132.51647                  23074821.9464
        45.0004         30.5004
  23946668.1184   -9952611.23849  -7750471.93447                  23946667.7464
        41.7504         26.2504
  24919958.8034                                                   24919958.0994
        29.5004         17.7504
 04  7 12 22 16 45.0000000  0  8G 1G11G16G20G23G25G13G 4
  21003795.6044  -11809031.05949  -9188250.43448                  21003794.3084
        50.7504         40.2504
  23938877.7014   -1911612.35949  -1490212.75446                  23938876.7454
        42.5004         24.7504
  22052468.3324  -15579770.76249 -12130434.95347                  22052466.3384
        48.7504         38.2504
  20361256.8594  -12708352.30949  -9862016.23048                  20361254.4014
        50.5004         41.2504
  20687431.9474  -11249061.77749  -8755085.22348                  20687427.8054
        51.0004         40.5004
  23073304.5784   -2176975.35549  -1696351.64547                  23073302.8884
        46.0004         30.5004
  23930239.4804  -10038948.12949  -7817747.39846                  23930238.2804
        41.2504         25.0004
  24905685.6064                                                   24905685.3964
        30.7504         17.7504
 04  7 12 22 17  0.0000000  0  8G 1G11G16G20G23G25G13G 4
  20992391.9684  -11868958.03149  -9234946.77348                  20992390.5344
        50.2504         40.5004
  23937472.5374   -1918994.04749  -1495964.74246                  23937472.3954
        44.0004         23.5004
  22038176.9914  -15654874.00049 -12188956.94947                  22038174.3364
        49.2504         38.2504
  20350311.8544  -12765868.71949  -9906834.21948                  20350309.4484
        49.0004         41.5004
  20676843.6634  -11304704.14149  -8798442.90648                  20676839.6284
        51.0004         41.0004
  23071790.5354   -2184931.57849  -1702551.30947                  23071788.6604
        46.0004         30.5004
  23913811.8004  -10125275.16049  -7885015.17647                  23913811.0264
        41.0004         26.0004
  24891433.6724    -481284.18748   -371460.82846                  24891434.3384
        32.2504         19.2504
 04  7 12 22 17 15.0000000  0  8G 1G11G16G20G23G25G13G 4
  20980995.7164  -11928845.36349  -9281612.22748                  20980994.3694
        51.0004         40.5004
  23936069.4684   -1926365.67649  -1501708.92246                  23936070.1914
        42.0004         24.0004
  22023906.9774  -15729860.32849 -12247387.84447                  22023904.8784
        48.5004         37.7504
  20339391.7134  -12823255.08249  -9951550.86748                  20339389.0284
        50.0004         41.7504
  20666265.4024  -11360292.03949  -8841758.15248                  20666261.1584
        50.7504         40.5004
  23070281.6754   -2192862.03549  -1708730.90647                  23070280.0464
        46.2504         30.5004
  23897386.2304  -10211591.12149  -7952274.34446                  23897385.1424
        40.5004         23.0004
  24877204.0674    -556061.54748   -429728.83246                  24877204.7684
        34.5004         20.5004
 04  7 12 22 17 30.0000000  0  8G 1G11G16G20G23G25G13G 4
  20969607.1404  -11988692.25849  -9328246.17248                  20969605.7594
        51.0004         40.2504
  23934668.9464   -1933726.57849  -1507444.72746                  23934669.4054
        40.7504         25.5004
  22009660.2874  -15804728.64549 -12305726.77347                  22009658.1174
        49.2504         37.5004
  20328495.9854  -12880510.37549  -9996165.39148                  20328493.7984
        50.5004         41.2504
  20655698.0754  -11415824.67649  -8885030.33648                  20655693.6624
        51.5004         40.7504
  23068777.2434   -2200765.94549  -1714889.79347                  23068775.8434
        45.2504         30.7504
  23880961.2684  -10297895.15249  -8019524.20746                  23880961.8334
        38.5004         22.2504
  24862996.8054    -630722.34448   -487906.06646                  24862997.2084
        35.5004         22.2504
 04  7 12 22 17 45.0000000  0  8G 1G11G16G20G23G25G13G 4
  20958226.3584  -12048499.72349  -9374849.38748                  20958224.8434
        51.0004         40.2504
  23933270.4644   -1941078.10949  -1513173.25846                  23933270.0164
        40.2504         24.5004
  21995435.3744  -15879479.68749 -12363974.32847                  21995433.4774
        49.2504         37.5004
  20317625.5804  -12937635.55149 -10040678.52048                  20317623.3034
        50.0004         41.5004
  20645141.1144  -11471303.06649  -8928260.25048                  20645136.5804
        51.0004         40.2504
  23067277.9174   -2208644.56649  -1721029.01247                  23067276.7094
        43.5004         30.0004
  23864540.6344  -10384188.32049  -8086765.56646                  23864540.9844
        39.5004         22.0004
  24848811.1544    -705267.69149   -545993.33246                  24848812.0224
        37.7504         21.7504
 04  7 12 22 18  0.0000000  0  8G 1G11G16G20G23G25G13G 4
  20946853.2904  -12108266.95349  -9421421.25448                  20946851.5554
        51.0004         40.2504
  23931873.4454   -1948419.95349  -1518894.21946                  23931873.6904
        41.7504         24.0004
  21981232.9574  -15954112.45349 -12422129.71547                  21981231.2274
        48.7504         37.7504
  20306780.3284  -12994629.53549 -10085089.41848                  20306777.6784
        49.7504         41.5004
  20634594.3284  -11526726.34849  -8971447.21948                  20634589.7294
        51.0004         40.2504
  23065783.8284   -2216497.39549  -1727148.12147                  23065782.4944
        44.7504         30.0004
  23848122.8154  -10470469.83649  -8153997.88346                  23848121.9044
        38.0004         22.5004
  24834648.2614    -779696.49649   -603989.79346                  24834648.1804
        37.2504         22.2504
 04  7 12 22 18 15.0000000  0  8G 1G11G16G20G23G25G13G 4
  20935487.4924  -12167993.07049  -9467961.08248                  20935486.1784
        51.0004         40.0004
  23930478.0084   -1955751.55949  -1524607.23446                  23930478.0484
        42.5004         22.5004
  21967053.6474  -16028625.65249 -12480191.93747                  21967051.7794
        48.0004         37.5004
  20295960.0184  -13051491.20349 -10129397.21548                  20295957.2964
        50.5004         42.5004
  20624058.0744  -11582093.55149  -9014590.50048                  20624053.5534
        51.5004         41.0004
  23064295.0144   -2224323.75049  -1733246.60547                  23064293.0684
        46.5004         30.5004
  23831705.3094  -10556738.84449  -8221220.46546                  23831705.6994
        38.5004         22.2504
  24820507.0544    -854007.82849   -661894.70346                  24820506.9014
        39.5004         22.2504
 04  7 12 22 18 30.0000000  0  8G 1G11G16G20G23G25G13G 4
  20924129.5104  -12227679.12149  -9514469.70348                  20924128.1344
        50.2504         39.7504
  23929084.6984   -1963074.46949  -1530313.44546                  23929084.4994
        43.5004         22.2504
  21952897.0394  -16103020.14849 -12538161.66047                  21952895.1994
        47.2504         37.5004
  20285164.2484  -13108221.66049 -10173602.77348                  20285161.5444
        50.0004         42.5004
  20613532.6964  -11637405.75049  -9057690.90648                  20613528.0434
        50.7504         40.7504
  23062809.7864   -2232125.01649  -1739325.52047                  23062808.6954
        47.0004         31.0004
  23815291.0534  -10642996.37549  -8288434.05946                  23815291.5464
        37.0004         22.7504
  24806387.5924    -928202.62149   -719708.82446                  24806388.8774
        37.2504         22.2504
 04  7 12 22 18 45.0000000  0  8G 1G11G16G20G23G25G13G 4
  20912779.3244  -12287324.18449  -9560946.37148                  20912778.2254
        50.7504         40.0004
  23927692.4074   -1970388.00049  -1536012.36746                  23927692.9144
        41.7504         22.5004
  21938763.1264  -16177294.74649 -12596037.95347                  21938761.1644
        47.5004         37.2504
  20274394.1494  -13164819.75049 -10217705.18048                  20274391.4324
        50.5004         42.2504
  20603017.6704  -11692661.97749  -9100747.71548                  20603013.2784
        51.0004         41.5004
  23061330.4724   -2239900.41849  -1745384.28547                  23061329.5374
        46.5004         31.0004
  23798879.2124  -10729241.48849  -8355638.00046                  23798879.8124
        39.0004         21.2504
  24792291.9324   -1002279.56649   -777431.09446                  24792292.1894
        38.5004         22.2504
 04  7 12 22 19  0.0000000  0  8G 1G11G16G20G23G25G13G 4
  20901437.1424  -12346928.78949  -9607391.51248                  20901435.8314
        49.5004         40.5004
  23926302.7204   -1977692.97349  -1541704.57446                  23926302.8844
        42.5004         22.5004
  21924651.7844  -16251449.77349 -12653821.06647                  21924649.9614
        44.5004         37.5004
  20263648.8454  -13221286.00449 -10261704.85948                  20263646.3784
        50.5004         42.0004
  20592513.2044  -11747862.84049  -9143761.37548                  20592509.1594
        50.5004         40.7504
  23059856.1544   -2247650.71149  -1751423.50047                  23059854.1474
        46.7504         30.5004
  23782470.5724  -10815474.75849  -8422832.71946                  23782470.7744
        39.7504         23.0004
  24778217.0804   -1076239.27049   -835062.01646                  24778218.1804
        36.0004         22.5004
 04  7 12 22 19 15.0000000  0  8G 1G11G16G20G23G25G13G 4
  20890102.3004  -12406492.61349  -9653804.87948                  20890101.1244
        50.7504         40.0004
  23924913.8404   -1984989.53149  -1547390.26246                  23924914.6904
        42.7504         22.5004
  21910563.0844  -16325484.59849 -12711510.53547                  21910561.4824
        47.2504         36.7504
  20252928.8634  -13277619.96149 -10305601.45748                  20252926.1934
        50.7504         41.7504
  20582019.2424  -11803008.02049  -9186731.64548                  20582014.8694
        50.7504         41.0004
  23058385.4564   -2255375.87949  -1757443.10947                  23058384.6284
        46.2504         30.2504
  23766062.9304  -10901695.97749  -8490018.07446                  23766062.9334
        40.5004         23.0004
  24764165.7024   -1150081.21549   -892601.18746                  24764166.1324
        37.7504         21.7504
 04  7 12 22 19 30.0000000  0  8G 1G11G16G20G23G25G13G 4
  20878775.5814  -12466014.95749  -9700185.93448                  20878774.4854
        49.5004         40.0004
  23923527.8884   -1992277.26249  -1553069.06246                  23923527.1214
        43.2504         22.5004
  21896497.9284  -16399398.39549 -12769105.67247                  21896495.9734
        44.0004         37.0004
  20242234.2284  -13333820.74649 -10349394.28148                  20242231.9264
        48.5004         41.7504
  20571536.2294  -11858096.84049  -9229657.99248                  20571532.1554
        49.0004         41.0004
  23056920.7334   -2263075.51649  -1763442.86347                  23056919.4174
        46.5004         30.0004
  23749657.3474  -10987904.35949  -8557193.38746                  23749657.9034
        40.0004         21.7504
  24750136.9164   -1223804.47349   -950047.87546                  24750137.3384
        36.5004         22.2504
 04  7 12 22 19 45.0000000  0  8G 1G11G16G20G23G25G13G 4
  20867456.6004  -12525496.57449  -9746535.24648                  20867455.2764
        50.5004         40.2504
  23922142.0254   -1999557.32049  -1558741.89546                  23922142.1654
        42.5004         24.0004
  21882455.7944  -16473191.46949 -12826606.77047                  21882453.7164
        45.2504         36.7504
  20231564.6584  -13389889.03949 -10393083.87548                  20231562.4254
        47.7504         42.0004
  20561063.9084  -11913129.93749  -9272540.93448                  20561059.8364
        49.0004         41.2504
  23055460.2324   -2270750.62549  -1769423.48447                  23055459.0924
        46.5004         30.5004
  23733255.1254  -11074100.66449  -8624359.28146                  23733254.9284
        40.0004         21.2504
  24736130.0974   -1297409.78948  -1007402.64846                  24736130.7334
        35.2504         21.2504
 04  7 12 22 20  0.0000000  0  8G 1G11G16G20G23G25G13G 4
  20856145.8164  -12584937.49249  -9792852.84048                  20856144.0504
        50.7504         40.0004
  23920758.2984   -2006830.19949  -1564409.10946                  23920758.8244
        41.7504         23.0004
  21868435.8434  -16546863.73449 -12884013.70747                  21868434.3674
        45.2504         36.7504
  20220920.3764  -13445824.71149 -10436670.10948                  20220918.3754
        50.2504         42.0004
  20550602.3094  -11968107.37949  -9315380.50448                  20550597.9334
        50.7504         40.7504
  23054004.0484   -2278401.44149  -1775385.16447                  23054003.0024
        46.5004         30.7504
  23716855.1414  -11160285.00849  -8691515.89546                  23716854.6674
        41.0004         21.7504
  24722145.4554   -1370897.02348  -1064665.39846                  24722146.3774
        34.5004         21.7504
 04  7 12 22 20 15.0000000  0  8G 1G11G16G20G23G25G13G 4
  20844841.8804  -12644337.70749  -9839138.72348                  20844840.2964
        50.0004         40.0004
  23919375.0294   -2014096.08249  -1570070.91846                  23919375.4224
        41.0004         22.2504
  21854439.5574  -16620414.86749 -12941326.26647                  21854437.8234
        44.5004         36.0004
  20210301.4584  -13501627.59449 -10480152.86348                  20210299.0104
        49.5004         41.5004
  20540150.7774  -12023029.15249  -9358176.68748                  20540146.6484
        50.5004         40.5004
  23052552.4524   -2286028.23849  -1781328.13747                  23052551.6144
        45.7504         31.0004
  23700457.1994  -11246457.34849  -8758663.16446                  23700455.9754
        42.7504         22.0004
  24708184.5214   -1444266.10548  -1121836.10546                  24708184.3554
        34.7504         21.7504
 04  7 12 22 20 30.0000000  0  8G 1G11G16G20G23G25G13G 4
  20833546.3194  -12703696.10249  -9885392.01248                  20833545.2064
        51.0004         40.2504
  23917993.8994   -2021354.39149  -1575726.78146                  23917994.7224
        42.5004         22.5004
  21840467.1934  -16693843.62549 -12998543.46947                  21840465.1994
        45.7504         35.7504
  20199708.1084  -13557296.39849 -10523531.16048                  20199705.7304
        49.5004         41.5004
  20529710.4224  -12077894.09049  -9400928.59048                  20529706.1464
        51.2504         41.0004
  23051106.1254   -2293630.06249  -1787251.65647                  23051104.6024
        46.5004         31.5004
  23684061.7894  -11332616.57049  -8825800.19146                  23684060.8604
        42.0004         21.7504
  24694244.8924   -1517515.60549  -1178913.60546                  24694246.0014
        36.2504         22.5004
 04  7 12 22 20 45.0000000  0  8G 1G11G16G20G23G25G13G 4
  20822258.6494  -12763012.52049  -9931612.59848                  20822257.4824
        51.0004         40.5004
  23916614.5304   -2028605.21549  -1581376.85546                  23916614.7164
        42.0004         22.5004
  21826517.2834  -16767149.45749 -13055664.87947                  21826515.7114
        46.5004         35.5004
  20189140.3174  -13612830.88349 -10566804.79348                  20189138.3044
        46.2504         41.5004
  20519280.9154  -12132702.08249  -9443636.12148                  20519276.4934
        48.2504         41.2504
  23049664.3064   -2301207.13749  -1793155.87547                  23049663.2754
        46.5004         31.5004
  23667668.6514  -11418762.58249  -8892926.93446                  23667667.3424
        42.2504         21.7504
  24680328.9864   -1590645.41449  -1235897.87946                  24680329.8004
        36.0004         22.5004
 04  7 12 22 21  0.0000000  0  8G 1G11G16G20G23G25G13G 4
  20810979.5954  -12822285.72349  -9977799.50848                  20810977.9964
        50.5004         39.7504
  23915235.9714   -2035847.69949  -1587020.36746                  23915237.1754
        42.7504         22.5004
  21812591.5164  -16840330.96949 -13112689.42247                  21812589.2944
        44.2504         36.2504
  20178598.1984  -13668229.70349 -10609972.70748                  20178596.1804
        44.2504         42.0004
  20508862.5894  -12187451.79749  -9486298.23848                  20508857.9284
        45.5004         41.0004
  23048227.6904   -2308758.27749  -1799039.89847                  23048226.0294
        46.7504         31.0004
  23651277.9994  -11504894.13749  -8960042.43746                  23651276.5734
        44.5004         22.7504
  24666435.9564   -1663653.92649  -1292787.57446                  24666436.7454
        36.5004         23.2504
 04  7 12 22 21 15.0000000  0  8G 1G11G16G20G23G25G13G 4
  20799708.3824  -12881517.49249 -10023954.13348                  20799707.0334
        50.7504         39.7504
  23913859.1314   -2043083.94949  -1592659.07046                  23913859.5804
        42.2504         22.2504
  21798688.3314  -16913389.72749 -13169618.30147                  21798686.4514
        46.5004         34.7504
  20168081.4544  -13723494.49249 -10653036.18748                  20168079.2104
        46.2504         42.0004
  20498454.5524  -12242145.09049  -9528916.38748                  20498450.2864
        48.5004         41.0004
  23046795.0104   -2316285.63749  -1804905.39147                  23046793.7864
        46.2504         31.5004
  23634890.4054  -11591013.05949  -9027148.05546                  23634888.8744
        43.5004         21.7504
  24652565.8354   -1736543.00449  -1349584.27046                  24652566.0344
        39.5004         23.2504
 04  7 12 22 21 30.0000000  0  8G 1G11G16G20G23G25G13G 4
  20788444.5424  -12940706.82049 -10070075.68748                  20788443.3904
        50.7504         40.0004
  23912484.0224   -2050313.27749  -1598292.37946                  23912484.0624
        43.7504         22.2504
  21784809.8884  -16986324.28549 -13226450.41847                  21784807.7514
        46.2504         34.7504
  20157590.4344  -13778624.12949 -10695994.34448                  20157588.6464
        48.5004         41.7504
  20488057.4394  -12296780.81649  -9571489.68048                  20488053.4564
        50.0004         41.0004
  23045367.2204   -2323788.33649  -1810751.65647                  23045366.1424
        46.0004         30.7504
  23618505.0714  -11677118.20749  -9094242.96546                  23618504.0934
        43.5004         22.0004
  24638717.5304   -1809311.35949  -1406286.89146                  24638719.5914
        39.7504         24.0004
 04  7 12 22 21 45.0000000  0  8G 1G11G16G20G23G25G13G 4
  20777189.3624  -12999853.47349 -10116163.98848                  20777188.3644
        52.0004         39.7504
  23911109.7264   -2057535.92249  -1603920.43446                  23911109.4554
        44.0004         23.7504
  21770954.1364  -17059134.30949 -13283185.48447                  21770952.2834
        46.0004         35.2504
  20147125.8394  -13833618.37149 -10738847.00848                  20147123.5904
        44.7504         41.2504
  20477671.9624  -12351358.81649  -9614017.99248                  20477667.3154
        46.2504         41.0004
  23043944.2264   -2331266.47349  -1816578.81247                  23043943.2124
        46.2504         30.5004
  23602122.3254  -11763209.53949  -9161327.10546                  23602120.5394
        43.7504         22.0004
  24624893.7174   -1881958.84049  -1462895.30546                  24624895.0374
        41.5004         25.0004
 04  7 12 22 22  0.0000000  0  8G 1G11G16G20G23G25G13G 4
  20765942.1774  -13058957.85549 -10162219.35248                  20765941.1044
        51.5004         40.2504
  23909735.8954   -2064752.64149  -1609543.86746                  23909736.3824
        43.0004         21.7504
  21757122.3784  -17131819.88749 -13339823.58647                  21757121.1244
        46.2504         35.0004
  20136686.4234  -13888477.35949 -10781594.27748                  20136684.0914
        45.0004         41.5004
  20467296.8424  -12405879.42649  -9656501.58248                  20467292.8164
        47.2504         40.7504
  23042525.4504   -2338720.69549  -1822387.28947                  23042525.1404
        45.5004         30.2504
  23585742.0244  -11849287.44149  -9228400.76646                  23585740.4604
        45.0004         21.0004
  24611092.1624   -1954485.42249  -1519409.52746                  24611093.1994
        42.0004         25.5004
 04  7 12 22 22 15.0000000  0  8G 1G11G16G20G23G25G13G 4
  20754703.4004  -13118019.54349 -10208241.44548                  20754701.8244
        51.0004         40.5004
  23908364.2344   -2071963.37549  -1615162.67246                  23908363.9124
        42.0004         21.7504
  21743314.4814  -17204380.44149 -13396364.25447                  21743312.6634
        46.0004         34.7504
  20126273.0844  -13943200.60249 -10824235.77048                  20126270.6874
        47.0004         42.0004
  20456933.0184  -12460342.21149  -9698940.11748                  20456928.7784
        49.0004         40.5004
  23041111.6624   -2346150.84049  -1828177.04747                  23041110.6604
        45.5004         30.7504
  23569364.6004  -11935351.42249  -9295463.59046                  23569362.2064
        44.2504         21.7504
  24597314.2404   -2026890.73449  -1575829.21546                  24597315.7304
        42.7504         25.0004
 04  7 12 22 22 30.0000000  0  8G 1G11G16G20G23G25G13G 4
  20743471.9154  -13177039.44149 -10254230.97748                  20743470.9864
        51.7504         40.5004
  23906993.2054   -2079169.36349  -1620777.79346                  23906992.8914
        42.5004         22.2504
  21729530.6464  -17276816.69149 -13452808.07447                  21729528.4974
        46.5004         34.5004
  20115885.3024  -13997788.96949 -10866772.16048                  20115883.2574
        49.0004         42.5004
  20446580.0444  -12514748.11749  -9741334.32848                  20446575.5784
        49.5004         41.0004
  23039702.1794   -2353558.10949  -1833948.97347                  23039701.2594
        46.5004         30.7504
  23552989.7614  -12021402.45749  -9362516.35246                  23552987.4654
        45.2504         22.5004
  24583559.1484   -2099175.60949  -1632155.08647                  24583559.9404
        43.2504         26.2504
 04  7 12 22 22 45.0000000  0  8G 1G11G16G20G23G25G13G 4
  20732249.1264  -13236016.05949 -10300186.78148                  20732248.0414
        51.2504         41.0004
  23905622.9674   -2086369.53949  -1626388.36346                  23905622.4884
        43.0004         22.5004
  21715770.5144  -17349126.73849 -13509153.55147                  21715768.7344
        46.2504         34.5004
  20105523.2364  -14052240.72349 -10909202.09848                  20105521.1964
        49.7504         42.0004
  20436238.0234  -12569095.56649  -9783682.99248                  20436233.6394
        51.2504         41.0004
  23038297.5864   -2360941.23449  -1839702.07047                  23038296.5164
        46.7504         31.7504
  23536617.5004  -12107439.11349  -9429557.87546                  23536616.6184
        44.2504         22.7504
  24569826.6344   -2171338.40249  -1688385.82047                  24569828.4454
        43.7504         27.0004
 04  7 12 22 23  0.0000000  0  8G 1G11G16G20G23G25G13G 4
  20721034.2444  -13294950.23849 -10346109.51648                  20721033.2244
        51.2504         40.2504
  23904253.7094   -2093565.06249  -1631995.29746                  23904253.0574
        43.5004         23.2504
  21702034.5824  -17421311.41449 -13565401.32847                  21702032.3814
        46.2504         34.2504
  20095186.9004  -14106556.80949 -10951526.32448                  20095184.9024
        50.0004         42.0004
  20425907.1944  -12623385.55949  -9825986.87948                  20425902.5904
        50.7504         41.5004
  23036896.5474   -2368301.33249  -1845437.22747                  23036896.1594
        46.0004         30.2504
  23520247.6864  -12193462.33649  -9496588.90246                  23520246.8824
        42.5004         22.2504
  24556117.9104   -2243379.67249  -1744521.87947                  24556119.2364
        44.0004         27.5004
 04  7 12 22 23 15.0000000  0  8G 1G11G16G20G23G25G13G 4
  20709827.7994  -13353841.87549 -10391999.10248                  20709826.5714
        51.2504         40.0004
  23902885.3404   -2100756.18049  -1637598.82046                  23902884.8574
        42.5004         22.0004
  21688322.5124  -17493370.26249 -13621551.05947                  21688320.1774
        46.7504         34.2504
  20084877.4564  -14160736.83649 -10993744.52348                  20084875.3284
        49.5004         42.2504
  20415586.6714  -12677617.85249  -9868245.81248                  20415582.6724
        51.0004         41.5004
  23035500.5464   -2375638.37549  -1851154.42247                  23035500.0814
        45.0004         30.5004
  23503879.4114  -12279471.89549  -9563609.31646                  23503879.0854
        42.0004         21.7504
  24542431.8134   -2315299.36749  -1800563.19147                  24542432.7564
        44.2504         27.2504
 04  7 12 22 23 30.0000000  0  8G 1G11G16G20G23G25G13G 4
  20998422.3674  -13412687.09449 -10437852.51648                  20998420.9704
        51.7504         39.7504
  24201309.8094   -2107942.98449  -1643198.97346                  24201309.5744
        42.7504         22.5004
  21974426.9624  -17565298.18749 -13677598.78547                  21974424.8524
        47.0004         34.5004
  20374386.1304  -14214777.19149 -11035853.89848                  20374383.7784
        48.5004         42.0004
  20705070.9574  -12731788.84449  -9910456.97348                  20705066.5444
        50.2504         40.5004
  23333901.5214   -2382952.26649  -1856853.58247                  23333900.6454
        45.5004         30.2504
  23787309.2204  -12365462.07449  -9630614.62946                  23787308.1904
        42.0004         21.0004
  24828562.6374   -2387092.65649  -1856506.00047                  24828563.5824
        44.0004         25.7504
 04  7 12 22 23 45.0000000  0  8G 1G11G16G20G23G25G13G 4
  20987231.3194  -13471494.22749 -10483676.25448                  20987230.3304
        51.5004         40.2504
  24199943.1324   -2115127.11349  -1648797.04346                  24199942.5444
        42.5004         21.7504
  21960762.6954  -17637105.21149 -13733552.28547                  21960760.4574
        47.0004         34.5004
  20364127.6024  -14268685.41049 -11077860.30548                  20364125.7184
        47.0004         42.2504
  20694772.8384  -12785906.25449  -9952626.37948                  20694768.4564
        49.0004         40.5004
  23332513.8374   -2390244.66849  -1862536.00447                  23332512.6804
        45.0004         30.5004
  23770947.1844  -12451444.98849  -9697614.27746                  23770946.5284
        41.7504         21.7504
  24814922.9634   -2458769.34849  -1912357.96947                  24814924.1134
        43.2504         26.5004
 04  7 12 22 24  0.0000000  0  8G 1G11G16G20G23G25G13G 4
  20976048.9074  -13530259.71549 -10529467.54748                  20976047.6714
        51.0004         40.7504
  24198576.6464   -2122308.63349  -1654393.09846                  24198575.6974
        41.7504         21.5004
  21947122.4814  -17708786.68749 -13789407.96947                  21947119.8854
        46.7504         34.2504
  20353895.4794  -14322458.29349 -11119761.25048                  20353893.5654
        44.7504         41.7504
  20684485.1324  -12839966.93749  -9994751.59048                  20684480.9534
        47.7504         40.2504
  23331129.8154   -2397515.82049  -1868201.84847                  23331128.8674
        44.5004         30.0004
  23754587.5074  -12537415.32849  -9764604.09046                  23754587.9664
        42.2504         22.7504
  24801306.4214   -2530324.96149  -1968115.57447                  24801307.3804
        43.5004         27.2504
 04  7 12 22 24 15.0000000  0  8G 1G11G16G20G23G25G13G 4
  20964874.4204  -13588982.28149 -10575225.38748                  20964873.4174
        51.0004         40.5004
  24197210.5944   -2129486.98449  -1659986.64546                  24197209.6534
        42.7504         22.2504
  21933505.7234  -17780341.09449 -13845164.63347                  21933503.5554
        45.7504         34.0004
  20343688.6094  -14376094.33249 -11161555.57848                  20343686.2954
        44.5004         41.5004
  20674208.8784  -12893969.52749 -10036831.52348                  20674204.2634
        46.0004         40.5004
  23329750.6874   -2404764.64849  -1873850.32447                  23329749.5904
        44.5004         28.0004
  23738230.1474  -12623371.67249  -9831583.03546                  23738230.6914
        41.2504         22.2504
  24787713.2694   -2601758.12549  -2023777.76647                  24787714.2124
        43.2504         27.7504
 04  7 12 22 24 30.0000000  0  8G 1G11G16G20G23G25G13G 4
  20953707.4654  -13647664.21149 -10620951.56248                  20953706.3284
        51.5004         41.0004
  24195844.9134   -2136664.66449  -1665579.68046                  24195843.9244
        43.5004         24.0004
  21919913.2774  -17851770.40249 -13900823.82447                  21919911.4034
        47.0004         34.5004
  20333507.5374  -14429595.73849 -11203244.98848                  20333505.0264
        48.7504         41.5004
  20663943.1214  -12947916.21949 -10078867.90648                  20663938.8904
        50.2504         40.2504
  23328374.6424   -2411993.58249  -1879483.27047                  23328373.7694
        45.2504         29.0004
  23721875.2424  -12709316.37949  -9898552.90646                  23721875.5084
        41.5004         22.5004
  24774142.8854   -2673070.95349  -2079346.19547                  24774143.7054
        44.0004         27.5004
 04  7 12 22 24 45.0000000  0  8G 1G11G16G20G23G25G13G 4
  20942548.6664  -13706303.78149 -10666644.73848                  20942547.8644
        51.0004         41.0004
  24194479.4384   -2143840.40649  -1671171.21146                  24194478.8224
        44.2504         21.7504
  21906344.7294  -17923072.65649 -13956384.01247                  21906342.5624
        47.0004         34.7504
  20323352.2254  -14482960.73849 -11244828.10948                  20323350.2244
        46.7504         41.5004
  20653688.3044  -13001805.32049 -10120859.41448                  20653684.1174
        48.5004         40.2504
  23327003.3774   -2419201.07849  -1885099.52747                  23327002.4984
        45.5004         30.7504
  23705523.7004  -12795247.67249  -9965512.34046                  23705522.8484
        41.5004         22.2504
  24760595.9704   -2744261.64849  -2134819.47347                  24760596.3484
        43.0004         27.2504
 04  7 12 22 25  0.0000000  0  8G 1G11G16G20G23G25G13G 4
  20931398.3094  -13764900.49649 -10712304.51248                  20931397.0134
        51.7504         41.0004
  24193113.6554   -2151013.93049  -1676761.00046                  24193114.1294
        44.0004         23.0004
  21892800.3974  -17994247.32049 -14011844.78147                  21892798.3834
        47.2504         34.0004
  20313223.4124  -14536188.71549 -11286304.46148                  20313221.4634
        44.0004         41.5004
  20643444.6624  -13055636.34449 -10162805.65648                  20643440.3584
        45.5004         40.5004
  23325636.6914   -2426387.06649  -1890699.02347                  23325634.8004
        44.7504         29.7504
  23689174.2934  -12881165.12149 -10032460.97746                  23689173.6704
        42.0004         23.0004
  24747072.0534   -2815329.68449  -2190197.13747                  24747072.7014
        43.5004         26.7504
 04  7 12 22 25 15.0000000  0  8G 1G11G16G20G23G25G13G 4
  20920255.9224  -13823454.34049 -10757930.88748                  20920254.7004
        51.2504         40.5004
  24191749.8554   -2158185.63749  -1682349.41846                  24191749.9034
        43.0004         22.5004
  21879280.8234  -18065294.01249 -14067205.81247                  21879278.8184
        48.0004         34.5004
  20303120.5104  -14589279.52749 -11327673.92248                  20303118.3774
        45.7504         41.5004
  20633212.3204  -13109409.25049 -10204706.63348                  20633207.4094
        48.7504         40.5004
  23324272.8904   -2433551.65249  -1896281.83247                  23324272.0624
        45.0004         29.7504
  23672827.2144  -12967068.68749 -10099398.73846                  23672827.1154
        41.7504         24.0004
  24733571.7854   -2886274.76649  -2245479.02747                  24733572.3054
        44.0004         26.0004
 04  7 12 22 25 30.0000000  0  8G 1G11G16G20G23G25G13G 4
  20909121.3794  -13881967.61349 -10803525.64148                  20909119.9464
        51.7504         41.0004
  24190384.5414   -2165358.23849  -1687938.50846                  24190384.4394
        41.5004         22.2504
  21865785.1964  -18136214.73049 -14122468.70747                  21865782.9654
        47.5004         34.5004
  20293043.6234  -14642235.33249 -11368938.19148                  20293041.3254
        48.7504         41.2504
  20622989.9824  -13163126.34049 -10246564.09848                  20622985.5314
        51.0004         40.7504
  23322912.8534   -2440697.35249  -1901849.94547                  23322912.0814
        45.0004         29.7504
  23656482.8634  -13052960.69149 -10166327.53546                  23656482.2334
        43.2504         23.7504
  24720093.5644   -2957099.14149  -2300666.82446                  24720095.1734
        43.2504         25.5004
 04  7 12 22 25 45.0000000  0  8G 1G11G16G20G23G25G13G 4
  20897994.4964  -13940438.89849 -10849087.68748                  20897992.9834
        52.2504         41.0004
  24189020.3804   -2172530.54749  -1693527.39146                  24189019.6364
        41.2504         22.7504
  21852313.7964  -18207007.91449 -14177632.21547                  21852311.7714
        47.2504         34.2504
  20282992.1584  -14695054.63749 -11410096.08648                  20282990.2224
        49.7504         41.2504
  20612778.5244  -13216786.19949 -10288376.97348                  20612774.6904
        50.2504         40.5004
  23321556.6204   -2447822.96549  -1907402.36747                  23321555.9754
        44.0004         30.0004
  23640140.9814  -13138839.84049 -10233246.30946                  23640139.5814
        43.5004         25.5004
  24706640.2934   -3027801.29349  -2355759.43446                  24706640.2854
        44.0004         25.2504
 04  7 12 22 26  0.0000000  0  8G 1G11G16G20G23G25G13G 4
  20886875.4644  -13998868.73449 -10894617.42648                  20886874.1994
        51.2504         40.5004
  24187655.0994   -2179703.62949  -1699116.84446                  24187654.3534
        41.7504         22.5004
  21838866.6254  -18277673.94949 -14232696.64147                  21838864.0244
        47.5004         34.5004
  20272966.8124  -14747737.93749 -11451148.01648                  20272964.8964
        49.0004         41.2504
  20602578.8064  -13270389.38749 -10330145.69148                  20602574.3434
        50.5004         40.2504
  23320204.3864   -2454929.36749  -1912939.85947                  23320203.7964
        43.5004         29.7504
  23623800.6664  -13224706.74649 -10300155.57046                  23623799.9804
        42.2504         25.2504
  24693209.0734   -3098381.66849  -2410757.10947                  24693210.0054
        44.7504         26.7504
 04  7 12 22 26 15.0000000  0  8G 1G11G16G20G23G25G13G 4
  20875764.4024  -14057257.09449 -10940114.84448                  20875763.5154
        51.7504         40.5004
  24186290.1044   -2186877.79749  -1704707.14846                  24186289.7884
        41.5004         22.0004
  21825443.1324  -18348212.50849 -14287661.75447                  21825441.3214
        49.0004         34.5004
  20262967.6174  -14800285.20749 -11492093.93748                  20262965.3054
        46.7504         41.5004
  20592389.1254  -13323935.71549 -10371870.10548                  20592384.4624
        49.5004         40.2504
  23318855.8454   -2462016.90649  -1918462.63347                  23318855.2594
        43.0004         30.2504
  23607462.7924  -13310561.18449 -10367055.12146                  23607462.0964
        42.5004         23.5004
  24679801.7304   -3168840.12149  -2465659.82846                  24679801.5684
        44.0004         25.5004
 04  7 12 22 26 30.0000000  0  8G 1G11G16G20G23G25G13G 4
  20864661.4604  -14115604.27349 -10985580.17248                  20864660.7464
        51.5004         40.0004
  24184924.8174   -2194053.66049  -1710298.72346                  24184924.0584
        42.2504         22.2504
  21812044.5114  -18418623.82849 -14342527.69947                  21812042.4634
        48.5004         34.0004
  20252993.8494  -14852696.55149 -11532933.95748                  20252991.7674
        48.5004         42.0004
  20582210.3314  -13377425.65649 -10413550.57448                  20582205.7784
        50.0004         41.2504
  23317510.8314   -2469085.88749  -1923970.93047                  23317509.9984
        44.0004         29.7504
  23591127.5754  -13396403.60549 -10433945.27346                  23591126.9654
        42.5004         25.0004
  24666416.5184   -3239177.00849  -2520467.77746                  24666417.6714
        42.2504         25.5004
 04  7 12 22 26 45.0000000  0  8G 1G11G16G20G23G25G13G 4
  20853566.2864  -14173910.06249 -11031013.25848                  20853565.2104
        51.7504         40.5004
  24183558.1194   -2201231.24649  -1715891.69946                  24183558.1614
        41.5004         21.2504
  21798670.0384  -18488907.23849 -14397293.98447                  21798667.6614
        48.2504         35.0004
  20243046.5284  -14904971.64149 -11573667.78948                  20243044.2854
        48.5004         41.5004
  20572042.2984  -13430858.97749 -10455186.92248                  20572037.7344
        50.2504         40.5004
  23316169.3234   -2476136.43749  -1929464.90247                  23316168.2804
        43.7504         29.2504
  23574794.8434  -13482233.70349 -10500825.84846                  23574794.2744
        43.2504         25.5004
  24653055.4744   -3309391.88349  -2575180.65646                  24653056.0154
        44.7504         25.0004
 04  7 12 22 27  0.0000000  0  8G 1G11G16G20G23G25G13G 4
  20842479.0304  -14232174.77349 -11076414.32448                  20842477.7084
        51.2504         40.7504
  24182192.2214   -2208411.44549  -1721486.70746                  24182191.5504
        40.7504         22.2504
  21785320.1114  -18559063.03549 -14451960.84047                  21785317.3354
        48.0004         34.2504
  20233124.7014  -14957110.80549 -11614295.71548                  20233122.4534
        49.2504         41.2504
  20561884.9824  -13484235.93749 -10496779.35548                  20561880.5564
        50.5004         40.2504
  23314831.3824   -2483169.15249  -1934944.97347                  23314829.9754
        44.0004         29.7504
  23558464.1714  -13568051.93449 -10567697.16846                  23558464.0764
        42.7504         25.2504
  24639717.1844   -3379484.92249  -2629798.61346                  24639717.2864
        43.5004         24.5004
 04  7 12 22 27 15.0000000  0  8G 1G11G16G20G23G25G13G 4
  20831399.5094  -14290398.62949 -11121783.56248                  20831398.3404
        51.7504         40.7504
  24180825.0824   -2215594.69549  -1727084.09846                  24180824.8074
        41.2504         22.2504
  21771994.0494  -18629091.11349 -14506528.15647                  21771991.4424
        49.2504         35.0004
  20223229.0284  -15009114.05149 -11654817.72748                  20223226.6654
        49.2504         41.0004
  20551738.2414  -13537556.65249 -10538327.96948                  20551733.8724
        50.5004         40.0004
  23313495.9304   -2490184.50849  -1940411.48447                  23313494.5624
        44.0004         28.5004
  23542135.9264  -13653858.45749 -10634559.33647                  23542135.2274
        44.0004         27.0004
  24626401.9994   -3449456.41849  -2684321.86346                  24626401.9184
        43.5004         25.5004
 04  7 12 22 27 30.0000000  0  8G 1G11G16G20G23G25G13G 4
  20820327.7504  -14348580.66449 -11167120.20748                  20820326.6014
        52.2504         41.0004
  24179457.9294   -2222780.44149  -1732683.43746                  24179457.3694
        40.7504         21.7504
  21758692.7224  -18698990.41849 -14560995.14547                  21758690.3014
        49.2504         34.5004
  20213359.1164  -15060980.40249 -11695233.07048                  20213356.6104
        48.5004         41.2504
  20541602.5184  -13590820.21549 -10579832.03948                  20541597.9314
        51.0004         40.5004
  23312164.2924   -2497181.77049  -1945863.89847                  23312163.3074
        43.0004         29.7504
  23525809.4964  -13739652.39849 -10701411.73447                  23525809.0634
        44.0004         26.0004
  24613110.1884   -3519305.10249  -2738749.39846                  24613110.5224
        43.5004         24.5004
 04  7 12 22 27 45.0000000  0  8G 1G11G16G20G23G25G13G 4
  20809263.9814  -14406720.01249 -11212423.59448                  20809262.9504
        51.7504         40.5004
  24178090.7364   -2229968.40649  -1738284.51246                  24178090.4044
        41.0004         22.2504
  21745415.9474  -18768759.87549 -14615360.93447                  21745413.4844
        49.7504         33.7504
  20203515.6794  -15112708.92249 -11735541.00448                  20203512.9954
        49.5004         41.5004
  20531477.9994  -13644025.73849 -10621290.88348                  20531473.6284
        51.0004         40.5004
  23310836.6554   -2504160.22749  -1951301.68447                  23310835.0084
        43.7504         28.5004
  23509486.7564  -13825432.82849 -10768253.62947                  23509485.2474
        45.0004         26.7504
  24599841.9624   -3589030.13749  -2793080.58246                  24599842.4794
        42.7504         24.0004
 04  7 12 22 28  0.0000000  0  8G 1G11G16G20G23G25G13G 4
  20798208.1564  -14464818.83249 -11257695.39548                  20798207.0124
        51.5004         40.5004
  24176721.4054   -2237160.85949  -1743889.05546                  24176721.6594
        41.0004         21.7504
  21732163.4974  -18838401.40249 -14669627.06247                  21732161.0284
        49.5004         34.5004
  20193697.3284  -15164301.68049 -11775743.15648                  20193694.9584
        49.0004         42.0004
  20521363.8654  -13697175.37149 -10662706.18448                  20521359.6824
        51.0004         40.7504
  23309511.3504   -2511122.26249  -1956726.66447                  23309510.7564
        43.5004         28.2504
  23493164.5614  -13911202.00849 -10835086.69146                  23493163.5174
        44.2504         24.5004
  24586596.5344   -3658633.52349  -2847316.99246                  24586597.0914
        41.7504         24.7504
 04  7 12 22 28 15.0000000  0  8G 1G11G16G20G23G25G13G 4
  20787159.9724  -14522875.29749 -11302934.19548                  20787159.3484
        51.2504         40.7504
  24175352.1984   -2244356.38349  -1749496.02046                  24175352.6494
        40.2504         22.5004
  21718936.2134  -18907913.00049 -14723791.92647                  21718933.4534
        49.5004         34.7504
  20183906.0164  -15215756.82449 -11815838.07848                  20183903.5694
        48.7504         42.0004
  20511260.7354  -13750267.42249 -10704076.61348                  20511256.5434
        49.7504         40.0004
  23308190.2534   -2518066.35249  -1962137.66047                  23308189.1704
        43.0004         28.0004
  23476846.0564  -13996958.16849 -10901909.64847                  23476845.0874
        45.0004         26.5004
  24573374.3374   -3728113.52749  -2901457.21946                  24573376.0934
        42.5004         22.7504
 04  7 12 22 28 30.0000000  0  8G 1G11G16G20G23G25G13G 4
  20776121.0644  -14580888.92649 -11348139.61748                  20776120.1224
        51.7504         40.7504
  24173982.4054   -2251554.89149  -1755105.26646                  24173982.8544
        40.0004         21.7504
  21705733.3134  -18977293.98849 -14777855.03147                  21705730.4694
        50.2504         34.5004
  20174140.8504  -15267073.78149 -11855825.31648                  20174138.5184
        49.7504         41.7504
  20501168.7944  -13803301.27049 -10745401.68748                  20501164.1854
        50.2504         40.5004
  23306872.0714   -2524992.25449  -1967534.47747                  23306871.6844
        43.0004         27.7504
  23460529.7544  -14082700.66049 -10968721.94547                  23460527.9624
        45.0004         26.0004
  24560176.6524   -3797469.39549  -2955500.77046                  24560177.7574
        41.5004         22.5004
 04  7 12 22 28 45.0000000  0  8G 1G11G16G20G23G25G13G 4
  20765088.7184  -14638862.70349 -11393313.99648                  20765087.5824
        51.7504         41.2504
  24172610.4014   -2258759.69949  -1760719.44946                  24172611.3454
        39.0004         21.7504
  21692554.5864  -19046547.16049 -14831818.53547                  21692552.0544
        50.0004         34.7504
  20164401.3404  -15318255.47749 -11895707.16048                  20164398.7624
        50.0004         41.0004
  20491087.2904  -13856279.83249 -10786683.69148                  20491082.7984
        50.5004         40.7504
  23305556.7024   -2531903.16449  -1972919.61747                  23305556.2574
        42.7504         28.5004
  23444215.7194  -14168432.61749 -11035526.05947                  23444213.9464
        45.5004         25.7504
  24547001.6564   -3866704.08649  -3009449.87146                  24547002.1664
        40.2504         22.7504
 04  7 12 22 29  0.0000000  0  8G 1G11G16G20G23G25G13G 4
  20754064.6214  -14696794.54349 -11438455.68448                  20754063.4944
        51.7504         40.7504
  24171238.6054   -2265969.14849  -1766337.25446                  24171239.8524
        38.0004         21.0004
  21679400.8504  -19115670.20749 -14885680.65247                  21679398.8264
        50.0004         35.2504
  20154688.1594  -15369299.67249 -11935481.85548                  20154685.5534
        50.0004         41.5004
  20481016.6694  -13909201.06649 -10827921.01648                  20481012.5014
        49.5004         40.5004
  23304245.5794   -2538797.17649  -1978291.60247                  23304244.8144
        43.2504         27.5004
  23427903.1844  -14254151.91849 -11102320.28947                  23427902.1944
        44.5004         26.2504
  24533850.4354   -3935815.35949  -3063302.83246                  24533850.9044
        40.5004         22.7504
 04  7 12 22 29 15.0000000  0  8G 1G11G16G20G23G25G13G 4
  20743048.6224  -14754684.44149 -11483564.68748                  20743047.5384
        51.5004         41.2504
  24169866.8294   -2273183.60549  -1771958.97346                  24169866.2294
        38.5004         21.2504
  21666272.3784  -19184662.93049 -14939441.20747                  21666269.7704
        49.5004         35.5004
  20145000.7984  -15420206.39549 -11975149.43748                  20144998.3794
        49.7504         41.5004
  20470957.1624  -13962065.01249 -10869113.69948                  20470952.9854
        49.0004         40.2504
  23302936.6564   -2545674.71949  -1983650.73047                  23302935.7954
        43.0004         29.0004
  23411593.9204  -14339858.74649 -11169104.80546                  23411593.1574
        44.2504         24.7504
  24520722.5054   -4004803.26649  -3117059.57446                  24520722.0064
        40.5004         21.5004
 04  7 12 22 29 30.0000000  0  8G 1G11G16G20G23G25G13G 4
  20732040.4774  -14812532.86349 -11528641.37948                  20732039.6434
        51.2504         41.0004
  24168492.3474   -2280403.85549  -1777585.15646                  24168492.0474
        39.7504         21.2504
  21653167.7354  -19253525.58249 -14993100.41447                  21653165.4024
        50.2504         34.7504
  20135339.4494  -15470976.08649 -12014710.24248                  20135336.9554
        49.0004         41.5004
  20460908.1744  -14014872.09849 -10910262.07848                  20460903.8214
        48.7504         40.5004
  23301631.0364   -2552536.35949  -1988997.48447                  23301629.7064
        43.0004         28.0004
  23395286.7914  -14425553.37149 -11235879.78546                  23395285.9474
        44.5004         25.2504
  24507618.1424   -4073668.10949  -3170720.48846                  24507617.9974
        38.0004         22.2504
 04  7 12 22 29 45.0000000  0  8G 1G11G16G20G23G25G13G 4
  20721040.0244  -14870339.41049 -11573685.44548                  20721039.2934
        52.0004         41.0004
  24167117.5474   -2287629.84849  -1783215.83646                  24167117.4184
        40.7504         22.2504
  21640088.8214  -19322257.60549 -15046657.84047                  21640086.0734
        49.7504         34.7504
  20125704.5804  -15521608.10249 -12054163.76248                  20125702.5014
        49.5004         41.5004
  20450870.5264  -14067621.96549 -10951365.86348                  20450865.8344
        48.2504         41.0004
  23300327.6284   -2559382.12149  -1994331.84047                  23300327.5884
        43.5004         28.5004
  23378981.7614  -14511235.51649 -11302645.07446                  23378981.0124
        43.7504         24.5004
  24494536.8814   -4142409.44949  -3224285.17646                  24494537.6714
        39.7504         22.0004
 04  7 12 22 30  0.0000000  0  8G 1G11G16G20G23G25G13G 4
  20710048.2154  -14928103.36349 -11618696.31648                  20710047.3564
        52.0004         41.7504
  24165742.1224   -2294861.28549  -1788850.83246                  24165741.8214
        40.0004         22.2504
  21627034.4854  -19390858.18449 -15100112.83247                  21627031.9744
        50.0004         34.5004
  20116095.8814  -15572101.69549 -12093509.41848                  20116093.3254
        50.0004         41.2504
  20440843.2224  -14120313.81249 -10992424.45348                  20440838.9074
        48.5004         40.5004
  23299028.4744   -2566211.23449  -1999653.26647                  23299028.0694
        43.0004         28.2504
  23362679.6614  -14596904.43449 -11369400.06246                  23362678.4754
        43.5004         24.0004
  24481478.9894   -4211026.41849  -3277752.91046                  24481480.0234
        39.5004         22.5004
 04  7 12 22 30 15.0000000  0  8G 1G11G16G20G23G25G13G 4
  20699064.1194  -14985825.94549 -11663674.94948                  20699063.2744
        51.2504         41.2504
  24164364.4864   -2302099.64549  -1794491.13746                  24164364.5094
        40.2504         22.5004
  21614005.3194  -19459328.17649 -15153466.06647                  21614002.5714
        49.7504         34.2504
  20106513.4504  -15622458.02349 -12132748.12548                  20106511.1804
        49.7504         41.5004
  20430827.2024  -14172948.80549 -11033438.72748                  20430822.7084
        48.5004         40.0004
  23297731.5694   -2573025.14149  -2004962.80947                  23297731.3794
        43.0004         28.0004
  23346379.2884  -14682561.28149 -11436145.61746                  23346378.9224
        43.5004         22.7504
  24468445.8744   -4279520.13749  -3331124.64146                  24468446.1324
        40.2504         21.5004
 04  7 12 22 30 30.0000000  0  8G 1G11G16G20G23G25G13G 4
  20688087.7224  -15043507.30149 -11708621.45748                  20688086.3364
        52.5004         41.2504
  24162985.3694   -2309345.51649  -1800137.31646                  24162985.6704
        39.2504         22.5004
  21601000.5404  -19527667.64549 -15206717.60547                  21600997.9194
        48.5004         34.2504
  20096957.1944  -15672677.36749 -12171880.07848                  20096954.7274
        49.0004         41.2504
  20420821.7064  -14225527.02349 -11074408.75848                  20420817.4184
        47.5004         40.5004
  23296437.7454   -2579824.34449  -2010260.90247                  23296437.1084
        42.5004         27.2504
  23330082.1354  -14768206.23449 -11502881.91046                  23330081.2944
        44.0004         23.0004
  24455435.3374   -4347890.86749  -3384400.51246                  24455435.8274
        40.5004         21.7504
 04  7 12 22 30 45.0000000  0  8G 1G11G16G20G23G25G13G 4
  20677119.3034  -15101145.79749 -11753534.57048                  20677118.5664
        52.2504         41.5004
  24161605.1054   -2316597.72149  -1805788.39846                  24161605.8714
        39.0004         22.0004
  21588020.9904  -19595874.81249 -15259866.04747                  21588018.2094
        48.5004         35.2504
  20087427.0954  -15722757.89849 -12210903.88348                  20087424.7854
        49.5004         41.2504
  20410827.4574  -14278047.00449 -11115333.41848                  20410823.4254
        47.7504         40.5004
  23295147.5544   -2586607.52349  -2015546.52347                  23295147.1204
        42.7504         29.0004
  23313786.0754  -14853837.70749 -11569607.71946                  23313785.7384
        43.0004         24.7504
  24442448.6864   -4416136.62549  -3437579.03946                  24442448.2704
        39.0004         20.5004
 04  7 12 22 31  0.0000000  0  8G 1G11G16G20G23G25G13G 4
  20666158.9764  -15158741.76249 -11798414.54348                  20666158.2004
        51.7504         40.7504
  24160223.9534   -2323856.82049  -1811444.87546                  24160224.2114
        37.2504         21.2504
  21575066.8274  -19663949.78549 -15312911.48047                  21575064.3114
        49.0004         35.5004
  20077923.5284  -15772699.87949 -12249819.71148                  20077921.5014
        49.7504         42.0004
  20400844.4444  -14330509.07449 -11156212.96148                  20400839.9014
        47.0004         40.5004
  23293858.9704   -2593375.21549  -2020820.07047                  23293858.8514
        42.5004         28.5004
  23297493.4194  -14939456.34049 -11636323.50046                  23297492.9874
        42.5004         23.0004
  24429485.3614   -4484257.85249  -3490660.52046                  24429485.1524
        38.0004         20.0004
 04  7 12 22 31 15.0000000  0  8G 1G11G16G20G23G25G13G 4
  20955000.1914  -15216292.32449 -11843259.14148                  20954998.8994
        52.5004         41.2504
  24458633.0944   -2331123.66449  -1817107.40646                  24458634.1564
        37.2504         21.0004
  21861930.8194  -19731888.83649 -15365850.99647                  21861928.2994
        47.5004         35.2504
  20368239.1614  -15822500.89549 -12288625.69548                  20368236.5594
        50.0004         42.0004
  20690665.3474  -14382910.75449 -11197045.44148                  20690660.9134
        47.0004         40.5004
  23592366.7844   -2600128.25049  -2026082.21547                  23592366.2524
        42.5004         28.2504
  23580997.5724  -15025057.34049 -11703025.53946                  23580996.4804
        43.5004         24.5004
  24716338.7054   -4552251.07449  -3543642.27746                  24716338.6754
        38.5004         18.5004
 04  7 12 22 31 30.0000000  0  8G 1G11G16G20G23G25G13G 4
  20944055.9164  -15273805.21149 -11888074.36748                  20944054.7534
        51.7504         41.0004
  24457249.2804   -2338399.74249  -1822777.12146                  24457249.6144
        39.0004         21.0004
  21849026.8404  -19799700.91449 -15418691.57447                  21849024.2014
        49.2504         35.5004
  20358788.0414  -15872167.64549 -12327327.05948                  20358785.7874
        49.5004         41.7504
  20680703.5624  -14435258.96549 -11237836.25048                  20680699.3144
        47.5004         40.0004
  23591084.1654   -2606867.78149  -2031333.81247                  23591083.6624
        41.7504         28.2504
  23564708.8104  -15110651.93049 -11769722.57847                  23564708.9244
        44.0004         27.5004
  24703423.0354   -4620125.14549  -3596531.16446                  24703422.6214
        40.0004         19.0004
 04  7 12 22 31 45.0000000  0  8G 1G11G16G20G23G25G13G 4
  20933119.4784  -15331276.67649 -11932857.32848                  20933118.4344
        52.0004         41.2504
  24455863.2494   -2345684.91049  -1828453.94546                  24455863.2444
        38.2504         22.5004
  21836147.5524  -19867381.31649 -15471429.54747                  21836144.8014
        49.5004         35.5004
  20349362.9044  -15921696.73849 -12365921.16448                  20349360.3174
        50.0004         41.5004
  20670753.1194  -14487550.24249 -11278582.70348                  20670748.5564
        48.2504         40.2504
  23589804.3784   -2613593.69549  -2036574.79747                  23589804.2514
        39.7504         28.7504
  23548423.0314  -15196234.67649 -11836410.39546                  23548422.4984
        44.0004         25.5004
  24690530.5104   -4687875.53149  -3649323.67646                  24690530.4464
        37.7504         20.0004
 04  7 12 22 32  0.0000000  0  8G 1G11G16G20G23G25G13G 4
  20922190.7864  -15388706.56249 -11977607.88748                  20922189.9014
        51.7504         41.2504
  24454474.0274   -2352979.46149  -1834138.06246                  24454475.2624
        36.0004         23.0004
  21823293.3764  -19934929.69149 -15524064.63747                  21823290.9724
        49.5004         36.2504
  20339963.5374  -15971087.99249 -12404407.85948                  20339961.6404
        50.0004         41.2504
  20660813.0614  -14539784.51649 -11319284.73048                  20660808.7774
        49.0004         40.0004
  23588527.2734   -2620305.96549  -2041805.16047                  23588526.6664
        40.5004         29.0004
  23532139.4224  -15281805.37949 -11903088.84446                  23532138.5824
        44.7504         25.0004
  24677661.9684   -4755501.95749  -3702019.60946                  24677661.9224
        37.5004         19.0004
 04  7 12 22 32 15.0000000  0  8G 1G11G16G20G23G25G13G 4
  20911270.1354  -15446095.48849 -12022326.52748                  20911268.8044
        51.7504         42.0004
  24453084.3754   -2360284.46549  -1839830.27746                  24453085.1914
        38.5004         23.0004
  21810464.2084  -20002346.57449 -15576597.27047                  21810461.9514
        49.5004         36.2504
  20330591.3264  -16020341.95749 -12442787.57848                  20330588.5864
        50.0004         41.5004
  20650884.1094  -14591962.31249 -11359942.75848                  20650879.3564
        49.0004         40.7504
  23587252.8004   -2627005.45349  -2047025.57847                  23587251.7684
        40.7504         30.2504
  23515858.3014  -15367364.65249 -11969758.39147                  23515857.6414
        45.0004         26.0004
  24664816.1664   -4823005.10949  -3754619.41446                  24664817.0364
        36.7504         20.0004
 04  7 12 22 32 30.0000000  0  8G 1G11G16G20G23G25G13G 4
  20900356.9964  -15503443.61749 -12067013.38348                  20900355.8084
        51.5004         41.2504
  24451692.8594   -2367600.14548  -1845530.85246                  24451693.1394
        35.5004         22.7504
  21797660.3814  -20069631.88349 -15629027.36747                  21797658.2364
        49.7504         37.5004
  20321244.2764  -16069458.81649 -12481060.45748                  20321242.1904
        49.2504         41.5004
  20640965.6814  -14644083.85949 -11400556.94548                  20640961.3394
        49.5004         41.0004
  23585980.1504   -2633692.70749  -2052236.42647                  23585979.8604
        40.5004         29.7504
  23499578.4464  -15452912.56649 -12036419.07447                  23499578.3574
        44.2504         25.7504
  24651994.2784   -4890385.09049  -3807123.29346                  24651994.6564
        37.5004         19.2504
 04  7 12 22 32 45.0000000  0  8G 1G11G16G20G23G25G13G 4
  20889452.1404  -15560749.08649 -12111666.99648                  20889450.9014
        52.0004         41.5004
  24450298.1764   -2374925.09449  -1851238.67246                  24450299.8574
        36.7504         21.2504
  21784881.7244  -20136783.70349 -15681353.45347                  21784879.6594
        49.5004         36.7504
  20311924.4324  -16118436.66049 -12519225.01248                  20311921.9314
        49.5004         41.2504
  20631058.4344  -14696147.16449 -11441125.75048                  20631054.0054
        49.2504         40.2504
  23584710.6254   -2640365.94149  -2057436.35947                  23584709.5234
        43.0004         30.2504
  23483301.7474  -15538447.48049 -12103069.60546                  23483301.2004
        44.5004         25.2504
  24639196.2004   -4957639.77049  -3859529.50846                  24639196.9934
        36.2504         21.0004
 04  7 12 22 33  0.0000000  0  8G 1G11G16G20G23G25G13G 4
  20878555.1914  -15618013.94149 -12156288.95348                  20878553.7394
        52.0004         41.2504
  24448901.5714   -2382261.80148  -1856955.63746                  24448903.3694
        34.7504         21.7504
  21772128.1334  -20203803.86349 -15733576.94947                  21772126.1634
        49.5004         36.5004
  20302630.3084  -16167277.48049 -12557282.80148                  20302627.8524
        49.2504         42.0004
  20621161.8034  -14748154.46549 -11481650.91848                  20621157.4374
        49.2504         40.5004
  23583442.4374   -2647027.48049  -2062627.19947                  23583442.0434
        42.0004         30.0004
  23467027.5394  -15623971.48849 -12169711.64547                  23467026.3464
        46.0004         26.5004
  24626421.6884   -5024771.34849  -3911839.82846                  24626422.5824
        37.2504         21.2504
 04  7 12 22 33 15.0000000  0  8G 1G11G16G20G23G25G13G 4
  20867665.8354  -15675237.21949 -12200878.52048                  20867664.7014
        51.7504         41.2504
  24447503.8614   -2389609.60548  -1862681.24646                  24447506.0274
        35.5004         22.2504
  21759399.9074  -20270691.14849 -15785696.90247                  21759397.6314
        49.5004         36.0004
  20293362.4054  -16215980.23449 -12595233.00848                  20293360.1524
        50.0004         41.7504
  20611275.9554  -14800104.59449 -11522131.54748                  20611271.5114
        49.0004         40.0004
  23582177.4744   -2653676.48849  -2067808.27047                  23582176.8574
        42.0004         29.5004
  23450755.3194  -15709483.45749 -12236344.33647                  23450753.9184
        45.7504         25.7504
  24613670.8454   -5091778.75049  -3964053.40646                  24613671.3724
        37.0004         21.0004
 04  7 12 22 33 30.0000000  0  8G 1G11G16G20G23G25G13G 4
  20856784.2974  -15732419.39549 -12245436.06248                  20856783.1864
        52.5004         41.7504
  24446104.5194   -2396969.40249  -1868416.21946                  24446105.5464
        39.0004         22.7504
  21746697.1514  -20337445.90249 -15837713.59447                  21746694.7844
        49.2504         36.2504
  20284120.6354  -16264545.33249 -12633075.94548                  20284118.3504
        50.0004         41.7504
  20601400.9304  -14851998.08649 -11562568.03948                  20601396.5294
        48.2504         41.0004
  23580914.1784   -2660313.81649  -2072980.23047                  23580913.8634
        39.7504         29.5004
  23434484.6644  -15794983.98849 -12302968.09047                  23434483.7224
        45.2504         25.7504
  24600942.7774   -5158662.43449  -4016170.52346                  24600943.5304
        37.5004         21.0004
 04  7 12 22 33 45.0000000  0  8G 1G11G16G20G23G25G13G 4
  20845910.6684  -15789561.09049 -12289962.05948                  20845909.4554
        52.5004         42.0004
  24444701.2784   -2404342.18749  -1874161.27046                  24444702.3424
        37.7504         22.0004
  21734018.8534  -20404068.60949 -15889627.37147                  21734017.0134
        49.7504         36.7504
  20274905.0364  -16312973.41449 -12670812.10948                  20274903.1114
        49.5004         41.7504
  20591536.3874  -14903835.67649 -11602960.96548                  20591532.1164
        49.2504         40.7504
  23579653.6374   -2666940.21149  -2078143.68047                  23579652.8494
        41.2504         28.7504
  23418216.5364  -15880473.72349 -12369583.43047                  23418215.9264
        45.5004         26.0004
  24588239.4434   -5225422.81649  -4068191.60946                  24588239.2044
        38.5004         21.0004
 04  7 12 22 34  0.0000000  0  8G 1G11G16G20G23G25G13G 4
  20835045.0044  -15846660.39549 -12334455.01648                  20835043.7644
        52.0004         41.7504
  24443296.4634   -2411726.39849  -1879915.28946                  24443297.3894
        39.0004         23.0004
  21721366.6164  -20470557.19149 -15941436.64847                  21721364.8094
        48.7504         37.2504
  20265716.0684  -16361262.42249 -12708439.91848                  20265713.8694
        50.0004         41.5004
  20581683.3254  -14955615.29749 -11643308.71948                  20581678.9904
        49.0004         41.0004
  23578394.6294   -2673554.08649  -2083297.34847                  23578394.2174
        42.2504         30.0004
  23401950.8934  -15965950.75849 -12436188.88347                  23401949.5874
        45.7504         26.5004
  24575558.6944   -5292058.10949  -4120115.22746                  24575559.3044
        38.0004         20.5004
 04  7 12 22 34 15.0000000  0  8G 1G11G16G20G23G25G13G 4
  20824187.3334  -15903717.62549 -12378915.19148                  20824186.0164
        52.5004         41.2504
  24441888.7484   -2419122.76249  -1885678.73846                  24441889.7794
        39.5004         21.7504
  21708739.8554  -20536911.80549 -15993141.53947                  21708737.6444
        48.0004         37.2504
  20256553.4964  -16409412.74249 -12745959.65248                  20256551.3264
        49.7504         42.2504
  20571840.9714  -15007337.32049 -11683611.59848                  20571836.4274
        47.2504         41.0004
  23577138.1624   -2680156.03549  -2088441.75047                  23577138.1814
        40.7504         29.5004
  23385687.3534  -16051415.48049 -12502784.75847                  23385686.2274
        45.5004         26.2504
  24562901.9874   -5358568.60949  -4171941.53546                  24562902.6204
        37.5004         19.0004
 04  7 12 22 34 30.0000000  0  8G 1G11G16G20G23G25G13G 4
  20813337.7124  -15960733.19149 -12423342.91448                  20813336.7574
        52.5004         41.2504
  24440478.1754   -2426532.12149  -1891452.28946                  24440479.3854
        38.2504         21.7504
  21696138.3734  -20603132.66849 -16044742.19147                  21696136.5504
        46.5004         37.0004
  20247416.8754  -16457424.75849 -12783371.61348                  20247414.9914
        49.7504         42.2504
  20562009.6934  -15059002.17649 -11723869.92248                  20562004.9974
        48.0004         40.5004
  23575884.3404   -2686746.59449  -2093577.25847                  23575883.4664
        40.7504         30.0004
  23369426.0644  -16136868.17249 -12569371.25047                  23369424.3554
        46.5004         26.2504
  24550269.2654   -5424954.52749  -4223670.85546                  24550269.7234
        36.2504         19.0004
 04  7 12 22 34 45.0000000  0  8G 1G11G16G20G23G25G13G 4
  20802495.7454  -16017707.13349 -12467738.18448                  20802494.7364
        51.5004         41.2504
  24439065.4264   -2433954.75049  -1897236.21546                  24439067.4044
        38.0004         21.7504
  21683562.5444  -20669219.79349 -16096238.64547                  21683560.6944
        46.7504         37.0004
  20238306.9694  -16505298.53949 -12820675.86348                  20238304.8274
        49.5004         42.5004
  20552188.6294  -15110609.85549 -11764083.69948                  20552184.2804
        47.7504         40.7504
  23574632.4644   -2693326.17249  -2098704.22747                  23574631.5194
        40.7504         29.2504
  23353167.8694  -16222308.94549 -12635948.44947                  23353166.4674
        46.7504         26.5004
  24537659.9714   -5491215.91448  -4275303.16446                  24537660.2174
        34.5004         17.0004
 04  7 12 22 35  0.0000000  0  8G 1G11G16G20G23G25G13G 4
  20791662.0524  -16074639.76649 -12512101.27348                  20791660.7804
        52.0004         41.5004
  24437651.3464   -2441391.21149  -1903030.90646                  24437652.2034
        40.0004         22.5004
  21671011.6964  -20735173.28949 -16147630.96947                  21671009.6544
        47.5004         37.5004
  20229223.4734  -16553034.26649 -12857872.53548                  20229221.0584
        49.2504         41.5004
  20542378.7944  -15162160.72349 -11804253.20748                  20542374.1904
        48.5004         40.5004
  23573382.2054   -2699895.28949  -2103823.03947                  23573381.4174
        42.5004         29.7504
  23336911.2164  -16307738.10249 -12702516.59447                  23336909.7874
        45.7504         26.5004
  24525074.2354   -5557353.01248  -4326838.54746                  24525075.2044
        33.2504         17.5004
 04  7 12 22 35 15.0000000  0  8G 1G11G16G20G23G25G13G 4
  20780835.8744  -16131531.39849 -12556432.41848                  20780834.7314
        51.5004         41.2504
  24436232.8894   -2448842.35549  -1908837.05546                  24436234.5724
        38.5004         21.7504
  21658486.8544  -20800993.32449 -16198919.30147                  21658484.5504
        45.5004         37.0004
  20220165.2614  -16600632.27349 -12894961.90248                  20220163.2684
        49.2504         41.7504
  20532580.0524  -15213655.07849 -11844378.67248                  20532575.4294
        47.7504         40.7504
  23572133.5034   -2706454.40649  -2108934.05947                  23572133.2784
        41.0004         28.5004
  23320655.9144  -16393156.19949 -12769076.12546                  23320654.7714
        45.2504         25.2504
  24512513.0114   -5623366.04748  -4378277.25046                  24512513.3224
        34.0004         17.7504
 04  7 12 22 35 30.0000000  0  8G 1G11G16G20G23G25G13G 4
  20770017.8614  -16188381.11349 -12600730.89548                  20770016.4854
        52.0004         40.5004
  24434811.8464   -2456307.60249  -1914654.16046                  24434813.5024
        39.0004         21.0004
  21645987.0964  -20866678.67649 -16250102.67247                  21645985.0554
        48.2504         37.0004
  20211134.5084  -16648091.57449 -12931943.18448                  20211132.2604
        49.0004         41.5004
  20522792.1454  -15265091.91449 -11884459.32848                  20522787.5434
        49.7504         41.0004
  23570887.6284   -2713002.91449  -2114036.81247                  23570887.0364
        41.7504         28.5004
  23304404.0864  -16478562.11349 -12835626.17247                  23304401.5774
        46.0004         26.5004
  24499974.6414   -5689254.27048  -4429618.66046                  24499975.1594
        33.0004         17.0004
 04  7 12 22 35 45.0000000  0  8G 1G11G16G20G23G25G13G 4
  20759207.6784  -16245188.64549 -12644996.50048                  20759206.3734
        52.0004         40.2504
  24433389.3924   -2463787.14149  -1920482.39146                  24433390.8224
        39.5004         20.5004
  21633513.4744  -20932229.07849 -16301180.90247                  21633511.1364
        47.2504         37.2504
  20202129.4884  -16695411.86349 -12968816.13348                  20202127.3024
        49.5004         41.5004
  20513014.8144  -15316471.03949 -11924495.00848                  20513010.3504
        48.7504         40.7504
  23569643.3484   -2719540.74249  -2119131.23847                  23569643.0834
        41.7504         28.2504
  23288154.2994  -16563955.66849 -12902166.59447                  23288152.2274
        45.7504         25.7504
  24487459.8834   -5755017.19548  -4480862.50846                  24487460.6494
        33.7504         17.5004
 04  7 12 22 36  0.0000000  0  8G 1G11G16G20G23G25G13G 4
  20748405.8054  -16301953.05949 -12689228.51248                  20748404.5894
        51.7504         40.7504
  24431963.2254   -2471280.21549  -1926321.21146                  24431964.3274
        40.2504         22.2504
  21621065.4374  -20997643.42249 -16352153.10547                  21621063.6544
        48.2504         37.5004
  20193151.7514  -16742592.19949 -13005580.02748                  20193149.2624
        49.7504         41.5004
  20503248.8934  -15367791.60949 -11964485.07448                  20503243.9394
        50.0004         40.5004
  23568401.8404   -2726067.18049  -2124216.79347                  23568401.1654
        42.2504         28.7504
  23271906.5954  -16649335.94549 -12968696.65246                  23271904.7064
        45.7504         24.7504
  24474969.5664   -5820653.92248  -4532008.03146                  24474971.1394
        32.5004         16.2504
 04  7 12 22 36 15.0000000  0  8G 1G11G16G20G23G25G13G 4
  20737611.5764  -16358677.37949 -12733429.28148                  20737610.3604
        52.0004         40.7504
  24430534.1304   -2478790.39549  -1932173.33246                  24430534.9804
        39.5004         19.2504
  21608642.8734  -21062924.63749 -16403021.57047                  21608640.7954
        48.0004         37.0004
  20184199.8644  -16789635.66849 -13042237.28148                  20184197.2004
        49.5004         42.0004
  20493493.3594  -15419056.55949 -12004431.78148                  20493489.0014
        49.5004         40.2504
  23567161.5324   -2732585.46949  -2129295.99647                  23567160.7764
        41.2504         28.7504
  23255661.3644  -16734706.12149 -13035218.84046                  23255659.3354
        45.5004         24.2504
  24462501.0164   -5886167.45348  -4583057.48446                  24462504.0504
        31.2504         18.2504
 04  7 12 22 36 30.0000000  0  8G 1G11G16G20G23G25G13G 4
  20726825.2244  -16415359.54749 -12777597.20348                  20726823.9854
        52.0004         41.0004
  24429102.6574   -2486315.94549  -1938037.46946                  24429102.8874
        39.7504         18.2504
  21596245.7804  -21128070.48849 -16453784.55547                  21596243.9854
        48.5004         37.2504
  20175273.8254  -16836540.09049 -13078786.18048                  20175271.6964
        50.0004         41.5004
  20483749.1714  -15470263.76249 -12044333.50048                  20483744.6784
        50.2504         40.5004
  23565923.4644   -2739093.86349  -2134367.49647                  23565922.0994
        41.5004         28.0004
  23239418.6514  -16820063.99249 -13101731.46547                  23239415.6814
        45.7504         25.7504
  24450059.8674   -5951555.64848  -4634009.33246                  24450060.6164
        30.7504         19.5004
 04  7 12 22 36 45.0000000  0  8G 1G11G16G20G23G25G13G 4
  20716046.9544  -16471999.34449 -12821732.10548                  20716045.7944
        51.2504         41.0004
  24427667.5114   -2493856.89849  -1943913.57046                  24427667.8804
        39.5004         20.5004
  21583875.3424  -21193080.52749 -16504441.71947                  21583873.3784
        49.0004         37.0004
  20166374.8524  -16883305.33649 -13115226.63748                  20166372.1054
        50.0004         41.2504
  20474015.8164  -15521412.98049 -12084190.03548                  20474011.0274
        50.0004         41.5004
  23564686.0514   -2745592.52349  -2139431.41047                  23564685.6544
        42.5004         28.0004
  23223177.4144  -16905409.43749 -13168234.38346                  23223175.8874
        44.0004         24.0004
  24437640.9844   -6016818.35248  -4684863.37146                  24437641.7744
        32.5004         19.5004
 04  7 12 22 37  0.0000000  0  8G 1G11G16G20G23G25G13G 4
  20705276.5564  -16528596.76649 -12865834.00048                  20705275.7004
        52.0004         42.0004
  24426228.9884   -2501413.75049  -1949802.06246                  24426229.8994
        40.0004         19.2504
  21571530.0054  -21257954.68449 -16554992.99647                  21571527.9694
        48.0004         37.5004
  20157502.3494  -16929931.31249 -13151558.57048                  20157499.9224
        49.5004         41.5004
  20464293.5694  -15572504.19549 -12124001.37148                  20464288.6534
        51.0004         41.7504
  23563451.0814   -2752081.58649  -2144487.82847                  23563450.9374
        40.5004         28.0004
  23206939.0464  -16990742.46149 -13234727.59046                  23206937.2494
        44.7504         22.5004
  24425246.3394   -6081955.42248  -4735619.53546                  24425246.5644
        33.0004         20.5004
 04  7 12 22 37 15.0000000  0  8G 1G11G16G20G23G25G13G 4
  20694514.8624  -16585152.79749 -12909903.63348                  20694513.5514
        52.2504         41.5004
  24424788.2874   -2508987.68449  -1955703.84046                  24424788.7524
        40.0004         18.2504
  21559210.4934  -21322693.80949 -16605439.05147                  21559208.3474
        48.0004         37.2504
  20148655.5854  -16976418.90649 -13187782.66848                  20148653.3724
        50.0004         41.5004
  20454581.8704  -15623538.60949 -12163768.44548                  20454577.0834
        50.0004         41.7504
  23562219.0444   -2758562.11349  -2149537.61347                  23562218.1744
        42.2504         28.2504
  23190703.3834  -17076064.00449 -13301211.89546                  23190700.7304
        45.7504         22.7504
  24412874.2174   -6146967.69148  -4786278.42646                  24412874.6284
        32.0004         19.2504
 04  7 12 22 37 30.0000000  0  8G 1G11G16G20G23G25G13G 4
  20683760.3734  -16641666.44549 -12953940.23448                  20683759.1654
        51.5004         41.5004
  24423343.4124   -2516578.09449  -1961618.50446                  24423344.3334
        39.5004         20.5004
  21546917.4284  -21387296.73449 -16655778.97747                  21546914.8284
        48.2504         37.0004
  20139835.9544  -17022767.16849 -13223898.20348                  20139834.1404
        50.7504         42.0004
  20444881.1114  -15674514.99249 -12203490.30548                  20444877.2344
        51.0004         41.5004
  23560986.6774   -2765033.35249  -2154580.16847                  23560986.1774
        43.2504         28.5004
  23174469.4094  -17161373.03549 -13367686.46546                  23174466.7834
        44.5004         23.0004
  24400527.3264   -6211854.30148  -4836839.44946                  24400526.9804
        33.5004         18.2504
 04  7 12 22 37 45.0000000  0  8G 1G11G16G20G23G25G13G 4
  20673014.3134  -16698137.72349 -12997943.82848                  20673012.8274
        51.5004         41.0004
  24421896.2744   -2524185.52049  -1967546.43446                  24421897.2814
        40.7504         20.5004
  21534649.4734  -21451763.49649 -16706012.80947                  21534647.2674
        48.7504         37.5004
  20131042.8014  -17068976.07449 -13259905.14148                  20131040.0924
        50.2504         41.7504
  20435191.7934  -15725433.40649 -12243166.99248                  20435187.1104
        51.0004         41.0004
  23559757.3964   -2771495.54349  -2159615.65247                  23559756.3154
        42.2504         27.2504
  23158237.1274  -17246669.70349 -13434151.37946                  23158236.3374
        44.5004         23.0004
  24388203.4494   -6276615.20748  -4887302.48446                  24388204.0074
        35.7504         17.7504
 04  7 12 22 38  0.0000000  0  8G 1G11G16G20G23G25G13G 4
  20662276.5004  -16754566.68749 -13041914.44948                  20662274.8384
        52.2504         40.7504
  24420445.4844   -2531810.23049  -1973487.80946                  24420445.8684
        41.2504         21.0004
  21522407.4834  -21516093.82849 -16756140.32847                  21522405.3364
        48.5004         36.7504
  20122275.9034  -17115045.80549 -13295803.64148                  20122273.6404
        50.0004         41.2504
  20425513.3954  -15776293.93449 -12282798.57048                  20425508.8084
        50.5004         41.0004
  23558529.2174   -2777949.18049  -2164644.48447                  23558528.7554
        42.7504         28.7504
  23142008.6354  -17331954.06649 -13500606.68047                  23142008.0854
        45.2504         26.5004
  24375902.9444   -6341250.45748  -4937667.54746                  24375904.1354
        34.7504         17.0004
 04  7 12 22 38 15.0000000  0  8G 1G11G16G20G23G25G13G 4
  20651546.2164  -16810953.62549 -13085852.31648                  20651544.8094
        52.2504         41.2504
  24418991.3304   -2539452.95749  -1979443.24246                  24418990.7634
        42.2504         21.0004
  21510191.5624  -21580287.93449 -16806161.69147                  21510189.8144
        48.0004         37.2504
  20113535.9144  -17160976.51249 -13331593.81248                  20113533.1804
        50.2504         41.2504
  20415845.6544  -15827096.71549 -12322385.14548                  20415841.3874
        50.5004         41.0004
  23557302.7184   -2784394.62149  -2169666.92647                  23557302.2464
        42.7504         29.5004
  23125781.8664  -17417226.44149 -13567052.67246                  23125780.0584
        43.5004         24.5004
  24363627.3384   -6405760.30548  -4987934.98846                  24363628.0224
        35.0004         18.2504
 04  7 12 22 38 30.0000000  0  8G 1G11G16G20G23G25G13G 4
  20640824.3684  -16867297.95349 -13129756.98048                  20640822.8304
        51.7504         41.0004
  24417533.1504   -2547113.48049  -1985412.50446                  24417533.2114
        40.0004         20.0004
  21498002.5664  -21644345.05149 -16856076.32447                  21498000.1084
        48.7504         37.2504
  20104821.7974  -17206767.66849 -13367275.23048                  20104819.5394
        50.7504         41.2504
  20406189.5054  -15877841.36349 -12361926.43048                  20406184.8644
        51.2504         41.0004
  23556078.0214   -2790831.58249  -2174682.78147                  23556077.2704
        42.2504         27.2504
  23109556.9384  -17502486.30949 -13633488.93046                  23109554.7834
        44.0004         24.5004
  24351375.2074   -6470144.22748  -5038104.28546                  24351375.6104
        35.2504         15.5004
 04  7 12 22 38 45.0000000  0  8G 1G11G16G20G23G25G13G 4
  20630110.6444  -16923599.39549 -13173628.23448                  20630108.8344
        52.5004         41.0004
  24416071.6544   -2554791.73849  -1991395.63746                  24416072.2504
        39.0004         17.5004
  21485838.6364  -21708264.89549 -16905883.97347                  21485836.4894
        48.2504         37.0004
  20096135.0424  -17252418.89849 -13402847.61748                  20096132.1004
        49.7504         41.7504
  20396544.4854  -15928527.55149 -12401422.16448                  20396539.9514
        51.0004         41.5004
  23554854.3634   -2797259.97749  -2179691.92247                  23554854.4404
        42.7504         27.0004
  23093335.4434  -17587733.30149 -13699915.13747                  23093334.0904
        45.0004         26.0004
  24339148.3164   -6534401.66449  -5088174.95346                  24339147.0494
        36.5004         15.5004
 04  7 12 22 39  0.0000000  0  8G 1G11G16G20G23G25G13G 4
  20619404.9994  -16979858.14849 -13217466.22748                  20619403.5764
        52.0004         41.0004
  24414607.0324   -2562488.35249  -1997393.08246                  24414607.9014
        39.5004         19.0004
  21473700.6904  -21772047.55549 -16955584.73847                  21473699.2284
        48.2504         37.0004
  20087473.9474  -17297930.50449 -13438311.20748                  20087471.7304
        50.0004         41.5004
  20386910.2014  -15979155.41049 -12440872.43448                  20386905.7624
        51.0004         41.5004
  23553633.0634   -2803680.25849  -2184694.76247                  23553632.5104
        42.7504         26.7504
  23077115.8034  -17672967.75049 -13766331.57046                  23077114.3544
        44.5004         25.5004
  24326944.9394   -6598533.09449  -5138147.48046                  24326943.2864
        37.2504         18.5004
 04  7 12 22 39 15.0000000  0  8G 1G11G16G20G23G25G13G 4
  20908500.2294  -17036070.53549 -13261268.07848                  20908498.8574
        51.5004         41.0004
  24712932.1354   -2570203.35949  -2003404.80946                  24712931.6634
        38.7504         17.7504
  21761382.8804  -21835688.71549 -17005175.23447                  21761381.0844
        47.5004         36.7504
  20378633.0964  -17343299.43049 -13473663.62548                  20378630.8344
        50.2504         41.7504
  20677079.9844  -16029721.72349 -12480274.76248                  20677075.7904
        50.2504         41.0004
  23852204.6814   -2810092.32449  -2189691.19547                  23852204.8614
        42.5004         26.7504
  23360692.0164  -17758184.01649 -13832733.83246                  23360689.6264
        44.7504         23.0004
  24614559.0704   -6662534.24248  -5188018.51646                  24614557.4184
        35.2504         21.0004
 04  7 12 22 39 30.0000000  0  8G 1G11G16G20G23G25G13G 4
  20897810.5724  -17092245.32049 -13305040.64548                  20897808.8174
        51.2504         41.0004
  24711460.5574   -2577939.32449  -2009432.82046                  24711459.7254
        41.0004         17.0004
  21749297.9364  -21899197.96549 -17054662.95747                  21749295.6934
        47.0004         37.0004
  20370025.5304  -17388533.09449 -13508910.62948                  20370022.9404
        50.2504         42.0004
  20667467.5524  -16080234.58649 -12519635.43448                  20667463.0914
        49.5004         41.0004
  23850985.9204   -2816498.48449  -2194683.00847                  23850985.5654
        42.7504         27.0004
  23344476.9294  -17843394.72349 -13899131.78547                  23344475.3644
        43.2504         26.5004
  24602402.4454   -6726414.75448  -5237795.53946                  24602401.4504
        35.7504         21.0004
 04  7 12 22 39 45.0000000  0  8G 1G11G16G20G23G25G13G 4
  20887129.0214  -17148378.87949 -13348781.08248                  20887127.2784
        52.0004         40.7504
  24709984.0674   -2585696.19949  -2015477.20346                  24709983.8744
        40.2504         18.5004
  21737238.2704  -21962570.94549 -17104044.48447                  21737236.1874
        49.0004         37.5004
  20361443.8184  -17433628.63749 -13544050.02348                  20361441.5874
        49.7504         41.2504
  20657866.1584  -16130690.61349 -12558951.82048                  20657862.1344
        50.7504         41.0004
  23849767.6214   -2822898.66449  -2199670.17647                  23849767.4834
        43.0004         26.5004
  23328264.3394  -17928594.26249 -13965520.98847                  23328263.0374
        44.2504         27.0004
  24590270.2904   -6790170.68049  -5287475.49246                  24590269.4464
        36.5004         21.7504
 04  7 12 22 40  0.0000000  0  9G 1G11G16G20G23G25G13G 4G27
  20876454.8984  -17204470.03949 -13392488.46948                  20876453.9164
        51.5004         41.2504
  24708503.9704   -2593473.28549  -2021537.30546                  24708504.2584
        41.0004         19.0004
  21725204.4194  -22025806.58649 -17153318.99247                  21725202.9164
        48.7504         37.5004
  20352889.4004  -17478584.77749 -13579080.79348                  20352887.1284
        49.5004         41.2504
  20648275.9284  -16181088.63349 -12598223.01248                  20648271.4144
        51.0004         41.2504
  23848551.5464   -2829292.05549  -2204652.05547                  23848550.3544
        43.0004         27.2504
  23312053.0564  -18013781.65649 -14031900.74247                  23312051.9564
        44.0004         26.7504
  24578161.1094   -6853800.69949  -5337057.31646                  24578160.7054
        38.5004         21.5004
  24866340.8384     -36331.12159
        38.0004
 04  7 12 22 40 15.0000000  0  9G 1G11G16G20G23G25G13G 4G27
  20865789.0584  -17260518.03549 -13436162.23048                  20865788.3684
        51.5004         41.0004
  24707020.7604   -2601270.21949  -2027612.90246                  24707021.1944
        40.7504         20.5004
  21713197.6984  -22088903.83249 -17202485.66447                  21713195.9734
        49.0004         37.7504
  20344361.3064  -17523400.79749 -13614002.37148                  20344358.9074
        49.5004         41.7504
  20638696.5264  -16231427.78549 -12637448.32048                  20638692.3564
        50.5004         41.0004
  23847335.7094   -2835677.95749  -2209628.09447                  23847335.8494
        43.0004         26.7504
  23295845.6634  -18098955.99649 -14098270.34047                  23295843.5774
        45.0004         26.5004
  24566076.8264   -6917304.02349  -5386540.42646                  24566076.5474
        39.7504         21.7504
  24849061.5444    -127129.48049    -93915.36756                  24849063.8664
        39.2504         21.5004
 04  7 12 22 40 30.0000000  0  9G 1G11G16G20G23G25G13G 4G27
  20855131.7304  -17316525.35249 -13479804.30148                  20855130.1854
        51.0004         41.5004
  24705531.8694   -2609089.78949  -2033706.14846                  24705533.2924
        41.0004         20.0004
  21701216.8874  -22151865.16449 -17251546.43047                  21701214.3704
        49.0004         37.7504
  20335859.2114  -17568079.16449 -13648816.67648                  20335856.7574
        50.0004         41.2504
  20629128.0634  -16281710.65249 -12676629.77748                  20629123.7424
        51.2504         41.0004
  23846121.9794   -2842059.09849  -2214600.43046                  23846121.4204
        43.5004         25.5004
  23279639.1354  -18184119.95349 -14164631.86347                  23279637.4734
        44.7504         26.2504
  24554017.3204   -6980683.24649  -5435926.80146                  24554016.4634
        38.7504         21.5004
  24831790.7264    -217891.35549   -164638.85946                  24831792.6154
        39.2504         20.5004
 04  7 12 22 40 45.0000000  0  9G 1G11G16G20G23G25G13G 4G27
  20844481.6834  -17372490.74249 -13523413.68748                  20844480.3074
        51.5004         40.7504
  24704040.7124   -2616931.06649  -2039816.29346                  24704040.7694
        42.5004         21.7504
  21689261.5444  -22214689.23049 -17300500.23047                  21689259.6504
        50.2504         37.7504
  20327383.4284  -17612618.70749 -13683522.82048                  20327381.3454
        50.2504         41.5004
  20619570.7274  -16331935.95349 -12715766.37148                  20619566.2394
        51.0004         41.0004
  23844908.6844   -2848434.49249  -2219568.28947                  23844908.5654
        42.0004         27.2504
  23263434.6614  -18269272.19549 -14230984.23047                  23263433.7734
        44.0004         25.7504
  24541979.9304   -7043936.98849  -5485215.41446                  24541979.5094
        37.0004         21.2504
  24814526.4694    -308615.53149   -235332.96946                  24814528.2514
        38.7504         20.0004
 04  7 12 22 41  0.0000000  0  9G 1G11G16G20G23G25G13G 4G27
  20833839.2274  -17428414.69549 -13566990.80148                  20833838.3124
        51.2504         40.5004
  24702543.9354   -2624794.91449  -2045944.04346                  24702544.4904
        40.5004         21.7504
  21677332.5664  -22277376.33249 -17349347.31247                  21677330.7274
        50.0004         38.0004
  20318934.3314  -17657019.95349 -13718121.18448                  20318931.9664
        50.0004         41.5004
  20610024.4564  -16382104.23849 -12754858.53948                  20610019.4224
        51.2504         41.0004
  23843696.5684   -2854804.91449  -2224532.28547                  23843696.4844
        43.5004         26.7504
  23247233.8774  -18354413.22749 -14297327.86747                  23247231.8394
        45.0004         27.2504
  24529965.6484   -7107065.79348  -5534406.70346                  24529966.6994
        35.0004         20.0004
  24797269.2324    -399302.37149   -305997.94146                  24797271.2374
        40.5004         21.0004
 04  7 12 22 41 15.0000000  0  9G 1G11G16G20G23G25G13G 4G27
  20823205.0974  -17484299.64549 -13610537.50448                  20823203.8804
        51.5004         40.5004
  24701042.5374   -2632684.18049  -2052091.57446                  24701043.7364
        41.2504         20.5004
  21665429.7154  -22339928.80549 -17398089.48847                  21665427.5454
        50.0004         38.0004
  20310510.5824  -17701285.23849 -13752613.61748                  20310508.3744
        49.2504         41.2504
  20600487.5874  -16432217.98049 -12793908.20748                  20600483.1264
        51.5004         41.7504
  23842485.3034   -2861172.91449  -2229494.39847                  23842484.2124
        44.5004         27.0004
  23231033.3734  -18439545.56249 -14363664.74247                  23231031.0934
        45.0004         26.5004
  24517976.0644   -7170072.07848  -5583502.48846                  24517976.4804
        33.7504         20.5004
  24780018.4914    -489954.37549   -376635.86346                  24780020.7064
        39.2504         21.0004
 04  7 12 22 41 30.0000000  0  9G 1G11G16G20G23G25G13G 4G27
  20812577.6824  -17540145.02349 -13654053.37948                  20812576.5544
        52.2504         41.5004
  24699536.9914   -2640598.62549  -2058258.73446                  24699538.0454
        42.5004         21.5004
  21653551.7974  -22402345.95349 -17446726.21547                  21653549.6994
        49.7504         37.7504
  20302113.2324  -17745414.04349 -13786999.69948                  20302111.0404
        50.0004         41.5004
  20590961.6064  -16482276.47749 -12832914.82848                  20590957.3204
        51.0004         41.5004
  23841273.3114   -2867538.16849  -2234454.36347                  23841273.6214
        44.0004         26.5004
  23214834.2544  -18524668.68049 -14429994.39146                  23214832.7984
        44.0004         25.5004
  24506010.2064   -7232955.14148  -5632502.25846                  24506010.7714
        35.7504         20.5004
  24762774.3534    -580570.91449   -447246.06246                  24762777.3554
        40.0004         20.5004
 04  7 12 22 41 45.0000000  0  9G 1G11G16G20G23G25G13G 4G27
  20801958.4004  -17595950.86749 -13697538.45348                  20801956.7294
        51.0004         41.2504
  24698026.0364   -2648538.71149  -2064445.90246                  24698026.7294
        42.0004         20.5004
  21641699.7584  -22464627.86749 -17495257.56647                  21641697.6704
        50.7504         38.0004
  20293742.0644  -17789406.43049 -13821279.48048                  20293739.4894
        50.0004         41.7504
  20581446.2874  -16532279.83649 -12871878.48848                  20581441.9624
        51.2504         41.2504
  23840063.1294   -2873901.12549  -2239412.52347                  23840062.3104
        44.5004         27.5004
  23198638.3544  -18609782.53949 -14496316.85947                  23198636.2814
        43.5004         25.7504
  24494067.3344   -7295715.28949  -5681406.25846                  24494067.7354
        39.0004         21.2504
  24745537.0784    -671151.95749   -517828.67246                  24745539.6074
        39.0004         20.5004
 04  7 12 22 42  0.0000000  0  9G 1G11G16G20G23G25G13G 4G27
  20791346.6424  -17651716.46549 -13740992.16448                  20791345.3824
        50.7504         41.2504
  24696510.3944   -2656503.89849  -2070652.60546                  24696511.3124
        40.7504         21.0004
  21629873.9864  -22526773.63749 -17543682.83247                  21629871.9004
        51.2504         37.2504
  20285396.3774  -17833261.75449 -13855452.45748                  20285394.3614
        50.0004         41.5004
  20571941.9044  -16582227.43049 -12910798.68748                  20571937.1914
        51.0004         41.2504
  23838852.8564   -2880261.30149  -2244368.54747                  23838851.9484
        43.5004         26.0004
  23182443.3664  -18694886.35949 -14562631.50047                  23182441.5774
        41.7504         25.7504
  24482147.8334   -7358351.71949  -5730213.89846                  24482148.3894
        41.2504         21.2504
  24728307.2904    -761696.87149   -588383.05946                  24728309.5964
        39.7504         21.0004
 04  7 12 22 42 15.0000000  0  9G 1G11G16G20G23G25G13G 4G27
  20780742.1194  -17707442.22349 -13784414.83248                  20780741.1024
        51.2504         40.7504
  24694989.1474   -2664495.07849  -2076879.55146                  24694990.3244
        40.0004         20.5004
  21618073.7704  -22588783.55549 -17592002.23847                  21618071.6144
        50.7504         37.2504
  20277077.3494  -17876980.29349 -13889518.85548                  20277075.0814
        49.2504         41.7504
  20562447.5674  -16632119.54349 -12949675.66048                  20562443.0984
        51.2504         41.2504
  23837642.9044   -2886619.16449  -2249322.71947                  23837642.0874
        44.2504         26.7504
  23166250.1524  -18779980.72749 -14628938.77747                  23166248.6374
        42.5004         26.0004
  24470252.8554   -7420864.84849  -5778925.43446                  24470252.0804
        42.5004         22.0004
  24711083.8084    -852205.93749   -658909.56246                  24711085.9364
        40.0004         20.0004
 04  7 12 22 42 30.0000000  0  9G 1G11G16G20G23G25G13G 4G27
  20770145.7214  -17763127.88349 -13827806.25048                  20770144.4774
        51.2504         40.5004
  24693463.9334   -2672512.31249  -2083126.80946                  24693464.8904
        41.0004         20.0004
  21606299.7454  -22650657.27049 -17640215.51247                  21606297.5514
        51.5004         37.0004
  20268783.7004  -17920561.93449 -13923478.57448                  20268781.4834
        50.0004         42.0004
  20552964.1484  -16681955.95349 -12988509.22348                  20552959.4144
        51.0004         40.7504
  23836433.5184   -2892974.77049  -2254275.18747                  23836432.9074
        44.0004         27.2504
  23150058.9674  -18865065.37149 -14695238.47346                  23150057.5934
        42.5004         25.0004
  24458380.1104   -7483254.32449  -5827540.62546                  24458379.8714
        41.5004         22.0004
  24693866.6184    -942678.79749   -729407.85546                  24693869.6604
        39.2504         21.0004
 04  7 12 22 42 45.0000000  0  9G 1G11G16G20G23G25G13G 4G27
  20759557.0774  -17818771.73049 -13871165.09048                  20759555.8044
        51.0004         41.2504
  24691933.1504   -2680554.43749  -2089393.44546                  24691934.6134
        39.7504         19.2504
  21594551.9154  -22712392.96949 -17688321.25047                  21594549.4004
        51.2504         37.7504
  20260516.8384  -17964004.95749 -13957330.28548                  20260514.5354
        49.5004         41.2504
  20543491.3754  -16731734.99649 -13027298.08648                  20543487.1134
        51.5004         40.7504
  23835224.8744   -2899326.64149  -2259224.69547                  23835223.8894
        44.5004         27.5004
  23133870.6764  -18950138.65649 -14761529.29747                  23133868.7744
        43.5004         26.5004
  24446531.5254   -7545518.52349  -5876058.18046                  24446531.4844
        41.2504         21.7504
  24676658.2734   -1033113.87149   -799876.66446                  24676660.2954
        39.5004         20.5004
 04  7 12 22 43  0.0000000  0  9G 1G11G16G20G23G25G13G 4G27
  20748976.4794  -17874373.39149 -13914491.05948                  20748975.1964
        52.0004         41.2504
  24690398.2534   -2688621.20349  -2095679.30946                  24690399.2154
        40.0004         19.0004
  21582830.3964  -22773990.17649 -17736319.06647                  21582828.1874
        51.2504         37.0004
  20252276.4344  -18007309.12949 -13991073.80548                  20252274.0204
        49.0004         41.2504
  20534029.9434  -16781456.30149 -13066041.96148                  20534025.2394
        51.0004         41.0004
  23834017.2354   -2905674.59049  -2264171.17647                  23834016.6254
        45.0004         28.0004
  23117683.6594  -19035200.15649 -14827810.96946                  23117681.7954
        43.0004         25.2504
  24434706.7074   -7607657.21549  -5924477.95746                  24434707.2944
        37.7504         22.0004
  24659456.6744   -1123510.68049   -870315.70346                  24659458.2274
        39.7504         19.2504
 04  7 12 22 43 15.0000000  0  9G 1G11G16G20G23G25G13G 4G27
  20738403.6744  -17929934.18049 -13957785.16848                  20738402.6064
        51.5004         41.5004
  24688858.3274   -2696714.33649  -2101985.69946                  24688859.6104
        39.5004         17.7504
  21571134.6264  -22835450.10549 -17784209.91847                  21571132.7174
        50.2504         37.5004
  20244062.1324  -18050475.67649 -14024710.08248                  20244060.0204
        49.5004         41.7504
  20524578.9334  -16831121.06649 -13104741.77748                  20524574.3464
        50.7504         41.5004
  23832809.6994   -2912020.21949  -2269115.86347                  23832808.5964
        45.0004         28.0004
  23101499.4274  -19120251.34449 -14894084.62147                  23101496.9044
        44.2504         26.7504
  24422905.2334   -7669671.50849  -5972800.77346                  24422905.6374
        36.0004         21.7504
  24642261.7664   -1213870.54749   -940725.89846                  24642263.3024
        38.7504         20.0004
 04  7 12 22 43 30.0000000  0  9G 1G11G16G20G23G25G13G 4G27
  20727839.0584  -17985451.41049 -14001045.34848                  20727837.5704
        50.7504         41.2504
  24687314.3554   -2704831.55949  -2108310.86746                  24687314.3994
        41.0004         19.0004
  21559466.1504  -22896770.10249 -17831991.72747                  21559463.5774
        50.2504         37.0004
  20235874.5224  -18093501.96549 -14058237.06648                  20235871.9384
        50.2504         41.2504
  20515139.3494  -16880726.67249 -13143395.48848                  20515135.0664
        51.0004         40.7504
  23831602.3384   -2918361.13349  -2274056.84047                  23831602.2464
        43.2504         27.5004
  23085317.2754  -19205289.42649 -14960348.03547                  23085315.7444
        43.2504         26.5004
  24411129.1874   -7731558.77348  -6021024.59846                  24411129.5574
        34.5004         21.5004
  24625074.2374   -1304190.59049  -1011105.12146                  24625076.0364
        40.0004         21.0004
 04  7 12 22 43 45.0000000  0  9G 1G11G16G20G23G25G13G 4G27
  20717282.7464  -18040925.88349 -14044272.19948                  20717280.9864
        50.7504         41.0004
  24685764.2734   -2712974.10249  -2114655.76646                  24685765.8544
        40.7504         21.0004
  21547823.8624  -22957950.71149 -17879664.92647                  21547821.0854
        50.0004         37.2504
  20227713.3984  -18136388.80949 -14091655.39148                  20227710.9744
        49.7504         41.2504
  20505710.6284  -16930273.97349 -13182003.77348                  20505706.5324
        51.0004         40.7504
  23830397.1204   -2924698.27349  -2278994.90247                  23830396.5164
        45.0004         27.2504
  23069136.9864  -19290315.14549 -15026601.78947                  23069135.3984
        42.5004         26.5004
  24399376.4574   -7793319.82048  -6069150.08646                  24399376.9254
        34.5004         22.7504
  24607894.2574   -1394471.79749  -1081454.10946                  24607896.1274
        39.7504         21.2504
 04  7 12 22 44  0.0000000  0  8G 1G16G20G23G25G13G 4G27
  20706734.0284  -18096358.48849 -14087466.43448                  20706732.6894
        51.0004         41.0004
  21536207.8524  -23018992.84849 -17927230.22347                  21536205.3574
        49.2504         37.0004
  20219578.6914  -18179137.14149 -14124965.79348                  20219576.3374
        49.0004         41.5004
  20496293.1344  -16979763.87549 -13220567.33248                  20496288.8824
        50.5004         41.0004
  23829190.7584   -2931032.78549  -2283930.89547                  23829190.9794
        43.5004         27.5004
  23052959.2914  -19375329.55949 -15092846.77747                  23052957.9194
        45.0004         28.0004
  24387647.6284   -7854955.75849  -6117178.08646                  24387648.1384
        36.0004         22.2504
  24590721.1444   -1484714.95749  -1151773.37146                  24590723.8644
        37.5004         21.7504
 04  7 12 22 44 15.0000000  0  8G 1G16G20G23G25G13G 4G27
  20696193.7844  -18151746.94549 -14130626.27048                  20696192.5694
        51.0004         41.0004
  21524618.9624  -23079894.06649 -17974685.70747                  21524616.0884
        50.0004         36.0004
  20211470.5074  -18221744.62949 -14158166.44148                  20211468.4914
        49.5004         41.2504
  20486887.0014  -17029193.93449 -13259084.25848                  20486882.3354
        51.0004         41.0004
  23827985.8904   -2937362.52349  -2288863.18447                  23827986.6504
        43.5004         27.2504
  23036784.5154  -19460330.21949 -15159081.03547                  23036783.2634
        42.0004         28.0004
  24375942.8154   -7916464.03549  -6165106.60546                  24375943.5044
        38.0004         22.5004
  24573556.9974   -1574917.81249  -1222061.25046                  24573558.1974
        39.0004         22.2504
 04  7 12 22 44 30.0000000  0  8G 1G16G20G23G25G13G 4G27
  20685662.4054  -18207092.41849 -14173752.60948                  20685661.0554
        52.0004         41.0004
  21513056.0214  -23140655.46549 -18022032.24647                  21513053.4754
        50.0004         36.7504
  20203389.2544  -18264212.57049 -14191258.34448                  20203387.1964
        49.7504         41.7504
  20477491.6354  -17078565.48449 -13297555.59848                  20477487.5664
        50.7504         40.7504
  23826782.9724   -2943689.00449  -2293792.93747                  23826782.8204
        45.2504         28.7504
  23020611.5834  -19545318.55149 -15225305.66447                  23020610.1314
        45.5004         27.7504
  24364261.9024   -7977845.94149  -6212936.67646                  24364262.9604
        42.0004         22.7504
  24556399.0054   -1665081.55949  -1292318.66446                  24556400.6004
        37.5004         22.0004
 04  7 12 22 44 45.0000000  0  8G 1G16G20G23G25G13G 4G27
  20675138.9344  -18262392.85249 -14216843.84448                  20675137.2974
        51.2504         41.0004
  21501520.5824  -23201274.93449 -18069268.18747                  21501518.5244
        49.0004         36.5004
  20195334.7864  -18306538.91449 -14224239.91448                  20195332.5934
        50.0004         41.0004
  20468108.2334  -17127876.41849 -13335979.69148                  20468103.9404
        50.5004         41.0004
  23825579.7774   -2950010.37549  -2298718.71547                  23825579.8314
        43.5004         27.7504
  23004441.7384  -19630292.39849 -15291519.04747                  23004440.5954
        44.5004         27.0004
  24352606.2274   -8039099.43749  -6260666.68446                  24352606.2824
        36.5004         22.5004
  24539249.1334   -1755203.92249  -1362543.81246                  24539251.1194
        37.7504         21.7504
 04  7 12 22 45  0.0000000  0  8G 1G16G20G23G25G13G 4G27
  20664624.3634  -18317647.13749 -14259899.13348                  20664622.7364
        51.2504         41.0004
  21490012.1624  -23261751.16849 -18116392.51247                  21490010.0164
        49.7504         35.7504
  20187307.6554  -18348722.63749 -14257110.34848                  20187305.4184
        50.0004         41.7504
  20458736.2394  -17177125.62149 -13374355.70348                  20458732.0364
        49.7504         40.7504
  23824378.5134   -2956325.62149  -2303639.70347                  23824378.5374
        45.0004         28.5004
  22988274.5784  -19715250.60949 -15357720.21947                  22988273.4974
        45.0004         28.7504
  24340974.4984   -8100223.48849  -6308295.82846                  24340974.4494
        40.0004         22.7504
  24522106.8764   -1845283.80549  -1432735.87946                  24522109.3164
        38.2504         21.5004
 04  7 12 22 45 15.0000000  0  8G 1G16G20G23G25G13G 4G27
  20654118.1104  -18372856.23449 -14302919.21148                  20654117.1034
        50.2504         40.5004
  21478531.2924  -23322085.16049 -18163406.01647                  21478528.5104
        49.5004         36.2504
  20179307.4864  -18390764.59049 -14289870.31248                  20179305.2884
        50.0004         41.2504
  20449375.9744  -17226313.99649 -13412684.30148                  20449371.8854
        50.7504         41.0004
  23823177.5874   -2962635.92649  -2308556.86347                  23823176.9624
        44.5004         27.0004
  22972110.0374  -19800194.20349 -15423909.98447                  22972109.3134
        43.2504         28.5004
  24329367.3984   -8161219.03949  -6355824.83646                  24329366.8404
        41.7504         22.0004
  24504973.2134   -1935322.14848  -1502895.61346                  24504975.4884
        35.7504         21.2504
 04  7 12 22 45 30.0000000  0  8G 1G16G20G23G25G13G 4G27
  20643621.4874  -18428018.85549 -14345903.06248                  20643620.1144
        51.0004         41.0004
  21467077.1264  -23382275.50849 -18210307.57847                  21467074.6104
        50.0004         36.5004
  20171334.3144  -18432663.64149 -14322518.92248                  20171332.3794
        49.7504         42.0004
  20440027.6034  -17275440.43049 -13450964.63748                  20440023.0774
        50.5004         41.2504
  23821977.2854   -2968940.47349  -2313469.52347                  23821977.5754
        43.0004         27.5004
  22955949.2764  -19885121.92249 -15490087.41047                  22955948.0744
        44.7504         28.0004
  24317785.0054   -8222084.71149  -6403252.64846                  24317784.4034
        41.0004         22.0004
  24487848.2264   -2025317.83649  -1573022.05146                  24487850.2284
        37.7504         21.0004
 04  7 12 22 45 45.0000000  0  8G 1G16G20G23G25G13G 4G27
  20633132.5604  -18483136.42649 -14388851.82048                  20633131.3694
        51.5004         41.5004
  21455650.5424  -23442323.60949 -18257098.30147                  21455647.7334
        49.5004         35.7504
  20163387.8284  -18474421.29749 -14355057.35548                  20163385.9624
        50.7504         41.5004
  20430690.6614  -17324506.14849 -13489197.66848                  20430685.9804
        51.5004         41.2504
  23820779.2424   -2975240.82449  -2318378.91047                  23820778.8114
        43.5004         28.0004
  22939790.5244  -19970035.17249 -15556253.55547                  22939789.7564
        45.0004         29.0004
  24306227.0924   -8282822.19949  -6450580.55946                  24306226.7764
        38.5004         21.7504
  24470730.1254   -2115272.15649  -1643116.30546                  24470731.3644
        36.2504         19.5004
 04  7 12 22 46  0.0000000  0  8G 1G16G20G23G25G13G 4G27
  20622653.2334  -18538207.33249 -14431764.21548                  20622651.4454
        50.7504         41.2504
  21444250.8854  -23502227.71549 -18303776.81647                  21444248.6074
        49.5004         35.7504
  20155468.5234  -18516035.92649 -14387484.34848                  20155466.9114
        50.0004         41.2504
  20421365.3964  -17373509.59449 -13527382.16848                  20421361.5844
        51.5004         41.2504
  23819581.0824   -2981535.40649  -2323283.79747                  23819580.5434
        44.0004         28.0004
  22923635.0104  -20054932.39849 -15622407.18747                  22923634.9844
        42.5004         29.0004
  24294694.6634   -8343429.73849  -6497807.18746                  24294694.1354
        40.0004         22.2504
  24453620.7564   -2205183.46548  -1713176.94146                  24453622.2804
        35.5004         19.2504
 04  7 12 22 46 15.0000000  0  8G 1G16G20G23G25G13G 4G27
  20612182.5974  -18593231.94949 -14474640.53148                  20612180.9414
        52.0004         41.0004
  21432878.9764  -23561988.24649 -18350343.45747                  21432876.5824
        49.5004         35.5004
  20147577.1934  -18557507.96949 -14419800.22748                  20147574.6934
        49.5004         41.5004
  20412052.6994  -17422451.10949 -13565518.41848                  20412048.3084
        51.0004         41.0004
  23818383.7924   -2987824.98849  -2328184.78947                  23818383.9864
        43.2504         27.7504
  22907482.4064  -20139814.09449 -15688548.72747                  22907481.7494
        45.5004         28.5004
  24283185.6194   -8403907.82849  -6544932.98446                  24283185.3634
        41.0004         23.5004
  24436518.6714   -2295052.12548  -1783204.46146                  24436520.3224
        34.7504         18.5004
 04  7 12 22 46 30.0000000  0  8G 1G16G20G23G25G13G 4G27
  20601720.0344  -18648211.04749 -14517481.38748                  20601718.7374
        51.0004         41.2504
  21421533.8774  -23621605.82449 -18396798.69947                  21421531.4134
        49.0004         35.0004
  20139712.3204  -18598838.28149 -14452005.66848                  20139709.8334
        50.2504         41.7504
  20402750.7694  -17471331.61349 -13603607.11348                  20402746.4814
        51.0004         41.2504
  23817187.8534   -2994110.46149  -2333082.60947                  23817188.2864
        43.5004         26.2504
  22891332.7984  -20224680.98049 -15754678.74247                  22891332.1584
        44.5004         29.5004
  24271701.5484   -8464257.33649  -6591958.58246                  24271702.0124
        42.7504         23.0004
  24419424.7694   -2384879.01648  -1853199.39146                  24419427.1904
        33.2504         17.7504
 04  7 12 22 46 45.0000000  0  8G 1G16G20G23G25G13G 4G27
  20591266.5584  -18703145.32049 -14560287.30948                  20591265.1274
        51.0004         40.7504
  21410216.2284  -23681080.94549 -18443142.94547                  21410213.5254
        48.7504         35.0004
  20131874.2294  -18640027.55149 -14484101.20348                  20131871.9894
        50.5004         41.2504
  20393460.5244  -17520151.68449 -13641648.73448                  20393456.5094
        51.2504         41.7504
  23815992.6354   -3000392.79349  -2337977.95346                  23815991.4534
        43.0004         25.0004
  22875186.0054  -20309533.68749 -15820797.68747                  22875185.0984
        44.5004         29.2504
  24260241.3144   -8524478.87549  -6638884.43446                  24260242.2524
        43.0004         24.5004
  24402339.6154   -2474664.53949  -1923162.10246                  24402341.3264
        37.5004         17.5004
 04  7 12 22 47  0.0010000  0  8G 1G16G20G23G25G13G 4G27
  20880614.0934  -18758033.89549 -14603057.62148                  20880612.7764
        51.5004         41.0004
  21698717.9784  -23740412.80949 -18489375.55947                  21698716.0184
        50.0004         35.0004
  20423855.4544  -18681074.97749 -14516086.21548                  20423853.2714
        49.7504         41.5004
  20683974.5494  -17568910.50449 -13679642.61748                  20683970.5614
        51.0004         41.2504
  24114590.4584   -3006671.40249  -2342870.39147                  24114589.5994
        42.7504         26.0004
  23158834.3094  -20394371.39149 -15886904.95747                  23158834.0284
        44.5004         30.0004
  24548599.0304   -8584571.48849  -6685709.85946                  24548599.1404
        43.0004         25.0004
  24685054.8974   -2564408.00449  -1993092.07846                  24685056.5004
        38.2504         19.2504
 04  7 12 22 47 15.0000000  0  8G 1G16G20G23G25G13G 4G27
  20870177.9764  -18812874.57849 -14645790.60948                  20870176.6984
        50.5004         41.0004
  21687455.6694  -23799598.83249 -18535494.52747                  21687452.8904
        48.5004         35.5004
  20416071.7154  -18721979.39149 -14547959.78948                  20416069.3814
        48.2504         41.5004
  20674708.3444  -17617606.26649 -13717587.35948                  20674703.8314
        50.7504         40.5004
  24113396.2564   -3012947.55949  -2347760.93447                  24113395.8914
        42.2504         26.5004
  23142693.1924  -20479189.99649 -15952997.32447                  23142693.2254
        44.2504         28.5004
  24537189.3304   -8644532.92649  -6732433.04746                  24537188.4824
        43.5004         24.2504
  24667986.4634   -2654104.94149  -2062985.73846                  24667987.8544
        39.5004         20.0004
 04  7 12 22 47 30.0000000  0  8G 1G16G20G23G25G13G 4G27
  20859749.9434  -18867675.30549 -14688492.47348                  20859748.4714
        49.0004         41.0004
  21676219.2684  -23858647.58649 -18581506.52747                  21676216.3324
        49.2504         35.0004
  20408313.7114  -18762746.93749 -14579726.71148                  20408311.6664
        47.5004         41.2504
  20665452.1904  -17666246.09049 -13755488.51648                  20665447.9454
        51.0004         41.2504
  24112201.9864   -3019223.00849  -2352650.90646                  24112201.2154
        43.2504         25.0004
  23126554.6794  -20564001.36349 -16019084.07047                  23126553.9154
        43.5004         29.2504
  24525801.5694   -8704371.85249  -6779060.76246                  24525801.6054
        43.2504         23.0004
  24650923.4624   -2743767.72749  -2132852.79346                  24650926.0644
        38.5004         21.5004
 04  7 12 22 47 45.0000000  0  8G 1G16G20G23G25G13G 4G27
  20849329.8204  -18922431.86749 -14731159.92248                  20849328.6764
        49.7504         41.0004
  21665009.3524  -23917554.33649 -18627407.87547                  21665007.2734
        48.2504         35.7504
  20400582.7364  -18803374.33249 -14611384.43048                  20400580.7834
        48.0004         41.2504
  20656207.7924  -17714826.20349 -13793343.14848                  20656203.5824
        50.7504         41.5004
  24111008.3954   -3025496.79349  -2357539.60547                  24111007.3894
        43.2504         26.2504
  23110418.1034  -20648799.23849 -16085160.30947                  23110417.4344
        44.5004         29.5004
  24514439.4904   -8764083.36349  -6825589.23846                  24514439.2634
        41.2504         22.5004
  24633868.9844   -2833389.89849  -2202688.20346                  24633871.6444
        39.0004         22.5004
 04  7 12 22 48  0.0000000  0  8G 1G16G20G23G25G13G 4G27
  20838918.6864  -18977143.28549 -14773792.19148                  20838917.2834
        50.5004         40.7504
  21653826.8984  -23976318.18749 -18673197.87947                  21653824.5904
        48.5004         36.0004
  20392878.6534  -18843860.63349 -14642932.19148                  20392876.2694
        48.0004         41.5004
  20646974.9494  -17763345.59449 -13831150.46548                  20646970.5904
        50.2504         41.5004
  24109814.6294   -3031768.25449  -2362426.48846                  24109814.5804
        42.7504         25.0004
  23094283.8464  -20733582.66849 -16151225.28947                  23094283.4174
        43.7504         29.0004
  24503100.4014   -8823666.94949  -6872018.02046                  24503100.6104
        40.0004         22.2504
  24616822.7004   -2922970.48849  -2272491.18446                  24616824.4884
        39.7504         21.0004
 04  7 12 22 48 15.0000000  0  8G 1G16G20G23G25G13G 4G27
  20828516.0904  -19031810.07849 -14816389.69548                  20828514.0404
        49.5004         41.0004
  21642671.7444  -24034939.46549 -18718876.78547                  21642669.3814
        49.0004         35.5004
  20385200.9194  -18884206.41849 -14674370.47748                  20385198.7354
        46.7504         41.0004
  20637753.4514  -17811804.74249 -13868910.83248                  20637749.3554
        51.0004         41.0004
  24108621.2734   -3038038.13349  -2367312.10947                  24108621.3814
        44.0004         26.5004
  23078152.8424  -20818352.41049 -16217279.60247                  23078152.2884
        42.0004         29.0004
  24491785.8644   -8883123.05949  -6918347.46546                  24491786.4454
        41.2504         22.5004
  24599783.8664   -3012509.96549  -2342262.10546                  24599785.8444
        37.0004         21.0004
 04  7 12 22 48 30.0000000  0  8G 1G16G20G23G25G13G 4G27
  20818121.5424  -19086433.82049 -14858953.64148                  20818120.0884
        49.2504         41.0004
  21631543.3664  -24093419.79749 -18764445.87147                  21631540.7294
        49.5004         36.7504
  20377549.9034  -18924413.32049 -14705700.53948                  20377547.3124
        46.5004         41.7504
  20628542.6974  -17860205.28149 -13906625.54348                  20628538.7134
        51.0004         40.5004
  24107428.2134   -3044308.18749  -2372197.89847                  24107427.7184
        43.2504         25.7504
  23062024.6464  -20903109.85949 -16283324.35247                  23062024.3744
        43.7504         30.5004
  24480496.0714   -8942453.24649  -6964578.79746                  24480496.6304
        39.5004         22.0004
  24582751.4674   -3102010.00449  -2412002.33646                  24582753.6424
        36.0004         19.0004
 04  7 12 22 48 45.0000000  0  8G 1G16G20G23G25G13G 4G27
  20807735.5394  -19141012.71949 -14901482.66048                  20807734.0624
        48.5004         40.7504
  21620442.0904  -24151757.40249 -18809903.73447                  21620439.6984
        49.2504         37.0004
  20369925.5054  -18964479.75449 -14736921.14848                  20369923.1194
        46.0004         41.2504
  20619344.2714  -17908545.53149 -13944293.26648                  20619340.0444
        51.2504         41.0004
  24106235.8814   -3050577.00049  -2377082.69546                  24106235.6394
        43.7504         25.2504
  23045898.0304  -20987853.35549 -16349358.21147                  23045897.8324
        43.7504         29.7504
  24469230.7654   -9001655.88349  -7010710.67646                  24469230.4704
        42.5004         23.0004
  24565728.4764   -3191468.66048  -2481710.28946                  24565730.5454
        35.7504         18.5004
 04  7 12 22 49  0.0000000  0  8G 1G16G20G23G25G13G 4G27
  20797357.7344  -19195547.71149 -14943977.45748                  20797356.6854
        49.5004         41.0004
  21609368.1624  -24209952.99649 -18855250.94147                  21609365.4674
        50.7504         37.0004
  20362327.5124  -19004406.58649 -14768032.98448                  20362325.4914
        46.0004         41.5004
  20610156.6314  -17956826.41449 -13981914.73448                  20610152.1864
        50.5004         41.0004
  24105042.7214   -3056845.59849  -2381967.37546                  24105042.3424
        44.5004         25.5004
  23029774.8094  -21072583.85549 -16415381.96147                  23029774.1634
        43.2504         29.5004
  24457988.5794   -9060731.84849  -7056743.89146                  24457988.7474
        44.0004         23.0004
  24548712.6294   -3280886.93049  -2551386.80946                  24548715.1384
        37.5004         17.0004
 04  7 12 22 49 15.0000000  0  8G 1G16G20G23G25G13G 4G27
  20786988.5924  -19250037.74649 -14986437.21148                  20786987.3654
        51.0004         41.2504
  21598320.9674  -24268005.58649 -18900486.71147                  21598318.2234
        49.7504         37.0004
  20354756.6174  -19044192.89849 -14799035.29748                  20354754.3344
        48.7504         41.5004
  20600980.5264  -18005046.70349 -14019488.98448                  20600976.2644
        51.2504         40.7504
  24103850.0734   -3063113.17649  -2386851.19947                  24103848.1284
        43.5004         26.0004
  23013653.6934  -21157300.26249 -16481394.72347                  23013653.3194
        43.2504         29.0004
  24446771.4414   -9119680.08649  -7102677.60546                  24446771.5844
        42.5004         24.0004
  24531704.3314   -3370263.76649  -2621031.04746                  24531707.5234
        38.0004         17.7504
 04  7 12 22 49 30.0000000  0  8G 1G16G20G23G25G13G 4G27
  20776628.6094  -19304482.56649 -15028861.75048                  20776626.8544
        50.0004         41.0004
  21587300.7994  -24325914.89549 -18945610.83247                  21587298.4624
        49.0004         37.7504
  20347212.1064  -19083838.44549 -14829927.94148                  20347209.9784
        48.2504         41.0004
  20591816.2464  -18053206.22349 -14057015.88348                  20591811.6334
        51.0004         41.0004
  24102657.5584   -3069379.70349  -2391734.21547                  24102656.5474
        43.5004         25.7504
  22997535.8594  -21242002.39849 -16547396.34847                  22997534.6404
        41.5004         29.0004
  24435578.0604   -9178500.55149  -7148511.72746                  24435578.0694
        43.5004         23.5004
  24514704.8314   -3459598.90249  -2690642.78546                  24514707.0414
        38.2504         18.5004
 04  7 12 22 49 45.0000000  0  8G 1G16G20G23G25G13G 4G27
  20766276.5654  -19358881.44949 -15071250.49648                  20766275.1514
        50.5004         41.0004
  21576308.5344  -24383680.04749 -18990622.62947                  21576306.2074
        49.0004         37.5004
  20339695.0004  -19123342.64849 -14860710.43448                  20339692.7524
        49.0004         41.2504
  20582663.3994  -18101304.23049 -14094494.85248                  20582659.1124
        51.5004         41.0004
  24101465.6194   -3075644.75049  -2396616.08646                  24101464.4424
        43.5004         25.5004
  22981419.3314  -21326689.52349 -16613386.30947                  22981419.4274
        42.5004         28.5004
  24424409.2914   -9237192.46949  -7194245.68046                  24424410.0114
        42.5004         24.5004
  24497712.6954   -3548891.63349  -2760221.49646                  24497713.8374
        39.5004         17.5004
 04  7 12 22 50  0.0000000  0  8G 1G16G20G23G25G13G 4G27
  20755933.3544  -19413234.44549 -15113603.47748                  20755932.0654
        50.5004         41.0004
  21565343.7404  -24441301.08649 -19035522.12947                  21565341.1764
        49.7504         38.2504
  20332204.2094  -19162705.52049 -14891382.81248                  20332202.2424
        50.2504         42.0004
  20573522.3424  -18149340.89149 -14131926.01648                  20573518.0034
        51.0004         41.0004
  24100273.5814   -3081908.59049  -2401497.02046                  24100272.0714
        42.7504         24.5004
  22965306.9304  -21411361.67249 -16679364.57047                  22965306.8544
        41.5004         28.7504
  24413265.1664   -9295755.94149  -7239879.55946                  24413265.1744
        40.5004         22.5004
  24480729.6304   -3638141.91449  -2829767.16446                  24480730.3554
        41.0004         17.5004
 04  7 12 22 50 15.0000000  0  8G 1G16G20G23G25G13G 4G27
  20745599.1744  -19467542.37549 -15155921.33248                  20745597.7484
        50.2504         41.2504
  21554406.2414  -24498778.76649 -19080309.91447                  21554403.9524
        50.2504         38.2504
  20324740.7174  -19201928.07849 -14921945.85248                  20324738.3804
        48.5004         41.5004
  20564392.6744  -18197316.98449 -14169309.98848                  20564388.5724
        51.0004         41.2504
  24099081.5004   -3088172.33649  -2406377.89146                  24099079.8304
        43.5004         24.0004
  22949196.9114  -21496019.66849 -16745331.79747                  22949196.6414
        43.0004         28.2504
  24402144.8354   -9354191.89849  -7285414.05546                  24402145.1964
        38.2504         23.0004
  24463753.1584   -3727350.66849  -2899280.44946                  24463754.9314
        40.0004         18.5004
 04  7 12 22 50 30.0000000  0  8G 1G16G20G23G25G13G 4G27
  20735273.0734  -19521805.28549 -15198204.12148                  20735271.7014
        51.0004         41.5004
  21543495.8034  -24556113.25049 -19124986.12947                  21543493.3904
        50.2504         39.0004
  20317303.2734  -19241010.48049 -14952399.67248                  20317300.8774
        49.0004         41.0004
  20555274.7644  -18245232.58249 -14206646.82048                  20555270.5214
        50.2504         41.5004
  24097888.7234   -3094436.25849  -2411258.85547                  24097888.3134
        42.2504         25.7504
  22933089.4254  -21580663.58649 -16811288.08247                  22933088.7754
        42.7504         27.7504
  24391049.3164   -9412500.61749  -7330849.40646                  24391048.9064
        39.2504         21.7504
  24446785.1834   -3816517.85949  -2968761.29746                  24446787.4754
        39.5004         20.0004
 04  7 12 22 50 45.0000000  0  8G 1G16G20G23G25G13G 4G27
  20724955.9814  -19576022.99249 -15240451.68048                  20724954.4234
        49.5004         41.0004
  21532612.4424  -24613304.12549 -19169550.43447                  21532610.1634
        50.0004         38.5004
  20309892.9124  -19279952.52749 -14982744.12948                  20309890.5094
        47.5004         41.5004
  20546168.1844  -18293087.50849 -14243936.37148                  20546163.8474
        50.7504         41.0004
  24096697.7734   -3100700.25049  -2416139.93746                  24096697.2074
        42.5004         25.2504
  22916984.9854  -21665293.31249 -16877233.29347                  22916984.5434
        41.5004         28.0004
  24379977.7594   -9470681.64549  -7376185.27346                  24379976.8794
        41.0004         22.2504
  24429826.0694   -3905643.35249  -3038209.67646                  24429827.3984
        40.2504         21.7504
 04  7 12 22 51  0.0000000  0  8G 1G16G20G23G25G13G 4G27
  20714647.0244  -19630195.20749 -15282663.79348                  20714645.9784
        49.2504         41.2504
  21521756.9764  -24670351.09849 -19214002.60947                  21521754.6784
        50.2504         38.5004
  20302509.2764  -19318754.02749 -15012979.05948                  20302506.8824
        47.5004         41.2504
  20537073.3334  -18340881.37549 -14281178.34448                  20537069.3474
        50.7504         41.0004
  24095505.5874   -3106964.25049  -2421020.96146                  24095504.4004
        44.0004         24.0004
  22900883.7494  -21749908.52749 -16943167.22347                  22900883.0024
        42.0004         28.2504
  24368930.3664   -9528735.00049  -7421421.67646                  24368929.5004
        41.7504         21.5004
  24412873.1254   -3994726.84449  -3107625.33246                  24412876.1514
        40.0004         21.7504
 04  7 12 22 51 15.0000000  0  8G 1G16G20G23G25G13G 4G27
  20704347.1444  -19684321.68449 -15324840.27048                  20704346.1114
        49.0004         41.0004
  21510928.8964  -24727254.04349 -19258342.56247                  21510926.3304
        49.7504         38.0004
  20295152.3204  -19357414.79749 -15043104.34048                  20295150.0704
        46.7504         41.2504
  20527990.1734  -18388614.05949 -14318372.63748                  20527985.9764
        51.0004         41.0004
  24094314.1194   -3113228.31249  -2425902.06246                  24094312.7284
        44.0004         25.2504
  22884784.4774  -21834509.13349 -17009089.73047                  22884783.5684
        42.5004         27.7504
  24357907.8524   -9586660.48849  -7466558.41046                  24357907.1164
        39.5004         21.5004
  24395929.8764   -4083768.16049  -3177008.13346                  24395931.5144
        41.2504         22.0004
 04  7 12 22 51 30.0000000  0  8G 1G16G20G23G25G13G 4G27
  20694055.7144  -19738402.27349 -15366980.97748                  20694054.9254
        48.5004         41.7504
  21500127.9084  -24784012.68749 -19302570.06247                  21500125.5914
        50.7504         38.2504
  20287822.1344  -19395934.91049 -15073120.01648                  20287819.9404
        46.7504         41.0004
  20518918.7614  -18436285.36349 -14355519.11348                  20518914.1914
        51.5004         40.5004
  24093121.1944   -3119492.44149  -2430783.25846                  24093120.7944
        43.2504         24.7504
  22868688.2044  -21919094.98849 -17075000.78147                  22868687.8744
        41.7504         27.5004
  24346909.2804   -9644457.99649  -7511595.43446                  24346908.3474
        43.0004         20.5004
  24378993.9604   -4172767.09049  -3246357.89846                  24378995.6514
        41.7504         22.7504
 04  7 12 22 51 45.0000000  0  8G 1G16G20G23G25G13G 4G27
  20683773.9854  -19792436.94949 -15409085.93048                  20683772.2544
        50.2504         41.2504
  21489354.5714  -24840626.98849 -19346685.09847                  21489352.2004
        50.7504         38.2504
  20280518.7884  -19434314.29749 -15103026.03148                  20280516.7914
        47.5004         41.0004
  20509859.1254  -18483895.35249 -14392617.79748                  20509854.3584
        51.0004         40.5004
  24091929.5034   -3125756.87149  -2435664.65247                  24091929.0804
        43.2504         26.2504
  22852594.9034  -22003665.96549 -17140900.19547                  22852593.8524
        42.2504         27.2504
  24335935.0684   -9702127.53949  -7556532.75046                  24335934.2244
        41.7504         22.2504
  24362065.7264   -4261723.70749  -3315674.68446                  24362067.9464
        42.0004         23.0004
 04  7 12 22 52  0.0000000  0  8G 1G16G20G23G25G13G 4G27
  20673499.6784  -19846425.78549 -15451155.14848                  20673498.5404
        49.5004         41.5004
  21478608.7304  -24897096.94549 -19390687.64547                  21478606.9194
        49.7504         38.0004
  20273242.0714  -19472552.96149 -15132822.39848                  20273239.6584
        48.5004         41.0004
  20500810.5974  -18531444.02749 -14429668.71948                  20500805.7894
        50.7504         40.5004
  24090737.1694   -3132021.87949  -2440546.48046                  24090736.4044
        43.5004         24.7504
  22836504.7204  -22088222.09849 -17206788.09447                  22836502.6184
        43.2504         26.7504
  24324985.3524   -9759669.22749  -7601370.42246                  24324984.1304
        41.7504         21.5004
  24345145.4774   -4350637.79349  -3384958.32446                  24345148.3144
        41.5004         22.2504
 04  7 12 22 52 15.0000000  0  8G 1G16G20G23G25G13G 4G27
  20663234.9174  -19900368.99649 -15493188.82048                  20663233.5264
        49.0004         41.2504
  21467890.0954  -24953422.77349 -19434577.89847                  21467887.7404
        50.7504         38.0004
  20265992.1814  -19510651.46949 -15162509.56248                  20265989.9414
        47.2504         41.2504
  20491773.8354  -18578931.71149 -14466672.10948                  20491769.3734
        51.0004         40.5004
  24089545.4384   -3138287.99249  -2445429.19546                  24089543.9284
        43.5004         24.7504
  22820416.6984  -22172763.75449 -17272664.68747                  22820415.8404
        43.2504         26.5004
  24314059.8114   -9817083.43049  -7646108.72346                  24314058.9954
        40.7504         21.7504
  24328233.7564   -4439509.86749  -3454209.24246                  24328235.8334
        41.0004         22.2504
 04  7 12 22 52 30.0000000  0  8G 1G16G20G23G25G13G 4G27
  20652978.4814  -19954266.42649 -15535186.82848                  20652977.2844
        50.7504         41.2504
  21457199.2034  -25009604.34049 -19478355.73447                  21457196.9054
        51.0004         38.2504
  20258769.0474  -19548609.84849 -15192087.53148                  20258766.8964
        49.0004         41.0004
  20482748.7484  -18626358.21949 -14503627.83648                  20482744.8194
        51.2504         41.2504
  24088352.3524   -3144555.21149  -2450312.76246                  24088352.0884
        43.2504         25.0004
  22804331.4174  -22257290.86749 -17338529.92247                  22804330.2974
        44.0004         27.5004
  24303158.0684   -9874370.03949  -7690747.64546                  24303157.8314
        40.0004         21.2504
  24311330.0944   -4528339.70749  -3523427.23846                  24311332.6344
        40.7504         21.7504
 04  7 12 22 52 45.0000000  0  8G 1G16G20G23G25G13G 4G27
  20642730.6844  -20008118.56249 -15577149.52348                  20642729.6804
        50.2504         41.0004
  21446535.5624  -25065642.08649 -19522021.50047                  21446533.3754
        51.0004         37.7504
  20251572.6714  -19586428.57049 -15221556.66848                  20251570.2224
        49.2504         40.7504
  20473735.7324  -18673723.97749 -14540536.21548                  20473731.1284
        51.0004         40.7504
  24087159.7734   -3150824.31649  -2455197.81246                  24087159.0864
        43.5004         25.0004
  22788249.9004  -22341803.85549 -17404384.19147                  22788247.9664
        44.0004         28.2504
  24292281.3514   -9931529.62549  -7735287.58646                  24292280.2554
        41.5004         21.0004
  24294433.7054   -4617127.89849  -3592612.79746                  24294436.3314
        40.5004         22.5004
 04  7 12 22 53  0.0000000  0  8G 1G16G20G23G25G13G 4G27
  20632491.7104  -20061924.96949 -15619076.59448                  20632490.5704
        50.2504         41.0004
  21435899.4364  -25121535.59449 -19565574.87147                  21435897.0634
        50.5004         38.0004
  20244402.5274  -19624107.19949 -15250916.63748                  20244400.3994
        49.7504         40.5004
  20464733.9054  -18721028.53549 -14577396.90648                  20464729.6074
        51.5004         40.5004
  24085965.8044   -3157094.92649  -2460084.02046                  24085965.1534
        43.0004         24.5004
  22772169.9544  -22426302.34849 -17470227.14547                  22772168.4504
        42.7504         27.5004
  24281428.3644   -9988561.70749  -7779728.13346                  24281427.5084
        42.0004         21.5004
  24277546.1404   -4705873.90249  -3661765.45746                  24277548.8864
        40.5004         23.0004
 04  7 12 22 53 15.0000000  0  8G 1G16G20G23G25G13G 4G27
  20622261.1594  -20115685.67649 -15660968.05148                  20622260.4664
        50.5004         41.0004
  21425290.9344  -25177284.80949 -19609015.82047                  21425288.2744
        50.2504         37.5004
  20237258.8684  -19661645.94949 -15280167.62148                  20237256.6234
        49.7504         40.7504
  20455743.0984  -18768272.00449 -14614210.00048                  20455739.2084
        50.7504         40.5004
  24084772.4334   -3163367.40649  -2464971.68046                  24084771.5834
        42.5004         25.0004
  22756093.1994  -22510786.18449 -17536058.67647                  22756092.5124
        45.5004         28.2504
  24270600.2884  -10045466.51649  -7824069.54746                  24270598.4444
        42.5004         22.5004
  24260666.6374   -4794577.76649  -3730885.28946                  24260668.3614
        41.5004         22.2504
 04  7 12 22 53 30.0000000  0  8G 1G16G20G23G25G13G 4G27
  20612039.5174  -20169401.32449 -15702824.39848                  20612038.2134
        50.5004         41.2504
  21414709.4144  -25232890.27749 -19652344.75047                  21414706.8124
        50.0004         36.7504
  20230142.3674  -19699045.48449 -15309310.12548                  20230140.0074
        49.0004         41.5004
  20446764.8854  -18815454.94549 -14650975.92648                  20446760.5694
        51.0004         40.2504
  24083578.9304   -3169642.44149  -2469861.35547                  24083577.8774
        42.0004         25.7504
  22740019.3774  -22595256.09449 -17601879.34847                  22740017.6144
        44.7504         28.0004
  24259795.1884  -10102244.81649  -7868312.38346                  24259794.1594
        42.2504         21.2504
  24243794.0684   -4883239.97349  -3799972.64546                  24243796.3794
        40.5004         22.5004
 04  7 12 22 53 45.0000000  0  8G 1G16G20G23G25G13G 4G27
  20601826.7174  -20223070.98849 -15744644.90648                  20601825.4594
        51.5004         40.2504
  21404155.4864  -25288351.10249 -19695560.96547                  21404152.8784
        49.7504         37.2504
  20223051.9164  -19736304.92649 -15338343.46148                  20223049.5544
        49.5004         41.2504
  20437797.9164  -18862576.49249 -14687694.02348                  20437793.6804
        50.7504         40.5004
  24082383.8974   -3175919.48849  -2474752.59047                  24082383.6854
        40.7504         25.7504
  22723947.8024  -22679711.16449 -17667688.46947                  22723946.6614
        45.0004         29.7504
  24249014.8984  -10158895.75049  -7912455.96546                  24249014.1064
        41.5004         21.0004
  24226930.5424   -4971859.73849  -3869026.93446                  24226932.2884
        41.0004         23.0004
 04  7 12 22 54  0.0000000  0  8G 1G16G20G23G25G13G 4G27
  20591621.9994  -20276695.46549 -15786430.21548                  20591620.9164
        51.2504         40.5004
  21393628.9554  -25343668.08249 -19738665.10247                  21393626.1454
        49.5004         37.2504
  20215988.2104  -19773425.17649 -15367268.33248                  20215985.7754
        50.2504         41.2504
  20428842.6504  -18909637.45349 -14724364.89848                  20428838.2894
        50.0004         40.5004
  24081189.0854   -3182199.44949  -2479646.11747                  24081188.6044
        42.7504         26.5004
  22707879.0314  -22764152.25449 -17733486.68747                  22707878.1984
        43.0004         28.7504
  24238258.3184  -10215420.02049  -7956500.86346                  24238258.2074
        42.2504         20.5004
  24210074.8414   -5060437.92249  -3938048.89146                  24210076.3334
        42.5004         25.5004
 04  7 12 22 54 15.0000000  0  8G 1G16G20G23G25G13G 4G27
  20581426.4294  -20330274.23449 -15828179.89148                  20581425.3804
        51.5004         41.0004
  21383130.1294  -25398840.75449 -19781656.79747                  21383127.1394
        49.2504         36.5004
  20208950.7394  -19810405.96149 -15396084.53148                  20208949.0034
        50.0004         41.2504
  20419898.8034  -18956637.37949 -14760988.21948                  20419894.8454
        50.5004         40.5004
  24079993.5794   -3188482.28149  -2484541.82046                  24079992.7284
        41.0004         25.2504
  22691813.7264  -22848578.90249 -17799273.67247                  22691811.7844
        44.0004         28.5004
  24227526.2444  -10271817.43449  -8000446.90646                  24227525.7074
        41.7504         20.0004
  24193227.4084   -5148973.94149  -4007037.92646                  24193228.0264
        42.0004         22.2504
 04  7 12 22 54 30.0000000  0  8G 1G16G20G23G25G13G 4G27
  20571239.4754  -20383807.89549 -15869894.44148                  20571238.3614
        51.0004         41.0004
  21372658.3744  -25453869.71149 -19824536.49247                  21372655.4814
        49.0004         36.0004
  20201940.1324  -19847247.93749 -15424792.58248                  20201938.0604
        50.7504         41.7504
  20410966.6724  -19003576.70749 -14797564.32048                  20410962.5444
        50.5004         40.5004
  24078797.1304   -3194768.77049  -2489440.39846                  24078797.2054
        41.0004         25.0004
  22675750.1654  -22932991.62549 -17865049.80147                  22675749.0784
        45.0004         30.0004
  24216818.3944  -10328088.27749  -8044294.32846                  24216818.7284
        40.7504         22.0004
  24176387.2984   -5237468.41849  -4075994.64546                  24176388.4474
        42.0004         22.0004
 04  7 12 22 54 45.0000000  0  8G 1G16G20G23G25G13G 4G27
  20561060.8424  -20437296.32449 -15911573.73848                  20561059.4614
        50.7504         41.0004
  21362214.0974  -25508754.85949 -19867304.13747                  21362211.3494
        49.2504         36.5004
  20194955.7794  -19883951.10549 -15453392.45748                  20194954.0034
        50.0004         41.2504
  20402045.9524  -19050455.50049 -14834093.25048                  20402041.3084
        51.0004         41.0004
  24077600.0234   -3201058.88349  -2494341.85247                  24077600.6604
        41.0004         26.5004
  22659689.6784  -23017390.47349 -17930815.09047                  22659688.6244
        44.0004         30.0004
  24206133.9504  -10384233.16049  -8088043.59846                  24206135.1104
        40.5004         22.2504
  24159554.7354   -5325921.32049  -4144918.96146                  24159556.0084
        42.0004         23.0004
 04  7 12 22 55  0.0000000  0  8G 1G16G20G23G25G13G 4G27
  20850684.4254  -20490735.33249 -15953214.52348                  20850682.9994
        50.5004         41.0004
  21651590.2444  -25563491.78149 -19909956.27747                  21651587.5874
        49.2504         35.2504
  20487790.8724  -19920512.42249 -15481881.80948                  20487788.7844
        50.7504         41.2504
  20692929.7684  -19097269.90249 -14870572.00848                  20692925.5774
        51.0004         41.2504
  24376195.4174   -3207351.66049  -2499245.33646                  24376194.8824
        42.7504         24.2504
  22943425.6694  -23101769.06649 -17996564.62947                  22943424.2964
        45.0004         29.7504
  24495267.7114  -10440247.34049  -8131690.99246                  24495268.9274
        41.5004         22.5004
  24442524.2104   -5414325.92649  -4213805.60946                  24442525.8044
        41.0004         22.5004
 04  7 12 22 55 15.0000000  0  8G 1G16G20G23G25G13G 4G27
  20840523.0424  -20544132.39149 -15994822.61348                  20840522.0214
        50.7504         41.5004
  21641200.8974  -25618088.26249 -19952498.98047                  21641198.2614
        49.2504         35.5004
  20480859.6174  -19956937.29749 -15510264.82848                  20480857.4934
        50.0004         42.0004
  20684032.3984  -19144026.56649 -14907005.76648                  20684028.0084
        51.0004         41.2504
  24374996.4264   -3213648.78149  -2504152.22746                  24374997.0554
        41.0004         25.2504
  22927370.3554  -23186139.02749 -18062307.42247                  22927369.3184
        45.7504         30.7504
  24484631.7374  -10496138.84049  -8175242.78946                  24484633.1684
        40.0004         22.0004
  24425708.9174   -5502694.69149  -4282664.31246                  24425709.8644
        42.2504         25.5004
 04  7 12 22 55 30.0000000  0  8G 1G16G20G23G25G13G 4G27
  20830370.7124  -20597483.04749 -16036394.55948                  20830369.5894
        51.2504         41.0004
  21630839.1774  -25672539.59849 -19994928.59447                  21630836.3464
        49.0004         35.5004
  20473954.6594  -19993222.46949 -15538539.00048                  20473952.7354
        49.7504         42.0004
  20675146.6484  -19190721.48449 -14943391.41448                  20675142.2834
        51.2504         41.0004
  24373798.2434   -3219949.08649  -2509061.59046                  24373798.2864
        40.5004         24.7504
  22911318.2284  -23270493.93449 -18128038.48447                  22911317.0694
        47.0004         30.5004
  24474020.1444  -10551903.17249  -8218695.52746                  24474021.6244
        41.2504         23.0004
  24408900.5714   -5591020.52049  -4351489.58246                  24408902.8524
        40.5004         23.0004
 04  7 12 22 55 45.0000000  0  8G 1G16G20G23G25G13G 4G27
  20820227.1064  -20650789.03549 -16077931.68748                  20820225.9834
        51.0004         41.2504
  21620504.5014  -25726847.67649 -20037246.56647                  21620501.9724
        49.0004         35.5004
  20467076.1344  -20029369.89849 -15566705.84048                  20467073.9624
        50.0004         42.0004
  20666272.0524  -19237356.46149 -14979730.35248                  20666268.0964
        51.0004         40.5004
  24372597.6984   -3226254.37949  -2513974.80946                  24372598.1084
        41.2504         24.0004
  22895268.6654  -23354835.52349 -18193759.19147                  22895266.8434
        46.7504         29.7504
  24463432.4924  -10607542.14549  -8262050.59446                  24463433.0994
        41.7504         21.7504
  24392100.1814   -5679305.40649  -4420282.95346                  24392103.1234
        41.0004         24.5004
 04  7 12 22 56  0.0000000  0  8G 1G16G20G23G25G13G 4G27
  20810091.7964  -20704049.60949 -16119433.43448                  20810090.5024
        50.7504         41.7504
  21610197.6394  -25781011.70749 -20079452.30147                  21610195.1124
        48.0004         35.5004
  20460223.8394  -20065378.87149 -15594764.78948                  20460221.7374
        50.0004         41.7504
  20657409.5474  -19283930.69949 -15016021.96948                  20657405.2014
        50.2504         40.5004
  24371397.7714   -3232564.34849  -2518891.70346                  24371397.7124
        42.2504         25.2504
  22879221.7054  -23439163.03549 -18259468.90247                  22879221.1934
        45.0004         30.5004
  24452868.8444  -10663055.02749  -8305307.41446                  24452869.5924
        41.2504         22.7504
  24375307.9494   -5767548.61349  -4489043.82446                  24375310.5644
        41.2504         24.5004
